[[{"header":{"parameterUnit":"m.s-1","parameterCategory":1,"la1":31.0,"la2":29.5877,"lo1":-88.7671,"lo2":-86.6584,"dy":0.0162,"dx":0.0185,"nx":115,"ny":88,"refTime":"2023-11-11T18:00:00:Z","depth":0,"parameterNumber":2,"parameterNumberName":"U-component_of_WINDS"},"data":[0.0,0.0,0.0,0.0,0.0,0.0,0.0,0.0,0.0,0.0,0.0,0.0,0.0,0.0,0.0,0.0,0.0,0.0,0.0,0.0,0.0,0.0,0.0,0.0,0.0,0.0,0.0,0.0,0.0,0.0,0.0,0.0,0.0,0.0,0.0,0.0,0.0,0.0,0.0,0.0,0.0,0.0,0.0,0.0,0.0,0.0,0.0,0.0,0.0,0.0,0.0,0.0,0.0,0.0,0.0,0.0,0.0,0.0,0.0,0.0,0.0,0.0,0.0,0.0,0.0,0.0,0.0,0.0,0.0,0.0,0.0,0.0,0.0,0.0,0.0,0.0,0.0,0.0,0.0,0.0,0.0,0.0,0.0,0.0,0.0,0.0,0.0,0.0,0.0,0.0,0.0,0.0,0.0,0.0,0.0,0.0,0.0,0.0,0.0,0.0,0.0,0.0,0.0,0.0,0.0,0.0,0.0,0.0,0.0,0.0,0.0,0.0,0.0,0.0,0.0,0.0,0.0,0.0,0.0,0.0,0.0,0.0,0.0,0.0,0.0,0.0,0.0,0.0,0.0,0.0,0.0,0.0,0.0,0.0,0.0,0.0,0.0,0.0,0.0,0.0,0.0,0.0,0.0,0.0,0.0,0.0,0.0,0.0,0.0,0.0,0.0,0.0,0.0,0.0,0.0,0.0,0.0,0.0,0.0,0.0,0.0,0.0,0.0,0.0,0.0,0.0,0.0,0.0,0.0,0.0,0.0,0.0,0.0,0.0,0.0,0.0,0.0,0.0,0.0,0.0,0.0,0.0,0.0,0.0,0.0,0.0,0.0,0.0,0.0,0.0,0.0,0.0,0.0,0.0,0.0,0.0,0.0,0.0,0.0,0.0,0.0,0.0,0.0,0.0,0.0,0.0,0.0,0.0,0.0,0.0,0.0,0.0,0.0,0.0,0.0,0.0,0.0,0.0,0.0,0.0,0.0,0.0,0.0,0.0,0.0,0.0,0.0,0.0,0.0,0.0,0.0,0.0,0.0,0.0,0.0,0.0,0.0,0.0,0.0,0.0,0.0,0.0,0.0,0.0,0.0,0.0,0.0,0.0,0.0,0.0,0.0,0.0,0.0,0.0,0.0,0.0,0.0,0.0,0.0,0.0,0.0,0.0,0.0,0.0,0.0,0.0,0.0,0.0,0.0,0.0,0.0,0.0,0.0,0.0,0.0,0.0,0.0,0.0,0.0,0.0,0.0,0.0,0.0,0.0,0.0,0.0,0.0,0.0,0.0,0.0,0.0,0.0,0.0,0.0,0.0,0.0,0.0,0.0,0.0,0.0,0.0,0.0,0.0,0.0,0.0,0.0,0.0,0.0,0.0,0.0,0.0,0.0,0.0,0.0,0.0,0.0,0.0,0.0,0.0,0.0,0.0,0.0,0.0,0.0,0.0,0.0,0.0,0.0,0.0,0.0,0.0,0.0,0.0,0.0,0.0,0.0,0.0,0.0,0.0,0.0,0.0,0.0,0.0,0.0,0.0,0.0,0.0,0.0,0.0,0.0,0.0,0.0,0.0,0.0,0.0,0.0,0.0,0.0,0.0,0.0,0.0,0.0,0.0,0.0,0.0,0.0,0.0,0.0,0.0,0.0,0.0,0.0,0.0,0.0,0.0,0.0,0.0,0.0,0.0,0.0,0.0,0.0,0.0,0.0,0.0,0.0,0.0,0.0,0.0,0.0,0.0,0.0,0.0,0.0,0.0,0.0,0.0,0.0,0.0,0.0,0.0,0.0,0.0,0.0,0.0,0.0,0.0,0.0,0.0,0.0,0.0,0.0,0.0,0.0,0.0,0.0,0.0,0.0,0.0,0.0,0.0,0.0,0.0,0.0,0.0,0.0,0.0,0.0,0.0,0.0,0.0,0.0,0.0,0.0,0.0,0.0,0.0,0.0,0.0,0.0,0.0,0.0,0.0,0.0,0.0,0.0,0.0,0.0,0.0,0.0,0.0,0.0,0.0,0.0,0.0,0.0,0.0,0.0,0.0,0.0,0.0,0.0,0.0,0.0,0.0,0.0,0.0,0.0,0.0,0.0,0.0,0.0,0.0,0.0,0.0,0.0,0.0,0.0,0.0,0.0,0.0,0.0,0.0,0.0,0.0,0.0,0.0,0.0,0.0,0.0,0.0,0.0,0.0,0.0,0.0,0.0,0.0,0.0,0.0,0.0,0.0,0.0,0.0,0.0,0.0,0.0,0.0,0.0,0.0,0.0,0.0,0.0,0.0,0.0,0.0,0.0,0.0,0.0,0.0,0.0,0.0,0.0,0.0,0.0,0.0,0.0,0.0,0.0,0.0,0.0,0.0,0.0,0.0,0.0,0.0,0.0,0.0,0.0,0.0,0.0,0.0,0.0,0.0,0.0,0.0,0.0,0.0,0.0,0.0,0.0,0.0,0.0,0.0,0.0,0.0,0.0,0.0,0.0,0.0,0.0,0.0,0.0,0.0,0.0,0.0,0.0,0.0,0.0,0.0,0.0,0.0,0.0,0.0,0.0,0.0,0.0,0.0,0.0,0.0,0.0,0.0,0.0,0.0,0.0,0.0,0.0,0.0,0.0,0.0,0.0,0.0,0.0,0.0,0.0,0.0,0.0,0.0,0.0,0.0,0.0,0.0,0.0,0.0,0.0,0.0,0.0,0.0,0.0,0.0,0.0,0.0,0.0,0.0,0.0,0.0,0.0,0.0,0.0,0.0,0.0,0.0,0.0,0.0,0.0,0.0,0.0,0.0,0.0,0.0,0.0,0.0,0.0,0.0,0.0,0.0,0.0,0.0,0.0,0.0,0.0,0.0,0.0,0.0,0.0,0.0,0.0,0.0,0.0,0.0,0.0,0.0,0.0,0.0,0.0,0.0,0.0,0.0,0.0,0.0,0.0,0.0,0.0,0.0,0.0,0.0,0.0,0.0,0.0,0.0,0.0,0.0,0.0,0.0,0.0,0.0,0.0,0.0,0.0,0.0,0.0,0.0,0.0,0.0,0.0,0.0,0.0,0.0,0.0,0.0,0.0,0.0,0.0,0.0,0.0,0.0,0.0,0.0,0.0,0.0,0.0,0.0,0.0,0.0,0.0,0.0,0.0,0.0,0.0,0.0,0.0,0.0,0.0,0.0,0.0,0.0,0.0,0.0,0.0,0.0,0.0,0.0,0.0,0.0,0.0,0.0,0.0,0.0,0.0,0.0,0.0,0.0,0.0,0.0,0.0,0.0,0.0,0.0,0.0,0.0,0.0,0.0,0.0,0.0,0.0,0.0,0.0,0.0,0.0,0.0,0.0,0.0,0.0,0.0,0.0,0.0,0.0,0.0,0.0,0.0,0.0,0.0,0.0,0.0,0.0,0.0,0.0,0.0,0.0,0.0,0.0,0.0,0.0,0.0,0.0,0.0,0.0,0.0,0.0,0.0,0.0,0.0,0.0,0.0,0.0,0.0,0.0,0.0,0.0,0.0,0.0,0.0,0.0,0.0,0.0,0.0,0.0,0.0,0.0,0.0,0.0,0.0,0.0,0.0,0.0,0.0,0.0,0.0,0.0,0.0,0.0,0.0,0.0,0.0,0.0,0.0,0.0,0.0,0.0,0.0,0.0,0.0,0.0,0.0,0.0,0.0,0.0,0.0,0.0,0.0,0.0,0.0,0.0,0.0,0.0,0.0,0.0,0.0,0.0,0.0,0.0,0.0,0.0,0.0,0.0,0.0,0.0,0.0,0.0,0.0,0.0,0.0,0.0,0.0,0.0,0.0,0.0,0.0,0.0,0.0,0.0,0.0,0.0,0.0,0.0,0.0,0.0,0.0,0.0,0.0,0.0,0.0,0.0,0.0,0.0,0.0,0.0,0.0,0.0,0.0,0.0,0.0,0.0,0.0,0.0,0.0,0.0,0.0,0.0,0.0,0.0,0.0,0.0,0.0,0.0,0.0,0.0,0.0,0.0,0.0,0.0,0.0,0.0,0.0,0.0,0.0,0.0,0.0,0.0,0.0,0.0,0.0,0.0,0.0,0.0,0.0,0.0,0.0,0.0,0.0,0.0,0.0,0.0,0.0,0.0,0.0,0.0,0.0,0.0,0.0,0.0,0.0,0.0,0.0,0.0,0.0,0.0,0.0,0.0,0.0,0.0,0.0,0.0,0.0,0.0,0.0,0.0,0.0,0.0,0.0,0.0,0.0,0.0,0.0,0.0,0.0,0.0,0.0,0.0,0.0,0.0,0.0,0.0,0.0,0.0,0.0,0.0,3.4216,0.0,0.0,0.0,0.0,0.0,0.0,0.0,0.0,0.0,0.0,0.0,0.0,0.0,0.0,0.0,0.0,0.0,0.0,0.0,0.0,0.0,0.0,0.0,0.0,0.0,0.0,0.0,0.0,0.0,0.0,0.0,0.0,0.0,0.0,0.0,0.0,0.0,0.0,0.0,0.0,0.0,0.0,0.0,0.0,0.0,0.0,0.0,0.0,0.0,0.0,0.0,0.0,0.0,0.0,0.0,0.0,0.0,0.0,0.0,0.0,0.0,0.0,0.0,0.0,0.0,0.0,0.0,0.0,0.0,0.0,0.0,0.0,0.0,0.0,0.0,0.0,0.0,0.0,0.0,0.0,0.0,0.0,0.0,0.0,0.0,0.0,0.0,0.0,0.0,0.0,0.0,0.0,0.0,0.0,0.0,0.0,0.0,0.0,0.0,0.0,0.0,0.0,0.0,0.0,0.0,0.0,0.0,0.0,0.0,0.0,3.6665,3.487,3.7006,3.7013,3.4493,0.0,0.0,0.0,0.0,0.0,0.0,0.0,0.0,0.0,0.0,0.0,0.0,0.0,0.0,0.0,0.0,0.0,0.0,0.0,0.0,0.0,0.0,0.0,0.0,0.0,0.0,0.0,0.0,0.0,0.0,0.0,0.0,0.0,0.0,0.0,0.0,0.0,0.0,0.0,0.0,0.0,0.0,0.0,0.0,0.0,0.0,0.0,0.0,0.0,0.0,0.0,0.0,0.0,0.0,0.0,0.0,0.0,0.0,0.0,0.0,0.0,0.0,0.0,0.0,0.0,0.0,0.0,0.0,0.0,0.0,0.0,0.0,0.0,0.0,0.0,0.0,0.0,0.0,0.0,0.0,0.0,0.0,0.0,0.0,0.0,0.0,0.0,0.0,0.0,0.0,0.0,0.0,0.0,0.0,0.0,0.0,0.0,0.0,0.0,0.0,0.0,0.0,0.0,0.0,0.0,0.0,0.0,0.0,0.0,0.0,0.0,0.0,3.8265,3.8283,3.5715,0.0,0.0,0.0,0.0,0.0,0.0,0.0,0.0,0.0,0.0,0.0,0.0,0.0,0.0,0.0,0.0,0.0,0.0,0.0,0.0,0.0,0.0,0.0,0.0,0.0,0.0,0.0,0.0,0.0,0.0,0.0,0.0,0.0,0.0,0.0,0.0,0.0,0.0,0.0,0.0,0.0,0.0,0.0,0.0,0.0,0.0,0.0,0.0,0.0,0.0,0.0,0.0,0.0,0.0,0.0,0.0,0.0,0.0,0.0,0.0,0.0,0.0,0.0,0.0,0.0,0.0,0.0,0.0,0.0,0.0,0.0,0.0,0.0,0.0,0.0,0.0,0.0,0.0,0.0,0.0,0.0,0.0,0.0,0.0,0.0,0.0,0.0,0.0,0.0,0.0,0.0,0.0,0.0,0.0,0.0,0.0,0.0,0.0,0.0,0.0,0.0,0.0,0.0,0.0,0.0,0.0,0.0,0.0,0.0,0.0,3.6723,3.766,3.8852,0.0,3.8456,0.0,0.0,0.0,0.0,0.0,0.0,0.0,0.0,0.0,0.0,0.0,0.0,0.0,0.0,0.0,0.0,0.0,0.0,0.0,0.0,0.0,0.0,0.0,0.0,0.0,0.0,0.0,0.0,0.0,0.0,0.0,0.0,0.0,0.0,0.0,0.0,0.0,0.0,0.0,0.0,0.0,0.0,0.0,0.0,0.0,0.0,0.0,0.0,0.0,0.0,0.0,0.0,0.0,0.0,0.0,0.0,0.0,0.0,0.0,0.0,0.0,0.0,0.0,0.0,0.0,0.0,0.0,0.0,0.0,0.0,0.0,0.0,0.0,0.0,0.0,0.0,0.0,0.0,0.0,0.0,0.0,0.0,0.0,0.0,0.0,0.0,0.0,0.0,0.0,0.0,0.0,0.0,0.0,0.0,0.0,0.0,0.0,0.0,0.0,0.0,0.0,0.0,0.0,0.0,0.0,0.0,0.0,0.0,0.0,0.0,3.823,3.9065,3.9178,3.8456,0.0,0.0,0.0,0.0,0.0,0.0,0.0,0.0,0.0,0.0,0.0,0.0,0.0,0.0,0.0,0.0,0.0,0.0,0.0,0.0,0.0,0.0,0.0,0.0,0.0,0.0,0.0,0.0,0.0,0.0,0.0,0.0,0.0,0.0,0.0,0.0,0.0,0.0,0.0,0.0,0.0,0.0,0.0,0.0,0.0,0.0,0.0,0.0,0.0,0.0,0.0,0.0,0.0,0.0,0.0,0.0,0.0,0.0,0.0,0.0,0.0,0.0,0.0,0.0,0.0,0.0,0.0,0.0,0.0,0.0,0.0,0.0,0.0,0.0,0.0,0.0,0.0,0.0,0.0,0.0,0.0,0.0,0.0,0.0,0.0,0.0,0.0,0.0,0.0,0.0,0.0,0.0,0.0,0.0,0.0,0.0,0.0,0.0,0.0,0.0,0.0,0.0,0.0,0.0,0.0,0.0,0.0,0.0,0.0,0.0,3.9014,4.0148,4.0781,3.9087,3.754,3.6409,0.0,0.0,0.0,0.0,0.0,0.0,0.0,0.0,0.0,0.0,0.0,0.0,0.0,0.0,0.0,0.0,0.0,0.0,0.0,0.0,0.0,0.0,0.0,0.0,0.0,0.0,0.0,0.0,0.0,0.0,0.0,0.0,0.0,0.0,0.0,0.0,0.0,0.0,0.0,0.0,0.0,0.0,0.0,0.0,0.0,0.0,0.0,0.0,0.0,0.0,0.0,0.0,0.0,0.0,0.0,0.0,0.0,0.0,0.0,0.0,0.0,0.0,0.0,0.0,0.0,0.0,0.0,0.0,0.0,0.0,0.0,0.0,0.0,0.0,0.0,0.0,0.0,0.0,0.0,0.0,0.0,0.0,0.0,0.0,0.0,0.0,0.0,0.0,0.0,0.0,0.0,0.0,0.0,0.0,0.0,0.0,0.0,0.0,0.0,0.0,0.0,0.0,0.0,0.0,0.0,0.0,0.0,0.0,4.1707,4.1714,4.222,4.3205,3.8569,3.682,0.0,0.0,0.0,0.0,0.0,0.0,0.0,0.0,0.0,0.0,0.0,0.0,0.0,0.0,0.0,0.0,0.0,0.0,0.0,0.0,0.0,0.0,0.0,0.0,0.0,0.0,0.0,0.0,0.0,0.0,0.0,0.0,0.0,0.0,0.0,0.0,0.0,0.0,0.0,0.0,0.0,0.0,0.0,0.0,0.0,0.0,0.0,0.0,0.0,0.0,0.0,0.0,0.0,0.0,0.0,0.0,0.0,0.0,0.0,0.0,0.0,0.0,0.0,0.0,0.0,0.0,0.0,0.0,0.0,0.0,0.0,0.0,0.0,0.0,0.0,0.0,0.0,0.0,0.0,0.0,0.0,0.0,0.0,0.0,0.0,0.0,0.0,0.0,0.0,0.0,0.0,0.0,0.0,0.0,0.0,0.0,0.0,0.0,0.0,0.0,0.0,0.0,0.0,0.0,0.0,0.0,0.0,0.0,0.0,3.9347,4.0942,4.1866,4.1942,4.0327,3.9297,0.0,0.0,0.0,0.0,0.0,0.0,0.0,0.0,0.0,0.0,0.0,0.0,0.0,0.0,0.0,0.0,0.0,0.0,0.0,0.0,0.0,0.0,0.0,0.0,0.0,0.0,0.0,0.0,0.0,0.0,0.0,0.0,0.0,0.0,0.0,0.0,0.0,0.0,0.0,0.0,0.0,0.0,0.0,0.0,0.0,0.0,0.0,0.0,0.0,0.0,0.0,0.0,0.0,0.0,0.0,0.0,0.0,0.0,0.0,0.0,0.0,0.0,0.0,0.0,0.0,0.0,0.0,0.0,0.0,0.0,0.0,0.0,0.0,0.0,0.0,0.0,0.0,0.0,0.0,0.0,0.0,0.0,0.0,0.0,0.0,0.0,0.0,0.0,0.0,0.0,0.0,0.0,0.0,0.0,0.0,0.0,0.0,0.0,0.0,0.0,0.0,0.0,0.0,0.0,0.0,0.0,0.0,0.0,0.0,4.0274,0.0,4.2967,4.1976,4.1315,3.9996,0.0,0.0,0.0,0.0,0.0,0.0,0.0,0.0,0.0,0.0,0.0,0.0,0.0,0.0,0.0,0.0,0.0,0.0,0.0,0.0,0.0,0.0,0.0,0.0,0.0,0.0,0.0,0.0,0.0,0.0,0.0,0.0,0.0,0.0,0.0,0.0,0.0,0.0,0.0,0.0,0.0,0.0,0.0,0.0,0.0,0.0,0.0,0.0,0.0,0.0,0.0,0.0,0.0,0.0,0.0,0.0,0.0,0.0,0.0,0.0,0.0,0.0,0.0,0.0,0.0,0.0,0.0,0.0,0.0,0.0,0.0,0.0,0.0,0.0,0.0,0.0,0.0,0.0,0.0,0.0,0.0,0.0,0.0,0.0,0.0,0.0,0.0,0.0,0.0,0.0,0.0,0.0,0.0,0.0,0.0,0.0,0.0,0.0,0.0,0.0,0.0,0.0,0.0,0.0,0.0,0.0,0.0,0.0,4.1941,4.5278,4.625,4.5687,4.3764,4.1304,3.8561,0.0,0.0,0.0,0.0,0.0,0.0,0.0,0.0,0.0,0.0,0.0,0.0,0.0,0.0,0.0,0.0,0.0,0.0,0.0,0.0,0.0,0.0,0.0,0.0,0.0,0.0,0.0,0.0,0.0,0.0,0.0,0.0,0.0,0.0,0.0,0.0,0.0,0.0,0.0,0.0,0.0,0.0,0.0,0.0,0.0,0.0,0.0,0.0,0.0,0.0,0.0,0.0,0.0,0.0,0.0,0.0,0.0,0.0,0.0,0.0,0.0,0.0,0.0,0.0,0.0,0.0,0.0,0.0,0.0,0.0,0.0,0.0,0.0,0.0,0.0,0.0,0.0,0.0,0.0,0.0,0.0,0.0,0.0,0.0,0.0,0.0,0.0,0.0,0.0,0.0,0.0,0.0,0.0,0.0,0.0,0.0,0.0,0.0,0.0,0.0,0.0,0.0,0.0,0.0,0.0,0.0,0.0,0.0,0.0,4.3038,4.4758,4.5661,4.5448,4.226,4.0259,0.0,0.0,0.0,0.0,0.0,0.0,0.0,0.0,0.0,0.0,0.0,0.0,0.0,0.0,0.0,0.0,0.0,0.0,0.0,0.0,0.0,0.0,0.0,0.0,0.0,0.0,0.0,0.0,0.0,0.0,0.0,0.0,0.0,0.0,0.0,0.0,0.0,0.0,0.0,0.0,0.0,0.0,0.0,0.0,0.0,0.0,0.0,0.0,0.0,0.0,0.0,0.0,0.0,0.0,0.0,0.0,0.0,0.0,0.0,0.0,0.0,0.0,0.0,0.0,0.0,0.0,0.0,0.0,0.0,0.0,0.0,0.0,0.0,0.0,0.0,0.0,0.0,0.0,0.0,0.0,0.0,0.0,0.0,0.0,0.0,0.0,0.0,0.0,0.0,0.0,0.0,0.0,0.0,0.0,0.0,0.0,0.0,0.0,0.0,0.0,0.0,0.0,0.0,0.0,0.0,0.0,0.0,0.0,0.0,4.3415,4.5851,4.6944,4.6302,4.3456,4.1574,4.0745,0.0,0.0,0.0,0.0,0.0,0.0,0.0,0.0,0.0,0.0,0.0,0.0,0.0,0.0,0.0,0.0,0.0,0.0,0.0,0.0,0.0,0.0,0.0,0.0,0.0,0.0,0.0,0.0,0.0,0.0,0.0,0.0,0.0,0.0,0.0,0.0,0.0,0.0,0.0,0.0,0.0,0.0,0.0,0.0,0.0,0.0,0.0,0.0,0.0,0.0,0.0,0.0,0.0,0.0,0.0,0.0,0.0,0.0,0.0,0.0,0.0,0.0,0.0,0.0,0.0,0.0,0.0,0.0,0.0,0.0,0.0,0.0,0.0,0.0,0.0,0.0,0.0,0.0,0.0,0.0,0.0,0.0,0.0,0.0,0.0,0.0,0.0,0.0,0.0,0.0,0.0,0.0,0.0,0.0,0.0,0.0,0.0,0.0,0.0,0.0,0.0,0.0,0.0,0.0,0.0,0.0,0.0,0.0,4.5817,4.9019,4.9273,4.6426,4.4775,4.2492,0.0,0.0,0.0,0.0,0.0,0.0,0.0,0.0,0.0,0.0,0.0,0.0,0.0,0.0,0.0,0.0,0.0,0.0,0.0,0.0,0.0,0.0,0.0,0.0,0.0,0.0,0.0,0.0,0.0,0.0,0.0,0.0,0.0,0.0,0.0,0.0,0.0,0.0,0.0,0.0,0.0,0.0,0.0,0.0,0.0,0.0,0.0,0.0,0.0,0.0,0.0,0.0,0.0,0.0,0.0,0.0,0.0,0.0,0.0,0.0,0.0,0.0,0.0,0.0,0.0,0.0,0.0,0.0,0.0,0.0,0.0,0.0,0.0,0.0,0.0,0.0,0.0,0.0,0.0,0.0,0.0,0.0,0.0,0.0,0.0,0.0,0.0,0.0,0.0,0.0,0.0,0.0,0.0,0.0,0.0,0.0,0.0,0.0,0.0,0.0,0.0,0.0,0.0,0.0,0.0,0.0,0.0,0.0,0.0,4.8404,4.9923,5.0009,4.8516,4.5393,4.3323,0.0,0.0,0.0,0.0,0.0,0.0,0.0,0.0,0.0,0.0,0.0,0.0,0.0,0.0,0.0,0.0,0.0,0.0,0.0,0.0,0.0,0.0,0.0,0.0,0.0,0.0,0.0,0.0,0.0,0.0,0.0,0.0,0.0,0.0,0.0,0.0,0.0,0.0,0.0,0.0,0.0,0.0,0.0,0.0,0.0,0.0,0.0,0.0,0.0,0.0,0.0,0.0,0.0,0.0,0.0,0.0,0.0,0.0,0.0,0.0,0.0,0.0,0.0,0.0,0.0,0.0,0.0,0.0,0.0,0.0,0.0,0.0,0.0,0.0,0.0,0.0,0.0,0.0,0.0,0.0,0.0,0.0,0.0,0.0,0.0,0.0,0.0,0.0,0.0,0.0,0.0,0.0,0.0,0.0,0.0,0.0,0.0,0.0,0.0,0.0,0.0,0.0,0.0,0.0,0.0,0.0,0.0,0.0,4.7502,4.9207,5.0301,5.0747,5.0462,4.6912,4.4475,0.0,0.0,0.0,0.0,0.0,0.0,0.0,0.0,0.0,0.0,0.0,0.0,0.0,0.0,0.0,0.0,0.0,0.0,0.0,0.0,0.0,0.0,0.0,0.0,0.0,0.0,0.0,0.0,0.0,0.0,0.0,0.0,0.0,0.0,0.0,0.0,0.0,0.0,0.0,0.0,0.0,0.0,0.0,0.0,0.0,0.0,0.0,0.0,0.0,0.0,0.0,0.0,0.0,0.0,0.0,0.0,0.0,0.0,0.0,0.0,0.0,0.0,0.0,0.0,0.0,0.0,0.0,0.0,0.0,0.0,0.0,0.0,0.0,0.0,0.0,0.0,0.0,0.0,0.0,0.0,0.0,0.0,0.0,0.0,0.0,0.0,0.0,0.0,0.0,0.0,0.0,0.0,0.0,0.0,0.0,0.0,0.0,0.0,0.0,0.0,0.0,0.0,0.0,0.0,0.0,0.0,0.0,0.0,4.7645,4.898,5.0355,5.128,5.1653,4.8673,4.5893,0.0,0.0,0.0,0.0,0.0,0.0,0.0,0.0,0.0,0.0,0.0,0.0,0.0,0.0,0.0,0.0,0.0,0.0,0.0,0.0,0.0,0.0,0.0,0.0,0.0,0.0,0.0,0.0,0.0,0.0,0.0,0.0,0.0,0.0,0.0,0.0,0.0,0.0,0.0,0.0,0.0,0.0,0.0,0.0,0.0,0.0,0.0,0.0,0.0,0.0,0.0,0.0,0.0,0.0,0.0,0.0,0.0,0.0,0.0,0.0,0.0,0.0,0.0,0.0,0.0,0.0,0.0,0.0,0.0,0.0,0.0,0.0,0.0,0.0,0.0,0.0,0.0,0.0,0.0,0.0,0.0,0.0,0.0,0.0,0.0,0.0,0.0,0.0,0.0,0.0,0.0,0.0,0.0,0.0,0.0,0.0,0.0,0.0,0.0,0.0,0.0,0.0,0.0,0.0,0.0,0.0,0.0,0.0,4.8002,4.8995,5.018,5.0842,5.0933,4.8952,4.7155,0.0,0.0,0.0,0.0,0.0,0.0,0.0,0.0,0.0,0.0,0.0,0.0,0.0,0.0,0.0,0.0,0.0,0.0,0.0,0.0,0.0,0.0,0.0,0.0,0.0,0.0,0.0,0.0,0.0,0.0,0.0,0.0,0.0,0.0,0.0,0.0,0.0,0.0,0.0,0.0,0.0,0.0,0.0,0.0,0.0,0.0,0.0,0.0,2.3777,0.0,0.0,0.0,0.0,0.0,0.0,0.0,0.0,0.0,0.0,0.0,0.0,0.0,0.0,0.0,0.0,0.0,0.0,0.0,0.0,0.0,0.0,0.0,0.0,0.0,0.0,0.0,0.0,0.0,0.0,0.0,0.0,0.0,0.0,0.0,0.0,0.0,0.0,0.0,0.0,0.0,0.0,0.0,0.0,0.0,0.0,0.0,0.0,0.0,0.0,0.0,0.0,0.0,0.0,0.0,0.0,0.0,0.0,0.0,4.7998,4.9352,5.0362,5.1012,5.1192,4.9606,4.7587,0.0,0.0,0.0,0.0,0.0,0.0,0.0,0.0,0.0,0.0,0.0,0.0,0.0,0.0,0.0,0.0,0.0,0.0,0.0,0.0,0.0,0.0,0.0,0.0,0.0,0.0,0.0,0.0,0.0,0.0,0.0,0.0,0.0,0.0,0.0,0.0,0.0,0.0,0.0,0.0,0.0,0.0,0.0,0.0,0.0,0.0,0.0,0.0,0.0,0.0,0.0,0.0,0.0,0.0,0.0,0.0,0.0,0.0,0.0,0.0,0.0,0.0,0.0,0.0,0.0,0.0,0.0,0.0,0.0,0.0,0.0,0.0,0.0,0.0,0.0,0.0,0.0,0.0,0.0,0.0,0.0,0.0,0.0,0.0,0.0,0.0,0.0,0.0,0.0,0.0,0.0,0.0,0.0,0.0,0.0,0.0,0.0,0.0,0.0,0.0,0.0,0.0,0.0,0.0,0.0,0.0,0.0,4.6513,4.7792,4.9557,5.0497,5.1191,5.1663,5.0212,4.7645,4.4031,0.0,0.0,0.0,0.0,0.0,0.0,0.0,0.0,0.0,0.0,0.0,0.0,0.0,0.0,0.0,0.0,0.0,0.0,0.0,0.0,0.0,0.0,0.0,0.0,0.0,0.0,0.0,0.0,0.0,0.0,0.0,0.0,0.0,0.0,0.0,0.0,0.0,0.0,2.2619,2.3345,0.0,0.0,0.0,0.0,0.0,0.0,0.0,0.0,2.3898,0.0,0.0,0.0,0.0,0.0,0.0,0.0,0.0,0.0,0.0,0.0,0.0,0.0,0.0,0.0,0.0,0.0,0.0,0.0,0.0,0.0,0.0,0.0,0.0,0.0,0.0,0.0,0.0,0.0,0.0,0.0,0.0,0.0,0.0,0.0,0.0,0.0,0.0,0.0,0.0,0.0,0.0,0.0,0.0,0.0,0.0,0.0,0.0,0.0,0.0,0.0,0.0,0.0,0.0,0.0,0.0,4.6626,4.6843,4.7523,4.8774,4.9809,5.0535,5.0846,4.9865,4.7693,4.4327,0.0,0.0,0.0,0.0,0.0,0.0,0.0,0.0,0.0,0.0,0.0,0.0,0.0,0.0,0.0,0.0,0.0,0.0,0.0,0.0,0.0,0.0,0.0,0.0,0.0,0.0,0.0,0.0,0.0,0.0,0.0,0.0,0.0,0.0,0.0,0.0,0.0,0.0,0.0,2.5544,2.567,0.0,0.0,0.0,0.0,0.0,0.0,0.0,0.0,2.2716,0.0,0.0,0.0,0.0,0.0,0.0,0.0,0.0,0.0,0.0,0.0,0.0,0.0,0.0,0.0,0.0,0.0,0.0,0.0,0.0,0.0,0.0,0.0,0.0,0.0,0.0,0.0,0.0,0.0,0.0,0.0,0.0,0.0,0.0,0.0,0.0,0.0,0.0,0.0,0.0,0.0,0.0,0.0,0.0,0.0,0.0,0.0,0.0,0.0,0.0,0.0,0.0,0.0,0.0,0.0,4.6495,4.6694,4.75,4.9159,4.9727,5.0214,5.0654,4.9385,4.7271,0.0,0.0,0.0,0.0,0.0,0.0,0.0,0.0,0.0,0.0,0.0,0.0,0.0,0.0,0.0,0.0,0.0,0.0,0.0,0.0,0.0,0.0,0.0,0.0,0.0,0.0,0.0,0.0,0.0,0.0,0.0,0.0,0.0,0.0,0.0,0.0,0.0,0.0,0.0,0.0,2.6085,2.6395,2.7244,0.0,0.0,0.0,0.0,0.0,0.0,2.4145,2.3043,0.0,0.0,0.0,0.0,0.0,0.0,0.0,0.0,0.0,0.0,0.0,0.0,0.0,0.0,0.0,0.0,0.0,0.0,0.0,0.0,0.0,0.0,0.0,0.0,0.0,0.0,0.0,0.0,0.0,0.0,0.0,0.0,0.0,0.0,0.0,0.0,0.0,0.0,0.0,0.0,0.0,0.0,0.0,0.0,0.0,0.0,0.0,0.0,0.0,0.0,0.0,0.0,0.0,0.0,0.0,4.6443,4.6757,4.7803,4.9714,4.9857,5.0142,5.0654,4.9337,4.729,0.0,0.0,0.0,0.0,0.0,0.0,0.0,0.0,0.0,0.0,0.0,0.0,0.0,0.0,0.0,0.0,0.0,0.0,0.0,0.0,0.0,0.0,0.0,0.0,0.0,0.0,0.0,0.0,0.0,0.0,0.0,0.0,0.0,0.0,0.0,0.0,0.0,0.0,0.0,0.0,0.0,2.7214,2.7997,2.7598,0.0,0.0,0.0,0.0,2.5125,2.4835,0.0,0.0,0.0,0.0,0.0,0.0,0.0,0.0,0.0,0.0,0.0,0.0,0.0,0.0,0.0,0.0,0.0,0.0,0.0,0.0,0.0,0.0,0.0,0.0,0.0,0.0,0.0,0.0,0.0,0.0,0.0,0.0,0.0,0.0,0.0,0.0,0.0,0.0,0.0,0.0,0.0,0.0,0.0,0.0,0.0,0.0,0.0,0.0,0.0,0.0,0.0,0.0,0.0,0.0,0.0,0.0,4.675,4.7552,4.852,4.9728,5.0019,5.0336,5.0683,5.0381,4.868,0.0,0.0,0.0,0.0,0.0,0.0,0.0,0.0,0.0,0.0,0.0,0.0,0.0,0.0,0.0,0.0,0.0,0.0,0.0,0.0,0.0,0.0,0.0,0.0,0.0,0.0,0.0,0.0,0.0,0.0,0.0,0.0,0.0,0.0,0.0,0.0,0.0,0.0,0.0,0.0,0.0,2.8788,2.789,2.7671,2.7612,0.0,0.0,2.5837,2.7054,2.6524,0.0,0.0,0.0,0.0,0.0,0.0,0.0,0.0,0.0,0.0,0.0,0.0,0.0,0.0,0.0,0.0,0.0,0.0,0.0,0.0,0.0,0.0,0.0,0.0,0.0,0.0,0.0,0.0,0.0,0.0,0.0,0.0,0.0,0.0,0.0,0.0,0.0,0.0,0.0,0.0,0.0,0.0,0.0,0.0,0.0,0.0,0.0,0.0,0.0,0.0,0.0,0.0,0.0,0.0,0.0,4.5031,4.6629,4.7466,4.8517,4.9752,4.9904,5.0178,5.0633,4.9671,4.797,0.0,0.0,0.0,0.0,0.0,0.0,0.0,0.0,0.0,0.0,0.0,0.0,0.0,0.0,0.0,0.0,0.0,0.0,0.0,0.0,0.0,0.0,0.0,0.0,0.0,0.0,0.0,0.0,0.0,0.0,0.0,0.0,0.0,0.0,0.0,0.0,0.0,0.0,0.0,0.0,0.0,0.0,2.8238,2.8147,0.0,0.0,0.0,2.5863,2.7314,0.0,0.0,0.0,0.0,0.0,0.0,0.0,0.0,0.0,0.0,0.0,0.0,0.0,0.0,0.0,0.0,0.0,0.0,0.0,0.0,0.0,0.0,0.0,0.0,0.0,0.0,0.0,0.0,0.0,0.0,0.0,0.0,0.0,0.0,0.0,0.0,0.0,0.0,0.0,0.0,0.0,0.0,0.0,0.0,0.0,0.0,0.0,0.0,0.0,0.0,0.0,0.0,0.0,0.0,0.0,0.0,0.0,4.6197,4.7246,4.8362,4.9481,4.977,5.0118,5.0544,4.9172,0.0,0.0,0.0,0.0,0.0,0.0,0.0,0.0,0.0,0.0,0.0,0.0,0.0,0.0,0.0,0.0,0.0,0.0,0.0,0.0,0.0,0.0,0.0,0.0,0.0,0.0,0.0,2.062,0.0,0.0,0.0,0.0,0.0,0.0,0.0,0.0,0.0,0.0,0.0,0.0,0.0,0.0,2.8441,2.8771,2.8738,2.8804,0.0,0.0,2.6531,2.7425,2.6826,2.5367,0.0,0.0,0.0,0.0,0.0,0.0,0.0,0.0,0.0,0.0,0.0,0.0,0.0,0.0,0.0,0.0,0.0,0.0,0.0,0.0,0.0,0.0,0.0,0.0,0.0,0.0,0.0,0.0,0.0,0.0,0.0,0.0,0.0,0.0,0.0,0.0,0.0,0.0,0.0,0.0,0.0,0.0,0.0,0.0,0.0,0.0,0.0,0.0,0.0,0.0,0.0,0.0,0.0,0.0,0.0,4.5433,4.7168,4.8271,4.8712,4.9662,5.0313,5.0573,4.964,4.7799,0.0,0.0,0.0,0.0,0.0,0.0,0.0,0.0,0.0,0.0,0.0,0.0,0.0,0.0,0.0,0.0,0.0,0.0,0.0,0.0,0.0,0.0,0.0,0.0,0.0,0.0,0.0,0.0,0.0,0.0,0.0,0.0,0.0,0.0,0.0,0.0,0.0,0.0,0.0,0.0,0.0,2.9069,2.9397,2.943,2.9738,0.0,0.0,2.8471,2.7862,2.7796,2.6689,2.323,0.0,0.0,0.0,0.0,0.0,0.0,0.0,0.0,0.0,0.0,0.0,0.0,0.0,0.0,0.0,0.0,0.0,0.0,0.0,0.0,0.0,0.0,0.0,0.0,0.0,0.0,0.0,0.0,0.0,0.0,0.0,0.0,0.0,0.0,0.0,0.0,0.0,0.0,0.0,0.0,0.0,0.0,0.0,0.0,0.0,0.0,0.0,0.0,0.0,0.0,0.0,0.0,0.0,4.5121,4.5305,4.6948,4.8065,4.859,4.9434,4.9846,4.9726,4.8332,4.6044,0.0,0.0,0.0,0.0,0.0,0.0,0.0,0.0,0.0,0.0,0.0,0.0,0.0,0.0,0.0,0.0,0.0,0.0,0.0,0.0,0.0,0.0,0.0,0.0,0.0,0.0,0.0,0.0,2.1287,2.1613,2.1559,0.0,0.0,0.0,0.0,0.0,0.0,0.0,0.0,0.0,0.0,2.9329,3.0211,3.0178,0.0,0.0,2.9955,2.9018,2.8744,2.796,2.6287,2.3104,2.2295,0.0,0.0,0.0,0.0,0.0,0.0,0.0,0.0,0.0,0.0,0.0,0.0,0.0,0.0,0.0,0.0,0.0,0.0,0.0,0.0,0.0,0.0,0.0,0.0,0.0,0.0,0.0,0.0,0.0,0.0,0.0,0.0,0.0,0.0,0.0,0.0,0.0,0.0,0.0,0.0,0.0,0.0,0.0,0.0,0.0,0.0,0.0,0.0,0.0,0.0,0.0,0.0,4.4574,4.5236,4.6509,4.7487,4.8153,4.9145,4.9517,4.9135,4.7486,4.4987,0.0,0.0,0.0,0.0,0.0,0.0,0.0,0.0,0.0,0.0,0.0,0.0,0.0,0.0,0.0,0.0,0.0,0.0,0.0,0.0,0.0,0.0,0.0,0.0,0.0,0.0,0.0,0.0,2.1845,2.2165,2.1768,0.0,0.0,0.0,0.0,0.0,0.0,0.0,0.0,0.0,0.0,2.9681,3.0883,3.0787,3.0756,3.1232,3.0188,2.9197,2.8751,2.7175,2.5222,2.2894,0.0,0.0,0.0,0.0,0.0,0.0,0.0,0.0,0.0,0.0,0.0,0.0,0.0,0.0,0.0,0.0,0.0,0.0,0.0,0.0,0.0,0.0,0.0,0.0,0.0,0.0,0.0,0.0,0.0,0.0,3.8151,0.0,0.0,0.0,0.0,0.0,0.0,0.0,0.0,0.0,0.0,0.0,0.0,0.0,0.0,0.0,0.0,0.0,0.0,0.0,0.0,0.0,0.0,4.3347,4.5047,4.585,4.6517,4.7154,4.8744,4.9394,4.9013,4.7465,4.5121,4.1983,0.0,0.0,0.0,0.0,0.0,0.0,0.0,0.0,0.0,0.0,0.0,0.0,0.0,0.0,0.0,0.0,0.0,0.0,0.0,0.0,0.0,0.0,0.0,0.0,0.0,0.0,2.3236,2.3178,2.2801,0.0,0.0,0.0,0.0,0.0,0.0,0.0,0.0,0.0,0.0,2.9241,3.0207,3.1313,3.1189,3.1074,3.1278,3.0385,2.9108,2.7563,2.5351,2.3504,0.0,0.0,0.0,0.0,0.0,0.0,0.0,0.0,0.0,0.0,0.0,0.0,0.0,0.0,0.0,0.0,0.0,0.0,0.0,0.0,0.0,0.0,0.0,0.0,0.0,0.0,0.0,4.0821,4.0123,0.0,0.0,0.0,0.0,0.0,0.0,0.0,0.0,0.0,0.0,0.0,4.1488,4.2486,0.0,0.0,0.0,0.0,0.0,0.0,0.0,0.0,0.0,0.0,0.0,0.0,4.2953,4.4206,4.4972,4.5799,4.675,4.8039,4.8218,4.7132,4.6219,4.3729,3.9471,0.0,0.0,0.0,0.0,0.0,0.0,0.0,0.0,0.0,0.0,0.0,0.0,0.0,0.0,0.0,0.0,0.0,0.0,0.0,0.0,0.0,0.0,0.0,0.0,0.0,2.3757,0.0,0.0,0.0,0.0,0.0,0.0,0.0,0.0,0.0,0.0,0.0,2.8124,2.9722,3.0214,3.0681,3.1464,3.1485,3.1412,0.0,0.0,0.0,0.0,0.0,0.0,0.0,0.0,0.0,0.0,0.0,0.0,0.0,0.0,1.6625,1.4555,1.3849,1.355,1.3432,0.0,0.0,0.0,0.0,0.0,0.0,0.0,0.0,0.0,0.0,0.0,0.0,0.0,0.0,4.1866,0.0,4.1293,0.0,0.0,0.0,0.0,0.0,0.0,0.0,0.0,4.2734,4.2777,4.2158,4.319,4.3136,0.0,4.2504,4.1778,0.0,0.0,0.0,0.0,0.0,0.0,0.0,0.0,4.3198,4.4143,4.4886,4.5537,4.6131,4.7105,4.7103,4.5987,4.4125,4.1227,3.715,3.38,3.1664,0.0,0.0,0.0,0.0,0.0,0.0,0.0,0.0,0.0,0.0,0.0,0.0,0.0,0.0,0.0,0.0,0.0,0.0,0.0,0.0,0.0,0.0,0.0,2.3555,0.0,0.0,0.0,0.0,0.0,0.0,0.0,0.0,0.0,2.8405,2.8651,2.926,3.0328,3.0659,3.096,3.1431,0.0,0.0,0.0,0.0,0.0,0.0,0.0,2.3265,2.247,2.1099,1.9842,1.8901,1.845,1.803,1.7695,0.0,0.0,1.5299,1.4714,1.4535,1.4618,1.3856,1.3554,1.4999,1.4324,1.3844,0.0,0.0,0.0,0.0,0.0,0.0,0.0,0.0,4.254,4.2613,0.0,4.1766,0.0,0.0,0.0,0.0,0.0,4.2311,0.0,0.0,4.2759,4.2937,4.2937,4.301,4.2992,4.2991,4.3697,4.2996,4.1002,3.9729,0.0,0.0,0.0,0.0,0.0,0.0,4.3972,4.4832,4.5497,4.5638,4.527,4.5972,4.6109,4.5467,4.1348,3.7888,3.5338,3.4128,3.2459,3.0187,3.07,0.0,0.0,0.0,0.0,0.0,0.0,0.0,0.0,0.0,0.0,0.0,0.0,0.0,0.0,0.0,0.0,0.0,0.0,0.0,0.0,2.1731,0.0,0.0,0.0,0.0,0.0,0.0,0.0,0.0,0.0,0.0,2.8744,2.9654,3.0306,3.0163,0.0,0.0,0.0,0.0,3.0134,2.9508,2.8499,2.7454,2.6324,2.3481,2.1507,2.1942,0.0,0.0,1.6867,1.6518,1.6336,1.6389,1.6514,1.6521,1.6763,1.647,1.6329,1.6425,1.5343,1.5077,1.6373,1.5702,1.4998,4.356,0.0,0.0,0.0,0.0,4.4542,4.4975,4.5588,4.5932,4.5225,4.381,4.3395,0.0,0.0,0.0,0.0,0.0,0.0,4.2329,4.2237,4.3268,4.3733,4.3769,4.4331,4.4313,4.3769,4.3987,4.3144,4.1386,4.0439,3.9904,3.9724,0.0,0.0,0.0,0.0,4.3919,4.4726,4.4947,4.5258,4.5677,4.5599,4.4748,4.3077,3.9378,3.6697,3.5251,3.3615,3.2152,3.0922,3.0031,0.0,0.0,0.0,0.0,0.0,0.0,0.0,0.0,0.0,0.0,0.0,0.0,0.0,0.0,0.0,0.0,0.0,0.0,0.0,2.4143,2.3427,2.3699,0.0,0.0,0.0,0.0,0.0,0.0,0.0,0.0,0.0,3.0249,3.0249,3.0317,0.0,0.0,3.0529,3.0996,3.0043,2.9236,2.9137,2.7422,0.0,2.5698,2.3512,2.1987,2.2363,2.0342,1.8436,1.7659,1.7218,1.6917,1.6778,1.6763,1.6698,1.6411,1.6191,1.6107,1.6183,1.5891,1.5854,1.6518,1.6366,1.6198,4.6215,4.6439,4.3885,4.3951,4.5673,4.5602,4.5912,4.6522,4.6685,4.5743,4.4041,4.3444,4.225,4.072,4.0529,0.0,0.0,0.0,4.2276,4.2467,4.3266,4.3644,4.3643,4.4114,4.4095,4.3625,4.3644,4.2887,4.1503,4.1047,4.0478,3.9861,0.0,0.0,4.2499,4.3633,4.4528,4.5131,4.5186,4.5278,4.5406,4.4529,4.3147,4.1203,3.8484,3.6394,3.5105,3.3346,3.2097,3.1444,2.9808,2.8315,0.0,0.0,0.0,0.0,0.0,0.0,0.0,0.0,0.0,0.0,0.0,2.2814,2.2795,0.0,0.0,0.0,2.1672,2.2558,2.3905,2.3702,0.0,0.0,0.0,0.0,0.0,0.0,0.0,3.0069,3.0259,3.0368,3.0397,3.0282,3.0409,3.0934,3.0262,2.9806,3.0147,0.0,2.8046,2.7623,2.6294,2.5205,2.4686,2.3106,2.158,2.0615,1.9221,1.7927,1.713,1.6803,1.6677,1.6617,1.661,1.6528,1.6229,1.6067,1.6069,1.624,1.6179,1.6249,1.6698,1.6668,1.6607,4.837,4.8543,4.481,4.4425,4.6185,4.574,4.5974,4.6631,4.5924,4.5019,4.3987,4.2537,4.1379,4.0474,4.0043,0.0,4.1705,4.2029,4.2431,4.2919,4.2919,4.2919,4.2919,4.2919,4.2919,4.2919,4.2863,4.238,4.1525,4.1503,4.1088,4.0296,4.0164,4.1343,4.377,4.4798,4.5471,4.5902,4.5883,4.5498,4.4617,4.2983,4.1368,3.9827,3.819,3.6509,3.4865,3.3332,3.2246,3.1685,2.9907,2.8347,2.7151,0.0,0.0,0.0,0.0,0.0,0.0,0.0,0.0,0.0,0.0,0.0,0.0,0.0,0.0,0.0,2.0817,0.0,2.1904,2.3317,0.0,0.0,0.0,2.8699,2.934,2.9764,2.9978,2.9805,0.0,0.0,2.9535,2.9907,3.0392,3.0768,2.9859,2.9068,2.89,2.7892,2.6698,2.562,2.5215,2.4681,2.366,2.24,2.0764,1.8402,1.6899,1.6384,1.597,1.5816,1.5861,1.6065,1.6178,1.6199,1.6107,1.6163,1.6282,1.6487,1.6301,1.6262,1.666,1.6555,1.6443,4.974,5.0115,4.9008,4.8841,4.9216,4.7952,4.7769,4.8312,4.8113,4.6558,4.4077,4.3697,4.2393,4.0528,4.0998,4.1415,4.1723,4.2413,4.2776,4.2901,4.2919,4.2919,4.2919,4.2919,4.2919,4.2863,4.2555,4.2056,4.1525,4.1626,4.1134,4.0221,4.0595,4.1697,4.3343,4.4561,4.5414,4.5902,4.5902,4.5204,4.3773,4.1625,3.9992,3.9001,3.6765,3.5086,3.4041,3.3574,3.257,3.0957,2.9618,2.7862,2.5591,2.5192,0.0,0.0,0.0,0.0,0.0,0.0,0.0,0.0,0.0,2.2849,2.1572,0.0,2.3142,0.0,2.1668,2.3144,2.5861,2.5329,0.0,0.0,2.8786,2.9256,3.0255,2.9951,2.9597,2.956,2.9353,2.9121,2.8908,2.8888,2.8965,2.9209,2.9347,2.9076,2.8131,2.7107,2.6071,2.5009,2.4062,2.3314,2.2943,2.1899,2.0616,1.9421,1.7996,1.6848,1.6212,1.6031,1.6038,1.6087,1.6099,1.6163,1.6335,1.6239,1.616,1.6209,1.6141,1.6151,1.6269,1.6223,1.6245,5.0157,5.0565,5.0435,5.0563,5.0742,4.9885,4.9086,4.8384,4.8746,4.6902,4.3516,4.281,4.1578,4.0075,4.0474,4.1035,4.1705,4.2176,4.2556,4.2882,4.2919,4.2919,4.2919,4.2919,4.2919,4.2882,4.2634,4.2157,4.1525,4.1587,4.1111,4.0138,4.0808,4.1856,4.3223,4.4285,4.5201,4.6038,4.5571,4.4764,4.3496,4.1497,4.0065,3.9221,3.7202,3.5451,3.4047,3.3611,3.2744,3.1434,2.9603,2.7697,2.5758,2.4705,2.3452,0.0,0.0,0.0,0.0,0.0,0.0,0.0,0.0,0.0,0.0,0.0,2.3228,2.2615,2.2685,2.3877,2.6561,2.6291,2.6863,2.8992,2.9233,2.9477,3.0095,2.9765,2.9359,2.9067,2.8941,2.8724,2.8181,2.8187,2.8048,2.7607,2.8274,2.8374,2.7019,2.5923,2.4948,2.4013,2.3613,2.3128,2.2442,2.1324,2.0218,1.918,1.7946,1.681,1.6381,1.6251,1.6286,1.6335,1.6286,1.6286,1.6476,1.6286,1.6136,1.6087,1.5997,1.5914,1.5914,1.6004,1.617,5.0293,5.0559,5.0633,5.1,5.143,5.1339,4.9981,4.7895,4.8583,4.6703,4.2973,4.1361,4.0293,3.9713,3.9821,4.0691,4.2121,4.2157,4.2556,4.3209,4.3118,4.2991,4.2919,4.2919,4.2863,4.2825,4.2768,4.2262,4.1415,4.1415,4.0978,4.0155,4.0917,4.1937,4.315,4.3985,4.495,4.6029,4.5148,4.4323,4.3496,4.1827,4.0584,3.9816,3.8059,3.6231,3.4398,3.3371,3.2616,3.1964,2.9418,2.7453,2.627,2.4196,2.2639,0.0,2.1299,0.0,0.0,0.0,0.0,0.0,0.0,0.0,0.0,2.2686,2.3014,2.4305,2.3861,2.4197,2.5918,2.6861,2.7614,2.8221,2.8969,2.9448,2.9448,2.9333,2.9004,2.8426,2.857,2.8234,2.7224,2.7415,2.7054,2.6099,2.6681,2.6857,2.5646,2.4876,2.4202,2.2998,2.355,2.3577,2.2355,2.1043,1.9882,1.8751,1.754,1.6611,1.65,1.6433,1.6476,1.6656,1.6525,1.6443,1.6648,1.6327,1.6038,1.6004,1.5831,1.5699,1.5741,1.5873,1.6121,5.1335,5.1412,5.1922,5.2175,5.2208,5.1556,5.0307,4.8674,4.8818,4.7008,4.3788,4.2194,4.1397,4.1307,4.194,4.3099,4.4603,4.4621,4.4711,4.482,4.4168,4.3535,4.2937,4.2919,4.2692,4.2338,4.1952,4.1459,4.0926,4.0984,4.072,4.0138,4.1327,4.2096,4.2516,0.0,0.0,0.0,4.4874,4.4323,4.3442,4.1295,3.99,3.9361,3.6536,0.0,3.3904,3.2456,3.1098,2.9899,2.7929,0.0,0.0,0.0,0.0,0.0,0.0,0.0,0.0,0.0,0.0,0.0,2.2139,2.1908,2.2122,2.2594,2.3797,2.5942,2.5517,2.5786,2.7496,2.8099,2.8636,2.9188,2.9234,2.925,2.9224,2.8366,2.7816,2.8096,2.6928,2.5983,2.5754,2.5206,2.4831,2.4595,2.4513,2.4415,2.4169,2.4748,2.4625,2.3246,2.3512,2.3878,2.3545,2.1839,2.0569,2.0101,1.8301,1.6958,1.6791,1.6682,1.6615,1.6689,1.6525,1.6394,1.6435,1.6064,1.5782,1.5775,1.5624,1.5506,1.5699,1.5733,1.5906,5.2742,0.0,5.2942,5.286,0.0,5.1647,5.0379,4.8891,4.8891,4.7102,4.4059,4.3226,4.2665,4.2339,4.3118,4.4132,4.5291,4.5291,4.5291,4.5273,4.4874,4.4142,4.3131,4.3151,4.2675,4.1846,4.1613,4.1253,4.0825,4.0814,4.0594,4.013,4.1511,4.2236,4.2356,4.3683,4.4583,4.4898,4.4362,4.3868,4.341,4.1679,4.0432,3.975,3.7252,0.0,0.0,0.0,0.0,0.0,0.0,0.0,0.0,2.305,0.0,2.1697,2.1576,2.1721,2.2228,2.2223,2.2305,2.2528,2.2741,2.2727,2.2556,2.3158,2.4034,2.5183,2.4931,2.5283,2.6554,2.6798,2.722,2.8035,2.7995,2.7976,2.8142,2.7704,2.7251,2.7041,2.6287,2.5457,2.479,2.4373,2.4052,2.3947,2.4119,2.4034,2.362,2.4187,2.4376,2.373,2.393,2.3937,2.3207,2.2035,2.0596,1.9701,1.8244,1.713,1.6682,1.6593,1.6525,1.6451,1.6327,1.6237,1.6245,1.594,1.5692,1.565,1.5541,1.5465,1.565,1.5692,1.5775,5.4069,5.3929,5.3911,5.344,5.2643,5.1701,5.0289,4.8674,0.0,0.0,0.0,4.444,4.4023,4.357,4.4222,4.4874,4.549,4.5508,4.5363,4.5091,4.5012,4.432,4.3197,4.3095,4.2465,4.1388,4.1388,4.1139,4.0683,4.0659,4.0551,4.0443,4.1627,4.2465,4.2746,4.3675,4.427,4.4424,4.3729,4.3269,4.3069,4.1885,4.0832,4.0091,3.7948,3.5886,3.393,3.1925,3.0247,2.8923,2.7221,2.5526,2.3867,2.266,2.1688,2.1023,2.0527,2.0704,2.1599,2.2154,2.2463,2.2489,2.3153,2.3563,2.3522,2.3861,2.4047,2.405,2.4094,2.4425,2.5141,2.5307,2.5615,2.6489,2.6552,2.67,2.7067,2.7178,2.6907,2.6215,2.5876,2.5274,2.408,2.3833,2.3731,2.3629,2.3957,2.4183,2.34,2.3607,2.4096,2.4333,2.4311,2.39,2.2729,2.1622,2.044,1.891,1.7911,1.7101,1.6586,1.6386,1.6319,1.617,1.6087,1.6038,1.6004,1.5831,1.565,1.5616,1.5506,1.5465,1.5616,1.5658,1.5658,5.4761,5.4744,5.4744,5.4273,5.3422,5.1919,4.9999,4.7862,4.7156,4.6954,4.7102,4.5743,4.5454,4.5997,4.6106,4.6214,4.6341,4.6341,4.558,4.4257,4.386,4.3206,4.2374,4.1962,4.1453,4.0926,4.0896,4.0676,4.0246,4.0221,4.0468,4.1068,4.188,4.2956,4.4101,4.3554,4.3222,4.3256,4.3111,4.2721,4.2003,4.0557,3.9575,3.9014,3.623,3.3999,3.2604,3.058,2.8833,2.7459,2.6166,2.5149,2.4458,2.2683,2.1655,2.1549,2.0991,2.0909,2.1483,2.2024,2.2581,2.3166,2.3352,2.3808,2.4644,2.4229,2.4101,2.4525,2.4686,2.4874,2.5083,2.5706,2.6005,2.5866,2.6197,2.6537,2.6625,2.6603,2.6452,2.6021,2.5047,2.41,2.3305,2.2929,2.2791,2.2786,2.3192,2.3255,2.2889,2.3329,2.4002,2.4332,2.4209,2.3614,2.2658,2.1447,2.0132,1.8889,1.7862,1.7043,1.6456,1.6345,1.6278,1.6128,1.5914,1.5782,1.5782,1.5582,1.5506,1.5465,1.5431,1.5431,1.5472,1.5465,1.5597,5.5884,5.5504,5.5504,5.4798,5.3512,5.1067,4.9383,4.8315,4.75,4.7102,4.6975,4.625,4.6413,4.7138,4.7135,4.7156,4.7117,4.6437,4.5504,4.4363,4.3906,4.3111,4.2103,4.1462,4.0919,4.0417,4.0,4.0133,4.0654,4.0679,4.1068,4.1796,4.254,4.347,4.4429,4.3272,4.2637,4.2629,4.2416,4.2096,4.1739,4.0461,3.9476,3.8764,3.5949,3.3607,3.1922,2.9817,2.8084,2.6844,2.558,2.4507,2.3608,2.2339,2.1629,2.1595,2.1297,2.1481,2.2322,2.2611,2.2934,2.3348,2.3403,2.3611,2.4197,2.3944,2.3932,2.4367,2.4531,2.4558,2.4476,2.4865,2.5134,2.5172,2.5423,2.5812,2.6339,2.6072,2.5656,2.5037,2.4134,2.3191,2.244,2.2224,2.2242,2.2439,2.2708,2.2625,2.218,2.2459,2.2915,2.3308,2.3267,2.3021,2.2514,2.111,1.9816,1.8917,1.7582,1.6622,1.6087,1.6023,1.5948,1.5756,1.5624,1.5541,1.5541,1.5465,1.5431,1.5389,1.5389,1.5389,1.5389,1.5389,1.5472,5.6844,5.6265,5.6265,5.5287,5.3476,5.0651,4.9235,4.8837,4.8043,4.7355,4.6848,4.6957,4.737,4.7932,4.795,4.7708,4.7165,4.6233,4.5191,4.4161,4.3668,4.2823,4.1729,4.1037,4.0507,4.0087,3.9648,4.0087,4.1102,4.1373,4.183,4.2557,4.3318,4.3978,4.4536,4.3075,4.2303,4.2255,4.1674,4.1338,4.1298,4.0145,3.9207,3.8405,3.5769,3.334,3.129,2.9291,2.7652,2.6468,2.5123,2.408,2.334,2.2167,2.1572,2.1634,2.1443,2.1794,2.2794,2.3045,2.3168,2.33,2.333,2.3424,2.3658,2.3671,2.3836,2.4133,2.4317,2.4312,2.4274,2.4243,2.4356,2.4738,2.4933,2.5273,2.5875,2.5578,2.4898,2.4022,2.335,2.2703,2.2035,2.1807,2.1952,2.2232,2.2263,2.2004,2.1563,2.1288,2.1308,2.1662,2.1968,2.1892,2.1726,2.0322,1.9062,1.8412,1.709,1.6211,1.5816,1.5692,1.5557,1.5377,1.5306,1.5292,1.5272,1.5265,1.5294,1.5345,1.5389,1.5389,1.5389,1.5389,1.5389,5.7134,5.708,5.7043,5.5758,5.3566,5.1792,5.0216,4.8873,4.8061,4.766,4.7642,4.833,4.8674,4.8782,4.8782,4.7789,4.6141,4.5766,4.4698,4.2956,4.2298,4.166,4.0954,4.0395,4.0146,4.018,4.0578,4.0865,4.1221,4.188,4.2574,4.3318,4.4079,4.4513,4.4429,4.3091,4.2303,4.2269,4.096,4.0246,4.0144,3.8822,3.8051,3.7967,3.4997,3.2457,3.0491,2.9011,2.7586,2.6266,2.4775,2.4272,2.4682,2.2508,2.1355,2.2083,2.1345,2.1217,2.2297,2.2832,2.3133,2.3108,2.3175,2.3376,2.3878,2.3978,2.4035,2.4248,2.4551,2.4732,2.4713,2.4713,2.4782,2.485,2.5169,2.534,2.4915,2.5058,2.4731,2.325,2.3001,2.2692,2.1959,2.1807,2.1818,2.1838,2.1511,2.1092,2.0519,1.9813,1.9437,1.9728,2.0311,2.0432,1.9643,1.8704,1.7845,1.6773,1.6286,1.594,1.5703,1.5591,1.5576,1.5069,1.4951,1.4951,1.498,1.4951,1.5075,1.5323,1.5389,1.5389,1.5389,1.5389,1.5389,5.7188,5.7188,5.7188,5.5848,5.3621,5.1973,5.0379,4.8855,4.8022,4.7868,4.8203,4.8739,4.9171,4.9579,4.9235,4.857,4.7713,4.6671,4.5224,4.3492,4.2569,4.1759,4.1,3.9925,3.9673,4.0028,3.9969,4.0358,4.1288,4.2388,4.3352,4.4045,4.4434,4.4598,4.4479,4.3047,4.2303,4.2236,4.0857,4.0113,3.9943,3.865,3.7858,3.7441,3.4514,3.1852,2.9967,2.881,2.7334,2.5455,2.497,2.4535,2.3822,2.2533,2.1835,2.1845,2.2046,2.2293,2.2732,2.3326,2.3459,2.3133,2.3735,2.396,2.3547,2.4368,2.4865,2.4658,2.4991,2.5272,2.5272,2.5285,2.5285,2.5231,2.5107,2.4922,2.501,2.434,2.3607,2.3027,2.258,2.2214,2.1883,2.1807,2.1694,2.1397,2.0911,2.0416,1.9839,1.9113,1.8748,1.8728,1.8931,1.9064,1.8887,1.7943,1.7106,1.6628,1.6072,1.5602,1.5346,1.5212,1.5109,1.4714,1.4677,1.471,1.49,1.4786,1.4832,1.516,1.5382,1.5389,1.5389,1.5389,1.533,5.7188,5.7188,5.7188,5.5993,5.3947,5.2552,5.0859,4.9165,4.8479,4.8163,4.8033,4.8663,4.9073,4.9226,4.9214,4.9033,4.8473,4.7341,4.5969,4.4451,4.3396,4.2523,4.1728,4.0527,4.0197,4.0587,4.0443,4.0933,4.2117,4.3132,4.3927,4.4231,4.4248,4.4175,4.3853,4.2608,4.1999,4.188,4.0739,4.0113,3.9868,3.8325,3.7328,3.6932,3.4041,3.1297,2.908,2.8513,2.7261,2.5008,2.504,2.4549,2.3285,2.2638,2.21,2.1848,2.2569,2.317,2.3333,2.3766,2.3879,2.3647,2.4249,2.4393,2.4098,2.4782,2.5234,2.5134,2.5385,2.5573,2.5586,2.5586,2.5469,2.5145,2.4594,2.4403,2.4343,2.3315,2.2648,2.2601,2.2039,2.1611,2.1631,2.1694,2.1614,2.1096,2.058,2.0129,1.9687,1.9108,1.8604,1.8482,1.7852,1.7706,1.8366,1.7458,1.6668,1.6327,1.5824,1.5355,1.4973,1.4915,1.475,1.4487,1.4399,1.4331,1.4369,1.4388,1.4441,1.4835,1.507,1.5099,1.4864,1.4875,1.4719,5.7188,5.7188,5.7188,5.624,5.4738,5.3851,5.2051,4.9657,4.9531,4.8488,4.7104,4.8176,4.8257,4.7419,4.8548,4.8494,4.7414,4.7481,4.6789,4.5431,4.4778,4.4079,4.3291,4.2523,4.2134,4.2168,4.2648,4.3409,4.4299,4.4434,4.4147,4.3589,4.3572,4.3132,4.2506,4.1711,4.1255,4.1153,4.0434,4.0079,3.9792,3.7568,3.6181,3.5753,3.3494,3.0725,2.8231,2.8107,2.742,2.56,2.4551,2.4062,2.4157,2.2718,2.1923,2.2288,2.2807,2.3371,2.3841,2.4029,2.4217,2.4556,2.4418,2.4456,2.5021,2.5046,2.5084,2.546,2.546,2.5536,2.5407,2.5328,2.5037,2.4135,2.3851,2.3383,2.2584,2.2094,2.1772,2.1765,2.1489,2.1242,2.118,2.1538,2.1456,2.0958,2.0471,2.0149,1.9952,1.9376,1.8863,1.828,1.7494,1.664,1.6946,1.6439,1.591,1.5763,1.5606,1.5236,1.5053,1.4834,1.4509,1.4216,1.3988,1.387,1.3769,1.3823,1.3938,1.4212,1.4577,1.4612,1.4231,1.3581,1.3373,5.7087,5.6951,5.6933,5.5929,5.4284,5.3469,5.2021,5.0205,4.935,4.8498,4.7707,4.7575,4.7268,4.6743,4.707,4.7474,4.787,4.8099,4.7676,4.677,4.6136,4.5498,4.4829,4.3996,4.3371,4.3139,4.3664,4.4435,4.5145,4.484,4.4733,4.4688,4.3866,4.3047,4.2219,4.1119,4.051,4.0434,3.9774,3.9639,3.9767,3.7319,3.5457,3.4479,3.2031,2.9872,2.8194,2.7954,2.698,2.5106,2.4578,2.4072,2.3366,2.2556,2.2317,2.2782,2.3333,2.3778,2.4042,2.4657,2.4933,2.4858,2.5322,2.5184,2.482,2.4983,2.5146,2.4782,2.4933,2.4816,2.4165,2.4214,2.4262,2.3806,2.2966,2.2263,2.1829,2.126,2.0852,2.0902,2.0963,2.1154,2.1316,2.1514,2.1469,2.1106,2.0561,2.0092,1.9803,1.9416,1.8783,1.7746,1.7081,1.6516,1.5753,1.5396,1.5061,1.5286,1.5228,1.497,1.475,1.4207,1.3836,1.3688,1.3521,1.3417,1.3376,1.3631,1.3712,1.385,1.4192,1.3885,1.3554,1.2851,1.2462,5.658,5.6409,5.6412,5.5401,5.3789,5.3016,5.1635,4.9976,4.9241,4.8371,4.7444,4.6925,4.6389,4.576,4.5687,4.6156,4.7158,4.7533,4.7544,4.7119,4.666,4.6232,4.585,4.524,4.4735,4.4456,4.4776,4.5277,4.5515,4.5167,4.4959,4.484,4.3673,4.253,4.1559,4.0358,3.9665,3.9343,3.8886,3.8897,3.8975,3.6802,3.4801,3.332,3.107,2.9144,2.7896,2.7876,2.7024,2.5336,2.4958,2.4286,2.2988,2.2649,2.2706,2.3108,2.3446,2.3904,2.428,2.4958,2.5347,2.5372,2.5799,2.5686,2.4895,2.5146,2.4921,2.4506,2.4356,2.4052,2.3074,2.2862,2.2838,2.2575,2.1711,2.1087,2.0999,2.0383,2.0118,2.0276,2.0772,2.1106,2.1254,2.1257,2.1072,2.0775,2.0148,1.9674,1.9199,1.8919,1.8463,1.7158,1.6581,1.5939,1.5166,1.4565,1.4632,1.4816,1.471,1.4509,1.4245,1.3667,1.3288,1.3186,1.3107,1.3034,1.3128,1.3408,1.3531,1.3606,1.3412,1.313,1.2647,1.2091,1.1552,5.5618,5.5623,5.5613,5.4719,5.3321,5.2688,5.1043,4.9296,4.9441,4.83,4.6571,4.6515,4.5816,4.4553,4.485,4.4953,4.5086,4.5935,4.6333,4.6238,4.6263,4.6321,4.622,4.6207,4.6243,4.6207,4.6391,4.6114,4.5711,4.5655,4.5066,4.3713,4.2912,4.1745,4.018,3.9462,3.865,3.8125,3.7898,3.7869,3.759,3.5981,3.4361,3.2815,3.0892,2.8981,2.7035,2.7929,2.7547,2.5879,2.5444,2.4669,2.3314,2.305,2.3083,2.3108,2.317,2.3722,2.46,2.4908,2.5536,2.6059,2.595,2.5887,2.5946,2.5398,2.4883,2.4619,2.4185,2.3449,2.2274,2.1619,2.106,2.0291,2.0271,2.0091,1.9844,1.9443,1.9305,1.9834,2.0483,2.0921,2.0845,2.072,2.043,1.9786,1.933,1.8878,1.8358,1.8215,1.7757,1.6789,1.6,1.5234,1.4482,1.3838,1.4156,1.4367,1.4143,1.3901,1.3659,1.3223,1.2847,1.2649,1.2678,1.262,1.2703,1.2897,1.2835,1.2824,1.2563,1.2207,1.1479,1.0871,1.0397,5.5292,5.5259,5.5262,5.4356,5.2934,5.2234,5.115,4.9919,4.9345,4.8528,4.7656,4.6578,4.5732,4.5241,4.4931,4.447,4.4042,4.4826,4.5516,4.601,4.6124,4.6216,4.6344,4.6703,4.7158,4.7458,4.7247,4.7273,4.7253,4.6649,4.5934,4.5255,4.3297,4.1576,4.0096,3.8903,3.7872,3.7229,3.7057,3.7025,3.7014,3.5921,3.4671,3.3345,3.1384,2.9891,2.9295,2.8438,2.7192,2.5744,2.548,2.4696,2.3442,2.3095,2.3095,2.3183,2.386,2.4349,2.4788,2.5511,2.6059,2.6399,2.6311,2.6097,2.5921,2.5561,2.4996,2.4367,2.3677,2.2778,2.1631,2.0805,2.0355,2.0096,1.9682,1.9449,1.9414,1.9243,1.9336,1.971,1.9947,1.9925,1.9743,1.9702,1.9493,1.9075,1.8762,1.8411,1.7852,1.7748,1.7115,1.5436,1.4924,1.4441,1.3569,1.3035,1.3201,1.3411,1.3353,1.3346,1.3121,1.2676,1.2301,1.2227,1.2249,1.2257,1.2328,1.2317,1.2231,1.1986,1.1763,1.1084,1.0153,0.9612,0.9228,5.4868,5.468,5.4674,5.3817,5.2495,5.1791,5.1119,5.0362,4.9602,4.897,4.8254,4.72,4.6278,4.5798,4.5301,4.487,4.4506,4.4903,4.5263,4.5604,4.5918,4.6015,4.6207,4.6781,4.7266,4.768,4.7691,4.7636,4.7534,4.6803,4.6169,4.5349,4.3333,4.148,4.0028,3.8576,3.7337,3.6397,3.5937,3.5811,3.573,3.5159,3.4279,3.322,3.1947,3.1059,3.0477,2.9265,2.7871,2.6231,2.5256,2.4205,2.3215,2.3095,2.3095,2.3283,2.391,2.4537,2.4838,2.5586,2.6285,2.6436,2.6487,2.6361,2.5959,2.5649,2.4933,2.4348,2.3303,2.2246,2.1256,2.0484,2.0042,1.9748,1.9363,1.9214,1.9316,1.9479,1.9538,1.9751,1.9745,1.953,1.9184,1.9039,1.8809,1.8502,1.8145,1.7672,1.7097,1.6899,1.5583,1.4522,1.4066,1.3413,1.2587,1.2306,1.2255,1.2378,1.2441,1.26,1.2616,1.1949,1.1453,1.1799,1.1886,1.1827,1.1888,1.1768,1.169,1.1335,1.0883,1.0218,0.9419,0.8783,0.8359,5.4319,5.3861,5.3876,5.3192,5.2085,5.1542,5.0971,5.0354,5.0155,4.9359,4.8315,4.7917,4.7139,4.6096,4.5881,4.5765,4.5781,4.5798,4.5582,4.5415,4.5663,4.5963,4.5968,4.645,4.6813,4.7092,4.7636,4.7334,4.6512,4.6316,4.563,4.4476,4.3043,4.1398,3.9951,3.847,3.7026,3.5592,3.482,3.4542,3.4431,3.3916,3.3284,3.2601,3.2332,3.175,3.0941,3.0253,2.9068,2.6919,2.496,2.3812,2.3319,2.3208,2.3308,2.3384,2.3816,2.4418,2.485,2.5498,2.6021,2.6436,2.6487,2.6487,2.6323,2.5573,2.4983,2.4643,2.3164,2.1883,2.1238,2.041,1.9781,1.9264,1.9131,1.9274,1.9655,1.9961,1.9774,1.9547,1.9788,1.9748,1.8844,1.877,1.8508,1.8052,1.7394,1.6686,1.5974,1.558,1.4655,1.3889,1.321,1.2802,1.2065,1.1866,1.1758,1.1411,1.1502,1.1628,1.1794,1.1189,1.0973,1.1296,1.1299,1.1283,1.1309,1.1157,1.0754,1.023,0.9741,0.93,0.8779,0.8134,0.7834,5.3611,5.3326,5.3314,5.2925,5.2222,5.1582,5.1232,5.0967,5.0452,4.9773,4.8862,4.8233,4.7554,4.6643,4.6593,4.6328,4.6096,4.6378,4.6543,4.6378,4.6477,4.624,4.5832,4.5929,4.632,4.6777,4.7141,4.6979,4.6641,4.6262,4.5604,4.4703,4.3327,4.1718,3.9906,3.8807,3.7299,3.5506,3.4593,3.4034,3.3673,3.3485,3.3125,3.2511,3.2034,3.1899,3.1707,3.036,2.884,2.7201,2.5603,2.4633,2.4318,2.4274,2.4249,2.4356,2.4808,2.5197,2.5435,2.5933,2.6323,2.6449,2.6487,2.6487,2.6461,2.5845,2.5259,2.4626,2.3107,2.1867,2.1422,2.0292,1.9416,1.9164,1.9119,1.9104,1.9157,1.9141,1.907,1.8829,1.8857,1.8624,1.8224,1.7931,1.7805,1.7459,1.684,1.6087,1.5349,1.4597,1.3888,1.2948,1.229,1.2079,1.1804,1.1561,1.1196,1.0672,1.0527,1.0534,1.0574,1.0335,1.0509,1.0863,1.0315,1.0172,1.0372,1.0394,0.978,0.914,0.8971,0.8631,0.8086,0.7537,0.7455,5.3663,5.3111,5.3111,5.2835,5.2359,5.1962,5.1779,5.1678,5.1313,5.0518,4.9641,4.9144,4.8349,4.7421,4.7355,4.7156,4.6825,4.7173,4.7156,4.681,4.6503,4.611,4.576,4.5709,4.5936,4.6392,4.6971,4.6931,4.6462,4.6057,4.5405,4.443,4.3418,4.1905,4.0177,3.8981,3.7419,3.5465,3.4289,3.3521,3.3007,3.2724,3.2666,3.2392,3.2093,3.2153,3.2169,3.0416,2.883,2.7821,2.6414,2.5254,2.4845,2.48,2.48,2.4858,2.5297,2.5573,2.5699,2.6172,2.6461,2.6487,2.6487,2.6487,2.6336,2.5774,2.5051,2.4296,2.2784,2.1883,2.1241,2.0165,1.9453,1.9297,1.9088,1.9034,1.9053,1.9249,1.9061,1.8833,1.863,1.8289,1.7626,1.7448,1.72,1.6812,1.6025,1.5388,1.4725,1.3953,1.3164,1.2262,1.1697,1.1543,1.1125,1.078,1.0286,0.9781,0.9388,0.9394,0.9334,0.9326,0.9639,0.976,0.9344,0.9122,0.9316,0.9326,0.8823,0.8379,0.8233,0.8053,0.7613,0.7159,0.708,5.3945,5.3009,5.3009,5.2782,5.2445,5.2409,5.226,5.226,5.2092,5.128,5.0171,5.0004,4.9061,4.8017,4.7868,4.7951,4.7918,4.7671,4.7227,4.6634,4.5987,4.5493,4.5456,4.5421,4.5592,4.5927,4.7175,4.6963,4.6347,4.6028,4.5244,4.4308,4.3386,4.2137,4.0767,3.9385,3.7477,3.5509,3.4168,3.3208,3.2551,3.2044,3.1927,3.2212,3.2228,3.2273,3.1945,3.0575,2.9257,2.917,2.7131,2.5821,2.5141,2.5034,2.5059,2.5159,2.5569,2.5816,2.5862,2.6337,2.6555,2.6624,2.6589,2.6487,2.6289,2.5523,2.4571,2.3968,2.2579,2.1565,2.0857,2.0165,1.9768,1.9448,1.9063,1.9009,1.93,1.9581,1.952,1.9004,1.8879,1.8379,1.7786,1.7305,1.709,1.6198,1.5419,1.4731,1.403,1.3206,1.2457,1.1686,1.1332,1.1129,1.0544,0.9939,0.9346,0.8758,0.8265,0.8112,0.8059,0.8143,0.8533,0.8579,0.8299,0.8198,0.822,0.8061,0.7776,0.7565,0.7409,0.7442,0.7383,0.6891,0.6662,5.3094,5.257,5.2535,5.2516,5.2409,5.2409,5.2094,5.158,5.158,5.0767,4.9607,4.9375,4.8845,4.8001,4.8001,4.8001,4.782,4.7337,4.6629,4.5916,4.5133,4.4802,4.4771,4.4814,4.5138,4.5671,4.5996,4.6358,4.6486,4.6444,4.5928,4.4633,4.4149,4.3256,4.1365,4.0249,3.8595,3.6226,3.4675,3.3439,3.2416,3.1796,3.1585,3.1765,3.1765,3.2019,3.2049,3.07,2.9771,2.9263,2.7775,2.6283,2.6047,2.6047,2.6021,2.6034,2.6147,2.6511,2.6907,2.6748,2.6748,2.7129,2.6816,2.6487,2.6414,2.5296,2.4405,2.3645,2.2468,2.1396,2.0688,2.0382,1.9974,1.9492,1.8968,1.859,1.8588,1.863,1.8557,1.835,1.8267,1.8027,1.7451,1.7262,1.669,1.5679,1.4827,1.4094,1.3308,1.2453,1.1717,1.1026,1.0585,1.0238,0.9453,0.8885,0.8344,0.7899,0.7442,0.7053,0.7013,0.7154,0.7614,0.7613,0.7386,0.7348,0.7472,0.7264,0.7104,0.6824,0.6643,0.684,0.6851,0.6485,0.6536,5.2835,5.2409,5.2409,5.2409,5.2409,5.2393,5.1978,5.1415,5.1315,5.0469,4.9342,4.911,4.868,4.8034,4.7968,4.7803,4.7303,4.662,4.5845,4.519,4.4646,4.432,4.4066,4.4412,4.4924,4.5624,4.6111,4.6491,4.6798,4.6792,4.6096,4.4835,4.4735,4.3674,4.2001,4.0893,3.893,3.6593,3.4979,3.3581,3.2161,3.1697,3.1496,3.1496,3.1511,3.1705,3.1841,3.0313,2.9586,2.9048,2.7708,2.6589,2.6521,2.6487,2.6487,2.6487,2.6487,2.6816,2.7162,2.7229,2.7129,2.7471,2.7129,2.6564,2.6005,2.5004,2.4069,2.3213,2.2299,2.1485,2.0839,2.0457,2.0093,1.9428,1.8855,1.8444,1.8245,1.8168,1.811,1.8008,1.8027,1.7656,1.7301,1.6851,1.5892,1.4676,1.355,1.2836,1.2522,1.1686,1.1031,1.0367,0.9812,0.9217,0.8353,0.775,0.7313,0.7012,0.6769,0.6432,0.6213,0.6474,0.678,0.6725,0.6674,0.6841,0.6903,0.6646,0.6378,0.6169,0.6092,0.6287,0.6322,0.6074,0.6375,5.2782,5.2409,5.2409,5.2409,5.2409,5.2409,5.1995,5.1348,5.1183,5.0303,4.9243,4.9028,4.8498,4.8067,4.7787,4.7303,4.6429,4.5861,4.5058,4.4358,4.4259,4.3888,4.363,4.4004,4.4737,4.5697,4.6359,4.681,4.7061,4.6957,4.6427,4.5152,4.4901,4.4125,4.2703,4.1229,3.9366,3.6921,3.533,3.3536,3.1938,3.1524,3.1496,3.1496,3.1496,3.1511,3.1279,3.0097,2.903,2.8907,2.743,2.6658,2.6487,2.6487,2.6487,2.6487,2.6611,2.7108,2.7584,2.7571,2.7471,2.7571,2.717,2.6561,2.5495,2.4601,2.3616,2.2715,2.1901,2.1445,2.1042,2.0452,1.9894,1.9303,1.8787,1.8353,1.8066,1.7978,1.7871,1.7852,1.7603,1.7181,1.6462,1.5813,1.4745,1.368,1.2564,1.1707,1.1406,1.082,1.0038,0.9432,0.8822,0.8254,0.7438,0.6755,0.6313,0.631,0.6141,0.5871,0.5624,0.5954,0.6212,0.614,0.6129,0.6261,0.6185,0.5841,0.562,0.5474,0.5307,0.5233,0.5411,0.5611,0.6099,5.248,5.2409,5.2409,5.2409,5.2409,5.2409,5.1945,5.1282,5.0618,4.9922,4.9094,4.8465,4.8183,4.7869,4.7253,4.6237,4.5316,4.4774,4.4297,4.3708,4.3591,4.3409,4.3448,4.3669,4.4412,4.5572,4.6464,4.7089,4.7622,4.7736,4.6825,4.5847,4.5502,4.4726,4.3207,4.1934,3.9882,3.7528,3.5855,3.3983,3.224,3.1555,3.1496,3.1496,3.1496,3.1496,3.1161,2.9981,2.8989,2.883,2.7384,2.6679,2.6555,2.6555,2.6487,2.6589,2.6973,2.7517,2.8051,2.7795,2.7874,2.7776,2.6824,2.5789,2.5004,2.4076,2.3056,2.2233,2.1309,2.0683,2.0524,2.0006,1.96,1.9137,1.8704,1.8255,1.8017,1.7715,1.7428,1.7274,1.698,1.6574,1.5763,1.4912,1.3936,1.2877,1.1742,1.0967,1.0577,0.9722,0.8729,0.8185,0.7726,0.7147,0.6553,0.5935,0.5456,0.5666,0.5588,0.5399,0.5304,0.5553,0.5691,0.5519,0.5494,0.5605,0.5383,0.5132,0.5015,0.502,0.4621,0.4164,0.4776,0.5376,0.5597,5.2409,5.2409,5.2409,5.2409,5.2343,5.1995,5.1396,5.0684,4.9955,4.9226,4.8614,4.8166,4.8001,4.777,4.7152,4.5953,4.4721,4.3989,4.3669,4.3329,4.3305,4.3305,4.3409,4.3669,4.4586,4.5608,4.6464,4.722,4.7935,4.7984,4.699,4.5588,4.5251,4.4358,4.2722,4.1406,3.9945,3.8013,3.6291,3.453,3.2572,3.1929,3.1525,3.1496,3.1496,3.1496,3.1248,3.0299,2.9566,2.9209,2.792,2.7196,2.6939,2.6714,2.6521,2.6658,2.7162,2.7789,2.8268,2.7967,2.7723,2.767,2.627,2.5011,2.4243,2.3342,2.2381,2.1387,2.1178,2.035,1.9459,1.9409,1.9261,1.8813,1.8456,1.8231,1.7905,1.7412,1.6938,1.6555,1.6188,1.5688,1.5034,1.4135,1.3182,1.2073,1.0923,1.0304,0.9817,0.8605,0.7448,0.6919,0.6437,0.5978,0.5531,0.5106,0.4784,0.498,0.4893,0.4699,0.4655,0.4789,0.4874,0.4802,0.4829,0.5337,0.5162,0.5075,0.4833,0.4553,0.4278,0.4179,0.4706,0.5117,0.5281,5.2409,5.2409,5.2409,5.2409,5.231,5.1796,5.1149,5.0369,4.969,4.8995,4.8249,4.8067,4.7902,4.7521,4.6638,4.552,4.4259,4.3551,4.3369,4.3329,4.3305,4.3305,4.3512,4.4105,4.4887,4.566,4.648,4.722,4.7853,4.8001,4.6725,4.5326,4.4689,4.3605,4.1848,4.0795,3.9572,3.7991,3.6466,3.4833,3.3215,3.2108,3.1496,3.1496,3.1496,3.1496,3.1409,3.0494,2.9981,2.9535,2.8639,2.769,2.7604,2.7183,2.6905,2.7007,2.7417,2.7913,2.8002,2.7732,2.7146,2.6552,2.5292,2.3909,2.2871,2.2023,2.1367,2.0165,2.0162,1.9928,1.8768,1.8914,1.8901,1.8564,1.8309,1.8128,1.7773,1.7209,1.6322,1.5892,1.5414,1.4622,1.3777,1.3304,1.2311,1.1479,1.0361,0.9717,0.9047,0.736,0.6267,0.5654,0.5137,0.4717,0.4404,0.4315,0.418,0.4369,0.4081,0.3725,0.3756,0.3852,0.3981,0.4305,0.5287,0.5713,0.5376,0.4956,0.4601,0.429,0.4086,0.4199,0.4705,0.4746,0.4752,5.2409,5.2409,5.2409,5.2409,5.2393,5.226,5.1829,5.11,5.0303,4.9674,4.8829,4.8183,4.7555,4.6708,4.5499,4.4358,4.3669,4.3409,4.3305,4.3305,4.3305,4.3329,4.3488,4.4105,4.4983,4.5789,4.6515,4.7236,4.7754,4.7935,4.6696,4.4871,4.3907,4.2989,4.1163,4.0086,3.8637,3.6998,3.5905,3.4262,3.2243,3.163,3.1525,3.1496,3.1496,3.1496,3.138,3.0658,3.0147,2.995,2.9034,2.8427,2.8363,2.8344,2.8266,2.8279,2.8322,2.8211,2.7841,2.709,2.6084,2.4795,2.2922,2.1539,2.0891,2.0274,1.9602,1.8546,1.9006,1.8922,1.8062,1.8296,1.8387,1.8309,1.8066,1.7978,1.7687,1.6347,1.5541,1.4687,1.4066,1.3124,1.2207,1.1903,1.1495,1.066,0.9886,0.9203,0.8171,0.6524,0.5009,0.4353,0.4093,0.3728,0.3475,0.3347,0.3353,0.3585,0.324,0.2813,0.2908,0.3078,0.3635,0.4136,0.518,0.5715,0.5318,0.4815,0.4383,0.4251,0.4298,0.4455,0.4691,0.4579,0.44,5.2409,5.2409,5.2409,5.2409,5.2359,5.1978,5.1614,5.1133,5.0071,4.9425,4.8894,4.7816,4.6689,4.5556,4.4699,4.4066,4.3448,4.3305,4.3305,4.3305,4.3344,4.3551,4.3989,4.4396,4.5058,4.6076,4.662,4.6862,4.7371,4.7375,4.6452,4.3379,4.2977,4.1882,4.0151,3.921,3.8257,3.6889,3.5306,3.344,3.2004,3.1496,3.1496,3.1496,3.1496,3.1496,3.1351,3.1014,3.0643,3.0448,2.967,2.9156,2.8985,2.8794,2.862,2.9097,2.8747,2.8302,2.7672,2.6354,2.4928,2.3373,2.1414,1.9915,1.9421,1.8964,1.8176,1.7248,1.777,1.769,1.7237,1.7407,1.7784,1.7886,1.7677,1.7311,1.6853,1.5564,1.447,1.3574,1.2703,1.1821,1.1026,1.0545,1.0427,1.0224,0.9259,0.8343,0.7226,0.5669,0.4256,0.3006,0.2914,0.2854,0.2636,0.2485,0.2283,0.2391,0.2332,0.2001,0.2091,0.2367,0.3149,0.3801,0.4608,0.4931,0.498,0.509,0.4993,0.4813,0.4595,0.4821,0.4954,0.4522,0.4507,5.2409,5.2409,5.2409,5.2409,5.2359,5.1777,5.1365,5.085,4.9906,4.9092,4.8192,4.6915,4.552,4.4662,4.4297,4.3825,4.3344,4.3305,4.3305,4.3305,4.3409,4.3747,4.4297,4.4737,4.5426,4.6534,4.6689,4.6534,4.6429,4.6468,4.5269,4.1683,4.195,4.0657,3.8877,3.8107,3.7657,3.6558,3.4219,3.2557,3.1675,3.1496,3.1496,3.1496,3.1496,3.1496,3.1453,3.122,3.1073,3.0881,3.0312,2.9839,2.9777,2.9501,2.9268,2.9388,2.8991,2.7983,2.6724,2.5215,2.3643,2.1827,2.0048,1.8159,1.7939,1.7676,1.7197,1.611,1.6645,1.6634,1.6483,1.6793,1.7251,1.7385,1.7173,1.6668,1.5951,1.4611,1.3526,1.2765,1.1859,1.0826,1.0055,0.9358,0.9239,0.9463,0.8736,0.7578,0.6202,0.4725,0.3729,0.2488,0.2421,0.2403,0.2213,0.195,0.1648,0.1485,0.1444,0.1601,0.1923,0.24,0.3137,0.3756,0.4343,0.4838,0.5316,0.551,0.5691,0.5346,0.5094,0.5209,0.516,0.4655,0.4557,5.2409,5.2409,5.2409,5.2393,5.2359,5.2359,5.1512,5.0386,5.012,4.8751,4.6846,4.5478,4.4774,4.4335,4.3825,4.3448,4.3305,4.3305,4.3305,4.3305,4.3369,4.3771,4.4396,4.5073,4.5551,4.5933,4.6324,4.5897,4.5243,4.5665,4.411,4.1901,4.1414,3.9586,3.8155,3.7515,3.684,3.5594,3.341,3.2064,3.1615,3.1496,3.1496,3.1496,3.1496,3.1496,3.1482,3.1249,3.1117,3.1073,3.0657,3.0403,3.0282,3.0076,2.9891,2.9531,2.8531,2.7228,2.555,2.3804,2.1708,1.9564,1.7687,1.6491,1.6295,1.6016,1.5519,1.5152,1.5563,1.5973,1.6158,1.6559,1.6671,1.6748,1.6325,1.5433,1.4648,1.3564,1.2539,1.192,1.1022,0.992,0.9273,0.8627,0.8468,0.8706,0.7592,0.6393,0.514,0.3847,0.3192,0.2407,0.2272,0.214,0.1981,0.1747,0.1609,0.1579,0.153,0.1823,0.2151,0.2735,0.3509,0.3987,0.4616,0.5123,0.5391,0.5142,0.5086,0.5418,0.546,0.5132,0.4858,0.4386,0.4523,5.2409,5.2409,5.2409,5.2144,5.173,5.173,5.1131,5.0117,4.9177,4.75,4.5374,4.4774,4.422,4.3771,4.3551,4.3305,4.3305,4.3305,4.3305,4.3305,4.3409,4.3771,4.4396,4.4849,4.5184,4.5624,4.5985,4.5645,4.4737,4.4849,4.3156,4.1612,4.1008,3.9558,3.8228,3.6899,3.6064,3.4936,3.3484,3.2422,3.1555,3.1496,3.1496,3.1496,3.1496,3.1496,3.1467,3.1322,3.122,3.1058,3.0822,3.0629,3.0409,3.0191,2.9798,2.916,2.7752,2.5925,2.4307,2.2468,2.0128,1.7252,1.5761,1.5213,1.5099,1.4656,1.4383,1.4265,1.4308,1.4681,1.5912,1.5773,1.5573,1.5781,1.5307,1.4299,1.3164,1.2065,1.1167,1.0373,0.9689,0.8853,0.8378,0.7941,0.7906,0.7854,0.65,0.5243,0.4094,0.3253,0.2699,0.2352,0.2211,0.1973,0.1814,0.171,0.1637,0.164,0.1678,0.2165,0.2664,0.3407,0.4107,0.4539,0.4665,0.4837,0.4789,0.4402,0.4467,0.491,0.4821,0.4473,0.422,0.3984,0.4131,5.2409,5.2376,5.2177,5.1796,5.1348,5.1315,5.0734,4.9736,4.8507,4.6605,4.4526,4.4259,4.3849,4.3409,4.3305,4.3305,4.3305,4.3305,4.3305,4.3305,4.3369,4.3825,4.4259,4.4586,4.4849,4.5295,4.5295,4.4887,4.4105,4.4143,4.2667,4.1336,4.0743,3.9441,3.7553,3.6267,3.5447,3.4578,3.3559,3.2721,3.1615,3.1496,3.1496,3.1496,3.1496,3.1496,3.1467,3.1321,3.11,3.0851,3.0573,3.0353,3.0002,2.9581,2.9088,2.7911,2.6383,2.4405,2.2916,2.1124,1.8744,1.6203,1.5584,1.5145,1.4614,1.3987,1.3851,1.347,1.3302,1.361,1.5095,1.4521,1.4022,1.4049,1.3569,1.2633,1.143,1.0322,0.9502,0.8714,0.8207,0.7887,0.7269,0.6832,0.6445,0.6253,0.531,0.4273,0.3515,0.2809,0.2497,0.225,0.218,0.1935,0.1681,0.186,0.2004,0.1903,0.2075,0.2713,0.3313,0.4031,0.4525,0.4859,0.4835,0.4524,0.4131,0.3746,0.4005,0.4498,0.4187,0.3818,0.3654,0.3418,0.3286,5.2343,5.2326,5.1614,5.1264,5.108,5.1231,5.0419,4.8957,4.7972,4.6412,4.4389,4.3732,4.3409,4.3305,4.3305,4.3305,4.3305,4.3305,4.3305,4.3305,4.3344,4.3825,4.4143,4.4373,4.4335,4.4488,4.4488,4.4143,4.3433,4.3551,4.2254,4.0748,3.9974,3.8938,3.66,3.5282,3.4623,3.4324,3.32,3.2512,3.169,3.1496,3.1496,3.1496,3.1496,3.1496,3.1467,3.123,3.0935,3.0524,3.0145,2.9752,2.9271,2.8767,2.7893,2.6382,2.491,2.3138,2.1296,1.9503,1.7732,1.6062,1.5581,1.5373,1.4863,1.4206,1.3398,1.2887,1.2497,1.2662,1.2972,1.2996,1.2711,1.2297,1.1851,1.0928,0.9745,0.8959,0.8217,0.7628,0.7315,0.6927,0.6249,0.5634,0.5058,0.4528,0.386,0.325,0.2735,0.2516,0.2234,0.2175,0.2129,0.1936,0.1808,0.2223,0.2358,0.2257,0.2564,0.3279,0.3838,0.4375,0.4843,0.5172,0.4661,0.4025,0.3533,0.3072,0.3033,0.2898,0.3311,0.3149,0.3017,0.2825,0.2634,5.0949,5.0916,5.0667,4.9961,4.922,4.9618,4.9007,4.7521,4.6231,4.49,4.3895,4.3369,4.3305,4.3305,4.3305,4.3305,4.3305,4.3305,4.3305,4.3305,4.3305,4.3409,4.3708,4.3771,4.3732,4.3708,4.3669,4.3708,4.3329,4.317,4.2094,4.0681,3.8721,3.7404,3.6626,3.5821,3.5387,3.4143,3.3604,3.3185,3.172,3.1496,3.1481,3.1466,3.1436,3.1421,3.1331,3.0975,3.0546,3.0147,2.9729,2.9215,2.8594,2.8081,2.6656,2.5037,2.3424,2.0483,1.8948,1.7663,1.7412,1.6271,1.5542,1.5155,1.4243,1.3335,1.2696,1.2168,1.1701,1.1951,1.2584,1.222,1.1843,1.1219,1.053,0.9262,0.8192,0.7756,0.7202,0.6757,0.6372,0.5903,0.5327,0.489,0.4318,0.3584,0.2993,0.2717,0.2313,0.2249,0.2119,0.2116,0.207,0.1923,0.1934,0.2331,0.2652,0.2654,0.3204,0.4044,0.4548,0.4812,0.4979,0.5209,0.4312,0.342,0.2563,0.1787,0.1226,0.1095,0.187,0.2246,0.2047,0.1931,0.1817,5.022,5.0153,4.9631,4.884,4.8034,4.8468,4.7665,4.6032,4.4909,4.4043,4.3433,4.3305,4.3305,4.3305,4.3305,4.3305,4.3305,4.3305,4.3305,4.3305,4.3305,4.3329,4.3344,4.3305,4.3409,4.3305,4.3305,4.3305,4.323,4.2851,4.1324,3.917,3.73,3.6462,3.5998,3.5657,3.4951,3.3844,3.344,3.2886,3.1869,3.1466,3.1361,3.1182,3.1106,3.1046,3.0791,3.0434,3.0018,2.9667,2.9124,2.8536,2.7836,2.6712,2.5265,2.3633,2.143,1.8775,1.7453,1.7314,1.6951,1.5885,1.5392,1.4831,1.3975,1.3097,1.2139,1.1496,1.0865,1.0912,1.1224,1.085,1.0307,0.9673,0.8885,0.7601,0.7003,0.657,0.6524,0.6052,0.5796,0.5226,0.4527,0.4109,0.3682,0.2925,0.2166,0.2037,0.195,0.1963,0.2005,0.2009,0.1992,0.1841,0.2021,0.2517,0.278,0.2979,0.3749,0.4596,0.4907,0.5107,0.5176,0.5032,0.4025,0.2859,0.1375,0.046,0.0332,0.0467,0.097,0.1175,0.1075,0.1189,0.1309,5.0087,4.985,4.8453,4.7777,4.7726,4.7519,4.6396,4.4601,4.4472,4.4004,4.329,4.3305,4.3305,4.3305,4.3305,4.3305,4.3305,4.3305,4.3305,4.3305,4.3305,4.3305,4.3305,4.3305,4.3305,4.3305,4.3275,4.32,4.308,4.1698,3.9783,3.8078,3.6567,3.5968,3.5639,3.4996,3.4292,3.3604,3.3021,3.2422,3.166,3.1496,3.1271,3.1031,3.0776,3.0477,3.0148,2.9729,2.9295,2.8719,2.7939,2.7164,2.6253,2.5154,2.3571,2.1653,1.9422,1.7824,1.6892,1.694,1.6327,1.5385,1.5575,1.5111,1.4019,1.2613,1.1456,1.0559,0.9877,0.9453,0.9228,0.8757,0.8287,0.7706,0.7135,0.6375,0.5832,0.5641,0.5766,0.5656,0.5602,0.5051,0.4019,0.3458,0.3244,0.2412,0.1854,0.1806,0.1729,0.1774,0.1816,0.1858,0.1851,0.1774,0.2068,0.2444,0.2833,0.3008,0.4078,0.4899,0.5167,0.5272,0.5103,0.4679,0.368,0.2386,0.0819,0.0099,-0.0134,0.0134,0.0605,0.0907,0.1076,0.1119,0.1165,4.7771,4.7686,4.6724,4.6018,4.5428,4.4863,4.4527,4.4427,4.3927,4.3488,4.3305,4.3305,4.3305,4.3305,4.3305,4.3305,4.3305,4.3305,4.3305,4.3305,4.3305,4.3305,4.3275,4.323,4.3275,4.3215,4.314,4.2776,4.2102,4.0598,3.9574,3.8676,3.6537,3.6013,3.5534,3.4607,3.3993,3.3395,3.2841,3.2108,3.166,3.1496,3.1241,3.0987,3.0567,3.0223,2.9819,2.916,2.8742,2.8386,2.74,2.6465,2.5404,2.3789,2.1917,1.892,1.7212,1.6063,1.593,1.5785,1.5223,1.429,1.4009,1.3617,1.2673,1.1609,1.0463,0.9724,0.9082,0.8668,0.8355,0.7889,0.7382,0.6883,0.6318,0.5739,0.5283,0.5263,0.5352,0.5404,0.5351,0.4727,0.3698,0.3257,0.2958,0.2052,0.1544,0.1542,0.1556,0.1605,0.1664,0.1737,0.1765,0.173,0.1819,0.2164,0.2646,0.3177,0.4235,0.504,0.5269,0.5272,0.5013,0.4179,0.294,0.1636,0.026,-0.0132,-0.0168,0.0034,0.0471,0.0807,0.1045,0.1018,0.0991,4.6638,4.6288,4.5536,4.4774,4.4028,4.3527,4.3591,4.3888,4.3527,4.3305,4.3305,4.3305,4.3305,4.3305,4.3305,4.3305,4.3305,4.3305,4.3305,4.3305,4.3155,4.3305,4.3245,4.2806,4.2476,4.2447,4.2028,4.1294,4.0816,3.9424,3.8197,3.7898,3.6357,3.6507,3.6133,3.5115,3.4129,3.3484,3.2841,3.2019,3.166,3.1451,3.1256,3.0793,3.0342,2.9894,2.916,2.8308,2.8068,2.756,2.6408,2.5708,2.4239,2.2208,2.0217,1.7545,1.6192,1.5603,1.542,1.5253,1.4236,1.313,1.2323,1.1706,1.1158,1.0295,0.957,0.892,0.8423,0.7946,0.7675,0.735,0.6894,0.646,0.5844,0.5256,0.5082,0.501,0.5038,0.5118,0.4804,0.4287,0.3741,0.3316,0.2712,0.1881,0.1471,0.1469,0.1475,0.1499,0.1566,0.1654,0.169,0.1693,0.1812,0.2026,0.2674,0.34,0.4444,0.5131,0.5349,0.5215,0.4855,0.3562,0.2014,0.0941,0.0065,0.0,0.0,0.0202,0.037,0.0674,0.0809,0.0745,0.0682,4.617,4.5441,4.4675,4.3967,4.3369,4.329,4.3329,4.3275,4.324,4.3245,4.3275,4.3305,4.3185,4.2901,4.2841,4.2781,4.2557,4.2453,4.2677,4.308,4.2453,4.2482,4.2476,4.1938,4.1339,4.0801,4.0561,4.0502,3.9574,3.8586,3.7644,3.6701,3.6626,3.6761,3.6656,3.5235,3.4326,3.4,3.2825,3.1743,3.1539,3.1316,3.0926,2.9998,2.943,2.8918,2.7619,2.7036,2.6946,2.6153,2.5274,2.476,2.2514,2.0199,1.8197,1.6871,1.5381,1.482,1.4562,1.4383,1.3457,1.231,1.1217,1.0101,0.9326,0.8952,0.8385,0.8287,0.7841,0.7437,0.7121,0.6861,0.6484,0.5942,0.5339,0.4944,0.4777,0.4718,0.4686,0.4706,0.4441,0.3922,0.339,0.2908,0.2407,0.1667,0.1398,0.1396,0.1399,0.1411,0.1478,0.155,0.1601,0.1609,0.1614,0.194,0.2745,0.3636,0.4405,0.4895,0.4909,0.4809,0.4662,0.3211,0.1699,0.0921,0.0232,0.0268,0.0269,0.0202,0.0371,0.0573,0.0608,0.0507,0.0475,4.4651,4.3963,4.3206,4.3007,4.326,4.3305,4.329,4.3245,4.2791,4.2851,4.3215,4.3185,4.2647,4.1908,4.1983,4.1833,4.1294,4.1294,4.1444,4.1639,4.1429,4.1579,4.1489,4.0711,4.0068,3.9993,4.0008,3.9948,3.9753,3.8886,3.8317,3.8452,3.7749,3.703,3.6761,3.5252,3.4422,3.4273,3.2994,3.1853,3.1476,3.0986,3.0462,2.9909,2.9445,2.8697,2.7679,2.7081,2.6856,2.6249,2.4412,2.2531,2.0079,1.7768,1.6316,1.5391,1.4327,1.3736,1.343,1.3098,1.2135,1.0876,0.9623,0.8392,0.7608,0.7424,0.7377,0.7454,0.7361,0.7002,0.664,0.639,0.6052,0.5451,0.4908,0.4703,0.4493,0.4429,0.4395,0.4184,0.4006,0.3553,0.2987,0.249,0.1996,0.1673,0.1484,0.139,0.1387,0.1393,0.1399,0.1455,0.1509,0.1516,0.151,0.177,0.251,0.2797,0.3324,0.3875,0.4428,0.3931,0.3434,0.2634,0.1553,0.0927,0.0631,0.0804,0.0773,0.0471,0.0337,0.0506,0.0405,0.027,0.027,4.3455,4.2583,4.2468,4.2605,4.2851,4.2895,4.291,4.2776,4.2246,4.2117,4.2432,4.2372,4.1743,4.0861,4.107,4.095,4.0367,4.0098,4.0876,4.113,4.0711,4.0861,4.0412,3.9738,3.9245,3.908,3.8631,3.8646,3.9275,3.8781,3.8138,3.8646,3.7704,3.6911,3.651,3.5354,3.4349,3.4234,3.2998,3.2127,3.1475,3.1021,3.0265,2.9759,2.9026,2.8263,2.7335,2.6578,2.5994,2.484,2.2887,2.0842,1.8655,1.6655,1.5287,1.4242,1.3249,1.2388,1.2227,1.1712,1.0836,0.9709,0.8824,0.7916,0.7153,0.6987,0.6847,0.6922,0.7169,0.688,0.6462,0.6169,0.5755,0.5212,0.4829,0.4539,0.4424,0.4357,0.4077,0.366,0.3414,0.3031,0.2488,0.1994,0.1579,0.1442,0.1297,0.1327,0.1331,0.1349,0.1357,0.1351,0.141,0.1415,0.1407,0.1662,0.2172,0.2348,0.2436,0.3061,0.3589,0.2799,0.2071,0.1809,0.1557,0.1154,0.1027,0.1074,0.0909,0.0539,0.0438,0.0438,0.027,0.0135,0.017,4.2522,4.158,4.1931,4.2216,4.2276,4.2276,4.2276,4.2171,4.1587,4.1227,4.113,4.1168,4.0382,4.0202,4.0457,4.0412,4.0113,3.9439,4.0187,4.0771,4.0172,4.0157,3.9843,3.9245,3.8601,3.8003,3.7569,3.7404,3.7588,3.7704,3.8167,3.8048,3.7419,3.6686,3.6313,3.5379,3.4085,3.3573,3.2721,3.1905,3.1509,3.1175,3.0073,2.9132,2.8293,2.7385,2.6419,2.5524,2.4876,2.3201,2.1298,1.9266,1.7455,1.5645,1.4417,1.3264,1.2162,1.165,1.1433,1.0985,1.0086,0.9194,0.8498,0.7714,0.6925,0.664,0.6504,0.6455,0.6698,0.6658,0.624,0.593,0.5502,0.4921,0.4564,0.429,0.4206,0.4122,0.3654,0.3188,0.2828,0.2469,0.2103,0.1598,0.136,0.1209,0.1185,0.1211,0.1239,0.1269,0.1288,0.1263,0.127,0.1281,0.125,0.1446,0.1787,0.1995,0.2144,0.2595,0.2675,0.1831,0.1479,0.1724,0.143,0.093,0.0935,0.1014,0.0811,0.0507,0.0506,0.0439,0.0304,0.0169,0.0138,4.164,4.1392,4.0965,4.107,4.1519,4.1602,4.1617,4.1497,4.0876,4.0322,4.0008,3.9828,3.9523,3.9388,3.9553,3.9514,3.911,3.8661,3.9379,4.0187,3.917,3.92,3.9215,3.8751,3.7853,3.7449,3.736,3.7584,3.721,3.8108,3.8377,3.7494,3.7389,3.6178,3.4279,3.3593,3.3406,3.2982,3.2351,3.1516,3.0757,3.0247,2.9512,2.8543,2.7515,2.6723,2.586,2.4901,2.3777,2.2149,2.0055,1.7937,1.6136,1.4574,1.3383,1.2282,1.119,1.0811,1.0503,1.008,0.9257,0.8769,0.801,0.7182,0.6679,0.6543,0.6323,0.5945,0.6084,0.6112,0.5825,0.576,0.5409,0.447,0.39,0.3738,0.3634,0.3426,0.3109,0.2738,0.2408,0.2166,0.1965,0.1561,0.1292,0.1202,0.1209,0.1214,0.11,0.1155,0.1195,0.1173,0.1149,0.1078,0.102,0.1042,0.1303,0.1539,0.1708,0.1888,0.1628,0.0831,0.0637,0.1039,0.0875,0.0404,0.0543,0.0542,0.0511,0.0238,0.044,0.0439,0.027,0.0,-0.0275]},{"header":{"parameterUnit":"m.s-1","parameterCategory":1,"la1":31.0,"la2":29.5877,"lo1":-88.7671,"lo2":-86.6584,"dy":0.0162,"dx":0.0185,"nx":115,"ny":88,"refTime":"2023-11-11T18:00:00:Z","depth":0,"parameterNumber":3,"parameterNumberName":"V-component_of_WINDS"},"data":[0.0,0.0,0.0,0.0,0.0,0.0,0.0,0.0,0.0,0.0,0.0,0.0,0.0,0.0,0.0,0.0,0.0,0.0,0.0,0.0,0.0,0.0,0.0,0.0,0.0,0.0,0.0,0.0,0.0,0.0,0.0,0.0,0.0,0.0,0.0,0.0,0.0,0.0,0.0,0.0,0.0,0.0,0.0,0.0,0.0,0.0,0.0,0.0,0.0,0.0,0.0,0.0,0.0,0.0,0.0,0.0,0.0,0.0,0.0,0.0,0.0,0.0,0.0,0.0,0.0,0.0,0.0,0.0,0.0,0.0,0.0,0.0,0.0,0.0,0.0,0.0,0.0,0.0,0.0,0.0,0.0,0.0,0.0,0.0,0.0,0.0,0.0,0.0,0.0,0.0,0.0,0.0,0.0,0.0,0.0,0.0,0.0,0.0,0.0,0.0,0.0,0.0,0.0,0.0,0.0,0.0,0.0,0.0,0.0,0.0,0.0,0.0,0.0,0.0,0.0,0.0,0.0,0.0,0.0,0.0,0.0,0.0,0.0,0.0,0.0,0.0,0.0,0.0,0.0,0.0,0.0,0.0,0.0,0.0,0.0,0.0,0.0,0.0,0.0,0.0,0.0,0.0,0.0,0.0,0.0,0.0,0.0,0.0,0.0,0.0,0.0,0.0,0.0,0.0,0.0,0.0,0.0,0.0,0.0,0.0,0.0,0.0,0.0,0.0,0.0,0.0,0.0,0.0,0.0,0.0,0.0,0.0,0.0,0.0,0.0,0.0,0.0,0.0,0.0,0.0,0.0,0.0,0.0,0.0,0.0,0.0,0.0,0.0,0.0,0.0,0.0,0.0,0.0,0.0,0.0,0.0,0.0,0.0,0.0,0.0,0.0,0.0,0.0,0.0,0.0,0.0,0.0,0.0,0.0,0.0,0.0,0.0,0.0,0.0,0.0,0.0,0.0,0.0,0.0,0.0,0.0,0.0,0.0,0.0,0.0,0.0,0.0,0.0,0.0,0.0,0.0,0.0,0.0,0.0,0.0,0.0,0.0,0.0,0.0,0.0,0.0,0.0,0.0,0.0,0.0,0.0,0.0,0.0,0.0,0.0,0.0,0.0,0.0,0.0,0.0,0.0,0.0,0.0,0.0,0.0,0.0,0.0,0.0,0.0,0.0,0.0,0.0,0.0,0.0,0.0,0.0,0.0,0.0,0.0,0.0,0.0,0.0,0.0,0.0,0.0,0.0,0.0,0.0,0.0,0.0,0.0,0.0,0.0,0.0,0.0,0.0,0.0,0.0,0.0,0.0,0.0,0.0,0.0,0.0,0.0,0.0,0.0,0.0,0.0,0.0,0.0,0.0,0.0,0.0,0.0,0.0,0.0,0.0,0.0,0.0,0.0,0.0,0.0,0.0,0.0,0.0,0.0,0.0,0.0,0.0,0.0,0.0,0.0,0.0,0.0,0.0,0.0,0.0,0.0,0.0,0.0,0.0,0.0,0.0,0.0,0.0,0.0,0.0,0.0,0.0,0.0,0.0,0.0,0.0,0.0,0.0,0.0,0.0,0.0,0.0,0.0,0.0,0.0,0.0,0.0,0.0,0.0,0.0,0.0,0.0,0.0,0.0,0.0,0.0,0.0,0.0,0.0,0.0,0.0,0.0,0.0,0.0,0.0,0.0,0.0,0.0,0.0,0.0,0.0,0.0,0.0,0.0,0.0,0.0,0.0,0.0,0.0,0.0,0.0,0.0,0.0,0.0,0.0,0.0,0.0,0.0,0.0,0.0,0.0,0.0,0.0,0.0,0.0,0.0,0.0,0.0,0.0,0.0,0.0,0.0,0.0,0.0,0.0,0.0,0.0,0.0,0.0,0.0,0.0,0.0,0.0,0.0,0.0,0.0,0.0,0.0,0.0,0.0,0.0,0.0,0.0,0.0,0.0,0.0,0.0,0.0,0.0,0.0,0.0,0.0,0.0,0.0,0.0,0.0,0.0,0.0,0.0,0.0,0.0,0.0,0.0,0.0,0.0,0.0,0.0,0.0,0.0,0.0,0.0,0.0,0.0,0.0,0.0,0.0,0.0,0.0,0.0,0.0,0.0,0.0,0.0,0.0,0.0,0.0,0.0,0.0,0.0,0.0,0.0,0.0,0.0,0.0,0.0,0.0,0.0,0.0,0.0,0.0,0.0,0.0,0.0,0.0,0.0,0.0,0.0,0.0,0.0,0.0,0.0,0.0,0.0,0.0,0.0,0.0,0.0,0.0,0.0,0.0,0.0,0.0,0.0,0.0,0.0,0.0,0.0,0.0,0.0,0.0,0.0,0.0,0.0,0.0,0.0,0.0,0.0,0.0,0.0,0.0,0.0,0.0,0.0,0.0,0.0,0.0,0.0,0.0,0.0,0.0,0.0,0.0,0.0,0.0,0.0,0.0,0.0,0.0,0.0,0.0,0.0,0.0,0.0,0.0,0.0,0.0,0.0,0.0,0.0,0.0,0.0,0.0,0.0,0.0,0.0,0.0,0.0,0.0,0.0,0.0,0.0,0.0,0.0,0.0,0.0,0.0,0.0,0.0,0.0,0.0,0.0,0.0,0.0,0.0,0.0,0.0,0.0,0.0,0.0,0.0,0.0,0.0,0.0,0.0,0.0,0.0,0.0,0.0,0.0,0.0,0.0,0.0,0.0,0.0,0.0,0.0,0.0,0.0,0.0,0.0,0.0,0.0,0.0,0.0,0.0,0.0,0.0,0.0,0.0,0.0,0.0,0.0,0.0,0.0,0.0,0.0,0.0,0.0,0.0,0.0,0.0,0.0,0.0,0.0,0.0,0.0,0.0,0.0,0.0,0.0,0.0,0.0,0.0,0.0,0.0,0.0,0.0,0.0,0.0,0.0,0.0,0.0,0.0,0.0,0.0,0.0,0.0,0.0,0.0,0.0,0.0,0.0,0.0,0.0,0.0,0.0,0.0,0.0,0.0,0.0,0.0,0.0,0.0,0.0,0.0,0.0,0.0,0.0,0.0,0.0,0.0,0.0,0.0,0.0,0.0,0.0,0.0,0.0,0.0,0.0,0.0,0.0,0.0,0.0,0.0,0.0,0.0,0.0,0.0,0.0,0.0,0.0,0.0,0.0,0.0,0.0,0.0,0.0,0.0,0.0,0.0,0.0,0.0,0.0,0.0,0.0,0.0,0.0,0.0,0.0,0.0,0.0,0.0,0.0,0.0,0.0,0.0,0.0,0.0,0.0,0.0,0.0,0.0,0.0,0.0,0.0,0.0,0.0,0.0,0.0,0.0,0.0,0.0,0.0,0.0,0.0,0.0,0.0,0.0,0.0,0.0,0.0,0.0,0.0,0.0,0.0,0.0,0.0,0.0,0.0,0.0,0.0,0.0,0.0,0.0,0.0,0.0,0.0,0.0,0.0,0.0,0.0,0.0,0.0,0.0,0.0,0.0,0.0,0.0,0.0,0.0,0.0,0.0,0.0,0.0,0.0,0.0,0.0,0.0,0.0,0.0,0.0,0.0,0.0,0.0,0.0,0.0,0.0,0.0,0.0,0.0,0.0,0.0,0.0,0.0,0.0,0.0,0.0,0.0,0.0,0.0,0.0,0.0,0.0,0.0,0.0,0.0,0.0,0.0,0.0,0.0,0.0,0.0,0.0,0.0,0.0,0.0,0.0,0.0,0.0,0.0,0.0,0.0,0.0,0.0,0.0,0.0,0.0,0.0,0.0,0.0,0.0,0.0,0.0,0.0,0.0,0.0,0.0,0.0,0.0,0.0,0.0,0.0,0.0,0.0,0.0,0.0,0.0,0.0,0.0,0.0,0.0,0.0,0.0,0.0,0.0,0.0,0.0,0.0,0.0,0.0,0.0,0.0,0.0,0.0,0.0,0.0,0.0,0.0,0.0,0.0,0.0,0.0,0.0,0.0,0.0,0.0,0.0,0.0,0.0,0.0,0.0,0.0,0.0,0.0,0.0,0.0,0.0,0.0,0.0,0.0,0.0,0.0,0.0,0.0,0.0,0.0,0.0,0.0,0.0,0.0,0.0,0.0,0.0,0.0,0.0,0.0,0.0,0.0,0.0,0.0,0.0,0.0,0.0,0.0,0.0,0.0,0.0,0.0,0.0,0.0,0.0,0.0,0.0,0.0,0.0,0.0,0.0,0.0,0.0,0.0,0.0,0.0,0.0,0.0,0.0,0.0,0.0,0.0,0.0,0.0,0.0,0.0,0.0,0.0,0.0,0.0,0.0,0.0,0.0,0.0,0.0,0.0,1.1366,0.0,0.0,0.0,0.0,0.0,0.0,0.0,0.0,0.0,0.0,0.0,0.0,0.0,0.0,0.0,0.0,0.0,0.0,0.0,0.0,0.0,0.0,0.0,0.0,0.0,0.0,0.0,0.0,0.0,0.0,0.0,0.0,0.0,0.0,0.0,0.0,0.0,0.0,0.0,0.0,0.0,0.0,0.0,0.0,0.0,0.0,0.0,0.0,0.0,0.0,0.0,0.0,0.0,0.0,0.0,0.0,0.0,0.0,0.0,0.0,0.0,0.0,0.0,0.0,0.0,0.0,0.0,0.0,0.0,0.0,0.0,0.0,0.0,0.0,0.0,0.0,0.0,0.0,0.0,0.0,0.0,0.0,0.0,0.0,0.0,0.0,0.0,0.0,0.0,0.0,0.0,0.0,0.0,0.0,0.0,0.0,0.0,0.0,0.0,0.0,0.0,0.0,0.0,0.0,0.0,0.0,0.0,0.0,0.0,0.0,1.1473,1.1752,1.1624,1.1272,1.0628,0.0,0.0,0.0,0.0,0.0,0.0,0.0,0.0,0.0,0.0,0.0,0.0,0.0,0.0,0.0,0.0,0.0,0.0,0.0,0.0,0.0,0.0,0.0,0.0,0.0,0.0,0.0,0.0,0.0,0.0,0.0,0.0,0.0,0.0,0.0,0.0,0.0,0.0,0.0,0.0,0.0,0.0,0.0,0.0,0.0,0.0,0.0,0.0,0.0,0.0,0.0,0.0,0.0,0.0,0.0,0.0,0.0,0.0,0.0,0.0,0.0,0.0,0.0,0.0,0.0,0.0,0.0,0.0,0.0,0.0,0.0,0.0,0.0,0.0,0.0,0.0,0.0,0.0,0.0,0.0,0.0,0.0,0.0,0.0,0.0,0.0,0.0,0.0,0.0,0.0,0.0,0.0,0.0,0.0,0.0,0.0,0.0,0.0,0.0,0.0,0.0,0.0,0.0,0.0,0.0,0.0,0.0,0.0,0.0,0.0,0.0,0.0,1.1517,1.1113,1.0706,0.0,0.0,0.0,0.0,0.0,0.0,0.0,0.0,0.0,0.0,0.0,0.0,0.0,0.0,0.0,0.0,0.0,0.0,0.0,0.0,0.0,0.0,0.0,0.0,0.0,0.0,0.0,0.0,0.0,0.0,0.0,0.0,0.0,0.0,0.0,0.0,0.0,0.0,0.0,0.0,0.0,0.0,0.0,0.0,0.0,0.0,0.0,0.0,0.0,0.0,0.0,0.0,0.0,0.0,0.0,0.0,0.0,0.0,0.0,0.0,0.0,0.0,0.0,0.0,0.0,0.0,0.0,0.0,0.0,0.0,0.0,0.0,0.0,0.0,0.0,0.0,0.0,0.0,0.0,0.0,0.0,0.0,0.0,0.0,0.0,0.0,0.0,0.0,0.0,0.0,0.0,0.0,0.0,0.0,0.0,0.0,0.0,0.0,0.0,0.0,0.0,0.0,0.0,0.0,0.0,0.0,0.0,0.0,0.0,0.0,1.0098,1.2146,1.1601,0.0,1.2914,0.0,0.0,0.0,0.0,0.0,0.0,0.0,0.0,0.0,0.0,0.0,0.0,0.0,0.0,0.0,0.0,0.0,0.0,0.0,0.0,0.0,0.0,0.0,0.0,0.0,0.0,0.0,0.0,0.0,0.0,0.0,0.0,0.0,0.0,0.0,0.0,0.0,0.0,0.0,0.0,0.0,0.0,0.0,0.0,0.0,0.0,0.0,0.0,0.0,0.0,0.0,0.0,0.0,0.0,0.0,0.0,0.0,0.0,0.0,0.0,0.0,0.0,0.0,0.0,0.0,0.0,0.0,0.0,0.0,0.0,0.0,0.0,0.0,0.0,0.0,0.0,0.0,0.0,0.0,0.0,0.0,0.0,0.0,0.0,0.0,0.0,0.0,0.0,0.0,0.0,0.0,0.0,0.0,0.0,0.0,0.0,0.0,0.0,0.0,0.0,0.0,0.0,0.0,0.0,0.0,0.0,0.0,0.0,0.0,0.0,0.9178,1.0788,0.9904,1.0349,0.0,0.0,0.0,0.0,0.0,0.0,0.0,0.0,0.0,0.0,0.0,0.0,0.0,0.0,0.0,0.0,0.0,0.0,0.0,0.0,0.0,0.0,0.0,0.0,0.0,0.0,0.0,0.0,0.0,0.0,0.0,0.0,0.0,0.0,0.0,0.0,0.0,0.0,0.0,0.0,0.0,0.0,0.0,0.0,0.0,0.0,0.0,0.0,0.0,0.0,0.0,0.0,0.0,0.0,0.0,0.0,0.0,0.0,0.0,0.0,0.0,0.0,0.0,0.0,0.0,0.0,0.0,0.0,0.0,0.0,0.0,0.0,0.0,0.0,0.0,0.0,0.0,0.0,0.0,0.0,0.0,0.0,0.0,0.0,0.0,0.0,0.0,0.0,0.0,0.0,0.0,0.0,0.0,0.0,0.0,0.0,0.0,0.0,0.0,0.0,0.0,0.0,0.0,0.0,0.0,0.0,0.0,0.0,0.0,0.0,0.8828,0.858,0.9932,0.9204,0.984,1.2138,0.0,0.0,0.0,0.0,0.0,0.0,0.0,0.0,0.0,0.0,0.0,0.0,0.0,0.0,0.0,0.0,0.0,0.0,0.0,0.0,0.0,0.0,0.0,0.0,0.0,0.0,0.0,0.0,0.0,0.0,0.0,0.0,0.0,0.0,0.0,0.0,0.0,0.0,0.0,0.0,0.0,0.0,0.0,0.0,0.0,0.0,0.0,0.0,0.0,0.0,0.0,0.0,0.0,0.0,0.0,0.0,0.0,0.0,0.0,0.0,0.0,0.0,0.0,0.0,0.0,0.0,0.0,0.0,0.0,0.0,0.0,0.0,0.0,0.0,0.0,0.0,0.0,0.0,0.0,0.0,0.0,0.0,0.0,0.0,0.0,0.0,0.0,0.0,0.0,0.0,0.0,0.0,0.0,0.0,0.0,0.0,0.0,0.0,0.0,0.0,0.0,0.0,0.0,0.0,0.0,0.0,0.0,0.0,1.0496,0.8534,0.8494,1.0622,1.038,1.1169,0.0,0.0,0.0,0.0,0.0,0.0,0.0,0.0,0.0,0.0,0.0,0.0,0.0,0.0,0.0,0.0,0.0,0.0,0.0,0.0,0.0,0.0,0.0,0.0,0.0,0.0,0.0,0.0,0.0,0.0,0.0,0.0,0.0,0.0,0.0,0.0,0.0,0.0,0.0,0.0,0.0,0.0,0.0,0.0,0.0,0.0,0.0,0.0,0.0,0.0,0.0,0.0,0.0,0.0,0.0,0.0,0.0,0.0,0.0,0.0,0.0,0.0,0.0,0.0,0.0,0.0,0.0,0.0,0.0,0.0,0.0,0.0,0.0,0.0,0.0,0.0,0.0,0.0,0.0,0.0,0.0,0.0,0.0,0.0,0.0,0.0,0.0,0.0,0.0,0.0,0.0,0.0,0.0,0.0,0.0,0.0,0.0,0.0,0.0,0.0,0.0,0.0,0.0,0.0,0.0,0.0,0.0,0.0,0.0,0.8858,0.7912,0.8375,1.036,0.9728,1.053,0.0,0.0,0.0,0.0,0.0,0.0,0.0,0.0,0.0,0.0,0.0,0.0,0.0,0.0,0.0,0.0,0.0,0.0,0.0,0.0,0.0,0.0,0.0,0.0,0.0,0.0,0.0,0.0,0.0,0.0,0.0,0.0,0.0,0.0,0.0,0.0,0.0,0.0,0.0,0.0,0.0,0.0,0.0,0.0,0.0,0.0,0.0,0.0,0.0,0.0,0.0,0.0,0.0,0.0,0.0,0.0,0.0,0.0,0.0,0.0,0.0,0.0,0.0,0.0,0.0,0.0,0.0,0.0,0.0,0.0,0.0,0.0,0.0,0.0,0.0,0.0,0.0,0.0,0.0,0.0,0.0,0.0,0.0,0.0,0.0,0.0,0.0,0.0,0.0,0.0,0.0,0.0,0.0,0.0,0.0,0.0,0.0,0.0,0.0,0.0,0.0,0.0,0.0,0.0,0.0,0.0,0.0,0.0,0.0,0.7965,0.0,0.8547,1.0223,0.9538,1.0251,0.0,0.0,0.0,0.0,0.0,0.0,0.0,0.0,0.0,0.0,0.0,0.0,0.0,0.0,0.0,0.0,0.0,0.0,0.0,0.0,0.0,0.0,0.0,0.0,0.0,0.0,0.0,0.0,0.0,0.0,0.0,0.0,0.0,0.0,0.0,0.0,0.0,0.0,0.0,0.0,0.0,0.0,0.0,0.0,0.0,0.0,0.0,0.0,0.0,0.0,0.0,0.0,0.0,0.0,0.0,0.0,0.0,0.0,0.0,0.0,0.0,0.0,0.0,0.0,0.0,0.0,0.0,0.0,0.0,0.0,0.0,0.0,0.0,0.0,0.0,0.0,0.0,0.0,0.0,0.0,0.0,0.0,0.0,0.0,0.0,0.0,0.0,0.0,0.0,0.0,0.0,0.0,0.0,0.0,0.0,0.0,0.0,0.0,0.0,0.0,0.0,0.0,0.0,0.0,0.0,0.0,0.0,0.0,0.8295,0.7984,0.8207,0.8984,1.0305,1.0012,1.0558,0.0,0.0,0.0,0.0,0.0,0.0,0.0,0.0,0.0,0.0,0.0,0.0,0.0,0.0,0.0,0.0,0.0,0.0,0.0,0.0,0.0,0.0,0.0,0.0,0.0,0.0,0.0,0.0,0.0,0.0,0.0,0.0,0.0,0.0,0.0,0.0,0.0,0.0,0.0,0.0,0.0,0.0,0.0,0.0,0.0,0.0,0.0,0.0,0.0,0.0,0.0,0.0,0.0,0.0,0.0,0.0,0.0,0.0,0.0,0.0,0.0,0.0,0.0,0.0,0.0,0.0,0.0,0.0,0.0,0.0,0.0,0.0,0.0,0.0,0.0,0.0,0.0,0.0,0.0,0.0,0.0,0.0,0.0,0.0,0.0,0.0,0.0,0.0,0.0,0.0,0.0,0.0,0.0,0.0,0.0,0.0,0.0,0.0,0.0,0.0,0.0,0.0,0.0,0.0,0.0,0.0,0.0,0.0,0.0,0.7637,0.8751,0.9602,1.0128,1.0782,1.1449,0.0,0.0,0.0,0.0,0.0,0.0,0.0,0.0,0.0,0.0,0.0,0.0,0.0,0.0,0.0,0.0,0.0,0.0,0.0,0.0,0.0,0.0,0.0,0.0,0.0,0.0,0.0,0.0,0.0,0.0,0.0,0.0,0.0,0.0,0.0,0.0,0.0,0.0,0.0,0.0,0.0,0.0,0.0,0.0,0.0,0.0,0.0,0.0,0.0,0.0,0.0,0.0,0.0,0.0,0.0,0.0,0.0,0.0,0.0,0.0,0.0,0.0,0.0,0.0,0.0,0.0,0.0,0.0,0.0,0.0,0.0,0.0,0.0,0.0,0.0,0.0,0.0,0.0,0.0,0.0,0.0,0.0,0.0,0.0,0.0,0.0,0.0,0.0,0.0,0.0,0.0,0.0,0.0,0.0,0.0,0.0,0.0,0.0,0.0,0.0,0.0,0.0,0.0,0.0,0.0,0.0,0.0,0.0,0.0,0.7753,0.8861,0.9764,1.0424,1.0583,1.1237,1.236,0.0,0.0,0.0,0.0,0.0,0.0,0.0,0.0,0.0,0.0,0.0,0.0,0.0,0.0,0.0,0.0,0.0,0.0,0.0,0.0,0.0,0.0,0.0,0.0,0.0,0.0,0.0,0.0,0.0,0.0,0.0,0.0,0.0,0.0,0.0,0.0,0.0,0.0,0.0,0.0,0.0,0.0,0.0,0.0,0.0,0.0,0.0,0.0,0.0,0.0,0.0,0.0,0.0,0.0,0.0,0.0,0.0,0.0,0.0,0.0,0.0,0.0,0.0,0.0,0.0,0.0,0.0,0.0,0.0,0.0,0.0,0.0,0.0,0.0,0.0,0.0,0.0,0.0,0.0,0.0,0.0,0.0,0.0,0.0,0.0,0.0,0.0,0.0,0.0,0.0,0.0,0.0,0.0,0.0,0.0,0.0,0.0,0.0,0.0,0.0,0.0,0.0,0.0,0.0,0.0,0.0,0.0,0.0,0.8079,0.8588,0.9578,1.0932,0.9824,1.025,0.0,0.0,0.0,0.0,0.0,0.0,0.0,0.0,0.0,0.0,0.0,0.0,0.0,0.0,0.0,0.0,0.0,0.0,0.0,0.0,0.0,0.0,0.0,0.0,0.0,0.0,0.0,0.0,0.0,0.0,0.0,0.0,0.0,0.0,0.0,0.0,0.0,0.0,0.0,0.0,0.0,0.0,0.0,0.0,0.0,0.0,0.0,0.0,0.0,0.0,0.0,0.0,0.0,0.0,0.0,0.0,0.0,0.0,0.0,0.0,0.0,0.0,0.0,0.0,0.0,0.0,0.0,0.0,0.0,0.0,0.0,0.0,0.0,0.0,0.0,0.0,0.0,0.0,0.0,0.0,0.0,0.0,0.0,0.0,0.0,0.0,0.0,0.0,0.0,0.0,0.0,0.0,0.0,0.0,0.0,0.0,0.0,0.0,0.0,0.0,0.0,0.0,0.0,0.0,0.0,0.0,0.0,0.0,0.0,0.8589,0.8747,0.9043,0.9376,1.0012,1.0551,0.0,0.0,0.0,0.0,0.0,0.0,0.0,0.0,0.0,0.0,0.0,0.0,0.0,0.0,0.0,0.0,0.0,0.0,0.0,0.0,0.0,0.0,0.0,0.0,0.0,0.0,0.0,0.0,0.0,0.0,0.0,0.0,0.0,0.0,0.0,0.0,0.0,0.0,0.0,0.0,0.0,0.0,0.0,0.0,0.0,0.0,0.0,0.0,0.0,0.0,0.0,0.0,0.0,0.0,0.0,0.0,0.0,0.0,0.0,0.0,0.0,0.0,0.0,0.0,0.0,0.0,0.0,0.0,0.0,0.0,0.0,0.0,0.0,0.0,0.0,0.0,0.0,0.0,0.0,0.0,0.0,0.0,0.0,0.0,0.0,0.0,0.0,0.0,0.0,0.0,0.0,0.0,0.0,0.0,0.0,0.0,0.0,0.0,0.0,0.0,0.0,0.0,0.0,0.0,0.0,0.0,0.0,0.0,1.0694,0.9509,1.012,0.9979,0.8954,0.9438,1.0268,0.0,0.0,0.0,0.0,0.0,0.0,0.0,0.0,0.0,0.0,0.0,0.0,0.0,0.0,0.0,0.0,0.0,0.0,0.0,0.0,0.0,0.0,0.0,0.0,0.0,0.0,0.0,0.0,0.0,0.0,0.0,0.0,0.0,0.0,0.0,0.0,0.0,0.0,0.0,0.0,0.0,0.0,0.0,0.0,0.0,0.0,0.0,0.0,0.0,0.0,0.0,0.0,0.0,0.0,0.0,0.0,0.0,0.0,0.0,0.0,0.0,0.0,0.0,0.0,0.0,0.0,0.0,0.0,0.0,0.0,0.0,0.0,0.0,0.0,0.0,0.0,0.0,0.0,0.0,0.0,0.0,0.0,0.0,0.0,0.0,0.0,0.0,0.0,0.0,0.0,0.0,0.0,0.0,0.0,0.0,0.0,0.0,0.0,0.0,0.0,0.0,0.0,0.0,0.0,0.0,0.0,0.0,0.0,1.2267,1.0523,1.1625,1.1251,0.9282,0.8637,0.9546,0.0,0.0,0.0,0.0,0.0,0.0,0.0,0.0,0.0,0.0,0.0,0.0,0.0,0.0,0.0,0.0,0.0,0.0,0.0,0.0,0.0,0.0,0.0,0.0,0.0,0.0,0.0,0.0,0.0,0.0,0.0,0.0,0.0,0.0,0.0,0.0,0.0,0.0,0.0,0.0,0.0,0.0,0.0,0.0,0.0,0.0,0.0,0.0,0.0,0.0,0.0,0.0,0.0,0.0,0.0,0.0,0.0,0.0,0.0,0.0,0.0,0.0,0.0,0.0,0.0,0.0,0.0,0.0,0.0,0.0,0.0,0.0,0.0,0.0,0.0,0.0,0.0,0.0,0.0,0.0,0.0,0.0,0.0,0.0,0.0,0.0,0.0,0.0,0.0,0.0,0.0,0.0,0.0,0.0,0.0,0.0,0.0,0.0,0.0,0.0,0.0,0.0,0.0,0.0,0.0,0.0,0.0,0.0,1.0697,1.0358,0.9925,0.948,0.8981,0.8632,0.9113,0.0,0.0,0.0,0.0,0.0,0.0,0.0,0.0,0.0,0.0,0.0,0.0,0.0,0.0,0.0,0.0,0.0,0.0,0.0,0.0,0.0,0.0,0.0,0.0,0.0,0.0,0.0,0.0,0.0,0.0,0.0,0.0,0.0,0.0,0.0,0.0,0.0,0.0,0.0,0.0,0.0,0.0,0.0,0.0,0.0,0.0,0.0,0.0,2.3315,0.0,0.0,0.0,0.0,0.0,0.0,0.0,0.0,0.0,0.0,0.0,0.0,0.0,0.0,0.0,0.0,0.0,0.0,0.0,0.0,0.0,0.0,0.0,0.0,0.0,0.0,0.0,0.0,0.0,0.0,0.0,0.0,0.0,0.0,0.0,0.0,0.0,0.0,0.0,0.0,0.0,0.0,0.0,0.0,0.0,0.0,0.0,0.0,0.0,0.0,0.0,0.0,0.0,0.0,0.0,0.0,0.0,0.0,0.0,1.1579,1.128,1.0877,1.0147,0.9084,0.8747,0.9035,0.0,0.0,0.0,0.0,0.0,0.0,0.0,0.0,0.0,0.0,0.0,0.0,0.0,0.0,0.0,0.0,0.0,0.0,0.0,0.0,0.0,0.0,0.0,0.0,0.0,0.0,0.0,0.0,0.0,0.0,0.0,0.0,0.0,0.0,0.0,0.0,0.0,0.0,0.0,0.0,0.0,0.0,0.0,0.0,0.0,0.0,0.0,0.0,0.0,0.0,0.0,0.0,0.0,0.0,0.0,0.0,0.0,0.0,0.0,0.0,0.0,0.0,0.0,0.0,0.0,0.0,0.0,0.0,0.0,0.0,0.0,0.0,0.0,0.0,0.0,0.0,0.0,0.0,0.0,0.0,0.0,0.0,0.0,0.0,0.0,0.0,0.0,0.0,0.0,0.0,0.0,0.0,0.0,0.0,0.0,0.0,0.0,0.0,0.0,0.0,0.0,0.0,0.0,0.0,0.0,0.0,0.0,1.3447,1.3086,1.2356,1.2298,1.129,0.9226,0.891,0.9046,0.9661,0.0,0.0,0.0,0.0,0.0,0.0,0.0,0.0,0.0,0.0,0.0,0.0,0.0,0.0,0.0,0.0,0.0,0.0,0.0,0.0,0.0,0.0,0.0,0.0,0.0,0.0,0.0,0.0,0.0,0.0,0.0,0.0,0.0,0.0,0.0,0.0,0.0,0.0,2.0501,2.1674,0.0,0.0,0.0,0.0,0.0,0.0,0.0,0.0,2.6367,0.0,0.0,0.0,0.0,0.0,0.0,0.0,0.0,0.0,0.0,0.0,0.0,0.0,0.0,0.0,0.0,0.0,0.0,0.0,0.0,0.0,0.0,0.0,0.0,0.0,0.0,0.0,0.0,0.0,0.0,0.0,0.0,0.0,0.0,0.0,0.0,0.0,0.0,0.0,0.0,0.0,0.0,0.0,0.0,0.0,0.0,0.0,0.0,0.0,0.0,0.0,0.0,0.0,0.0,0.0,0.0,1.348,1.3432,1.2956,1.2104,1.1385,1.0339,0.9023,0.9073,0.9001,0.8817,0.0,0.0,0.0,0.0,0.0,0.0,0.0,0.0,0.0,0.0,0.0,0.0,0.0,0.0,0.0,0.0,0.0,0.0,0.0,0.0,0.0,0.0,0.0,0.0,0.0,0.0,0.0,0.0,0.0,0.0,0.0,0.0,0.0,0.0,0.0,0.0,0.0,0.0,0.0,2.424,2.4843,0.0,0.0,0.0,0.0,0.0,0.0,0.0,0.0,2.6189,0.0,0.0,0.0,0.0,0.0,0.0,0.0,0.0,0.0,0.0,0.0,0.0,0.0,0.0,0.0,0.0,0.0,0.0,0.0,0.0,0.0,0.0,0.0,0.0,0.0,0.0,0.0,0.0,0.0,0.0,0.0,0.0,0.0,0.0,0.0,0.0,0.0,0.0,0.0,0.0,0.0,0.0,0.0,0.0,0.0,0.0,0.0,0.0,0.0,0.0,0.0,0.0,0.0,0.0,0.0,1.4326,1.4276,1.362,1.2257,1.1824,1.0731,0.8989,0.8875,0.8708,0.0,0.0,0.0,0.0,0.0,0.0,0.0,0.0,0.0,0.0,0.0,0.0,0.0,0.0,0.0,0.0,0.0,0.0,0.0,0.0,0.0,0.0,0.0,0.0,0.0,0.0,0.0,0.0,0.0,0.0,0.0,0.0,0.0,0.0,0.0,0.0,0.0,0.0,0.0,0.0,2.4378,2.5103,2.6137,0.0,0.0,0.0,0.0,0.0,0.0,2.6934,2.6861,0.0,0.0,0.0,0.0,0.0,0.0,0.0,0.0,0.0,0.0,0.0,0.0,0.0,0.0,0.0,0.0,0.0,0.0,0.0,0.0,0.0,0.0,0.0,0.0,0.0,0.0,0.0,0.0,0.0,0.0,0.0,0.0,0.0,0.0,0.0,0.0,0.0,0.0,0.0,0.0,0.0,0.0,0.0,0.0,0.0,0.0,0.0,0.0,0.0,0.0,0.0,0.0,0.0,0.0,0.0,1.4755,1.4798,1.4047,1.2453,1.22,1.1059,0.8989,0.881,0.8711,0.0,0.0,0.0,0.0,0.0,0.0,0.0,0.0,0.0,0.0,0.0,0.0,0.0,0.0,0.0,0.0,0.0,0.0,0.0,0.0,0.0,0.0,0.0,0.0,0.0,0.0,0.0,0.0,0.0,0.0,0.0,0.0,0.0,0.0,0.0,0.0,0.0,0.0,0.0,0.0,0.0,2.5601,2.6279,2.7062,0.0,0.0,0.0,0.0,2.6884,2.8071,0.0,0.0,0.0,0.0,0.0,0.0,0.0,0.0,0.0,0.0,0.0,0.0,0.0,0.0,0.0,0.0,0.0,0.0,0.0,0.0,0.0,0.0,0.0,0.0,0.0,0.0,0.0,0.0,0.0,0.0,0.0,0.0,0.0,0.0,0.0,0.0,0.0,0.0,0.0,0.0,0.0,0.0,0.0,0.0,0.0,0.0,0.0,0.0,0.0,0.0,0.0,0.0,0.0,0.0,0.0,0.0,1.3682,1.386,1.3456,1.2398,1.1433,1.0241,0.8937,0.9395,0.9352,0.0,0.0,0.0,0.0,0.0,0.0,0.0,0.0,0.0,0.0,0.0,0.0,0.0,0.0,0.0,0.0,0.0,0.0,0.0,0.0,0.0,0.0,0.0,0.0,0.0,0.0,0.0,0.0,0.0,0.0,0.0,0.0,0.0,0.0,0.0,0.0,0.0,0.0,0.0,0.0,0.0,2.78,2.6874,2.7792,2.8098,0.0,0.0,2.8695,2.8447,3.0046,0.0,0.0,0.0,0.0,0.0,0.0,0.0,0.0,0.0,0.0,0.0,0.0,0.0,0.0,0.0,0.0,0.0,0.0,0.0,0.0,0.0,0.0,0.0,0.0,0.0,0.0,0.0,0.0,0.0,0.0,0.0,0.0,0.0,0.0,0.0,0.0,0.0,0.0,0.0,0.0,0.0,0.0,0.0,0.0,0.0,0.0,0.0,0.0,0.0,0.0,0.0,0.0,0.0,0.0,0.0,1.436,1.4423,1.4625,1.3969,1.2462,1.1923,1.0895,0.9213,0.9262,0.9216,0.0,0.0,0.0,0.0,0.0,0.0,0.0,0.0,0.0,0.0,0.0,0.0,0.0,0.0,0.0,0.0,0.0,0.0,0.0,0.0,0.0,0.0,0.0,0.0,0.0,0.0,0.0,0.0,0.0,0.0,0.0,0.0,0.0,0.0,0.0,0.0,0.0,0.0,0.0,0.0,0.0,0.0,2.7329,2.8393,0.0,0.0,0.0,2.9949,2.9808,0.0,0.0,0.0,0.0,0.0,0.0,0.0,0.0,0.0,0.0,0.0,0.0,0.0,0.0,0.0,0.0,0.0,0.0,0.0,0.0,0.0,0.0,0.0,0.0,0.0,0.0,0.0,0.0,0.0,0.0,0.0,0.0,0.0,0.0,0.0,0.0,0.0,0.0,0.0,0.0,0.0,0.0,0.0,0.0,0.0,0.0,0.0,0.0,0.0,0.0,0.0,0.0,0.0,0.0,0.0,0.0,0.0,1.501,1.5067,1.4153,1.2337,1.2064,1.1168,0.9482,0.9169,0.0,0.0,0.0,0.0,0.0,0.0,0.0,0.0,0.0,0.0,0.0,0.0,0.0,0.0,0.0,0.0,0.0,0.0,0.0,0.0,0.0,0.0,0.0,0.0,0.0,0.0,0.0,1.6402,0.0,0.0,0.0,0.0,0.0,0.0,0.0,0.0,0.0,0.0,0.0,0.0,0.0,0.0,2.7286,2.7845,2.899,2.9827,0.0,0.0,3.0791,3.0525,3.1618,3.1607,0.0,0.0,0.0,0.0,0.0,0.0,0.0,0.0,0.0,0.0,0.0,0.0,0.0,0.0,0.0,0.0,0.0,0.0,0.0,0.0,0.0,0.0,0.0,0.0,0.0,0.0,0.0,0.0,0.0,0.0,0.0,0.0,0.0,0.0,0.0,0.0,0.0,0.0,0.0,0.0,0.0,0.0,0.0,0.0,0.0,0.0,0.0,0.0,0.0,0.0,0.0,0.0,0.0,0.0,0.0,1.4707,1.4196,1.333,1.2032,1.1237,1.0351,0.943,0.9425,0.9779,0.0,0.0,0.0,0.0,0.0,0.0,0.0,0.0,0.0,0.0,0.0,0.0,0.0,0.0,0.0,0.0,0.0,0.0,0.0,0.0,0.0,0.0,0.0,0.0,0.0,0.0,0.0,0.0,0.0,0.0,0.0,0.0,0.0,0.0,0.0,0.0,0.0,0.0,0.0,0.0,0.0,2.888,2.8575,2.9624,3.0527,0.0,0.0,3.0867,3.0339,3.2046,3.2521,2.9934,0.0,0.0,0.0,0.0,0.0,0.0,0.0,0.0,0.0,0.0,0.0,0.0,0.0,0.0,0.0,0.0,0.0,0.0,0.0,0.0,0.0,0.0,0.0,0.0,0.0,0.0,0.0,0.0,0.0,0.0,0.0,0.0,0.0,0.0,0.0,0.0,0.0,0.0,0.0,0.0,0.0,0.0,0.0,0.0,0.0,0.0,0.0,0.0,0.0,0.0,0.0,0.0,0.0,1.5152,1.4721,1.4972,1.4124,1.2115,1.2039,1.1222,0.9497,0.9504,0.9682,0.0,0.0,0.0,0.0,0.0,0.0,0.0,0.0,0.0,0.0,0.0,0.0,0.0,0.0,0.0,0.0,0.0,0.0,0.0,0.0,0.0,0.0,0.0,0.0,0.0,0.0,0.0,0.0,1.7626,1.7936,1.9285,0.0,0.0,0.0,0.0,0.0,0.0,0.0,0.0,0.0,0.0,2.9393,2.9948,3.0642,0.0,0.0,3.1913,3.2086,3.2489,3.3395,3.3271,3.1011,3.1694,0.0,0.0,0.0,0.0,0.0,0.0,0.0,0.0,0.0,0.0,0.0,0.0,0.0,0.0,0.0,0.0,0.0,0.0,0.0,0.0,0.0,0.0,0.0,0.0,0.0,0.0,0.0,0.0,0.0,0.0,0.0,0.0,0.0,0.0,0.0,0.0,0.0,0.0,0.0,0.0,0.0,0.0,0.0,0.0,0.0,0.0,0.0,0.0,0.0,0.0,0.0,0.0,1.5185,1.4807,1.5562,1.4688,1.2173,1.271,1.1945,0.9774,0.9553,0.9768,0.0,0.0,0.0,0.0,0.0,0.0,0.0,0.0,0.0,0.0,0.0,0.0,0.0,0.0,0.0,0.0,0.0,0.0,0.0,0.0,0.0,0.0,0.0,0.0,0.0,0.0,0.0,0.0,1.8781,1.9098,2.0388,0.0,0.0,0.0,0.0,0.0,0.0,0.0,0.0,0.0,0.0,3.0336,3.1154,3.1604,3.1988,3.2342,3.2657,3.3001,3.3441,3.4087,3.4085,3.2848,0.0,0.0,0.0,0.0,0.0,0.0,0.0,0.0,0.0,0.0,0.0,0.0,0.0,0.0,0.0,0.0,0.0,0.0,0.0,0.0,0.0,0.0,0.0,0.0,0.0,0.0,0.0,0.0,0.0,0.0,1.1075,0.0,0.0,0.0,0.0,0.0,0.0,0.0,0.0,0.0,0.0,0.0,0.0,0.0,0.0,0.0,0.0,0.0,0.0,0.0,0.0,0.0,0.0,1.5031,1.5127,1.562,1.4779,1.2525,1.3004,1.2201,1.0083,0.9657,1.0158,1.1594,0.0,0.0,0.0,0.0,0.0,0.0,0.0,0.0,0.0,0.0,0.0,0.0,0.0,0.0,0.0,0.0,0.0,0.0,0.0,0.0,0.0,0.0,0.0,0.0,0.0,0.0,2.1763,2.0961,2.062,0.0,0.0,0.0,0.0,0.0,0.0,0.0,0.0,0.0,0.0,3.0949,3.1971,3.2073,3.2438,3.2602,3.2461,3.3087,3.3338,3.2631,3.3795,3.501,0.0,0.0,0.0,0.0,0.0,0.0,0.0,0.0,0.0,0.0,0.0,0.0,0.0,0.0,0.0,0.0,0.0,0.0,0.0,0.0,0.0,0.0,0.0,0.0,0.0,0.0,0.0,1.5466,1.5101,0.0,0.0,0.0,0.0,0.0,0.0,0.0,0.0,0.0,0.0,0.0,1.6447,1.695,0.0,0.0,0.0,0.0,0.0,0.0,0.0,0.0,0.0,0.0,0.0,0.0,1.521,1.5114,1.565,1.5158,1.3682,1.3435,1.247,1.0827,0.9982,1.0196,1.1505,0.0,0.0,0.0,0.0,0.0,0.0,0.0,0.0,0.0,0.0,0.0,0.0,0.0,0.0,0.0,0.0,0.0,0.0,0.0,0.0,0.0,0.0,0.0,0.0,0.0,2.1485,0.0,0.0,0.0,0.0,0.0,0.0,0.0,0.0,0.0,0.0,0.0,2.9962,3.1596,3.2259,3.2758,3.3229,3.3397,3.3465,0.0,0.0,0.0,0.0,0.0,0.0,0.0,0.0,0.0,0.0,0.0,0.0,0.0,0.0,4.089,3.5912,3.4386,3.3643,3.3038,0.0,0.0,0.0,0.0,0.0,0.0,0.0,0.0,0.0,0.0,0.0,0.0,0.0,0.0,1.6123,0.0,1.4978,0.0,0.0,0.0,0.0,0.0,0.0,0.0,0.0,1.5871,1.6797,1.7033,1.745,1.7428,0.0,1.6957,1.6721,0.0,0.0,0.0,0.0,0.0,0.0,0.0,0.0,1.551,1.5416,1.5895,1.5569,1.4379,1.4065,1.3229,1.1893,1.1053,1.095,1.1624,1.2094,1.3075,0.0,0.0,0.0,0.0,0.0,0.0,0.0,0.0,0.0,0.0,0.0,0.0,0.0,0.0,0.0,0.0,0.0,0.0,0.0,0.0,0.0,0.0,0.0,2.1965,0.0,0.0,0.0,0.0,0.0,0.0,0.0,0.0,0.0,3.0394,3.0859,3.1653,3.2953,3.3312,3.3566,3.3928,0.0,0.0,0.0,0.0,0.0,0.0,0.0,3.7051,3.8242,3.9371,4.0346,4.1118,4.2687,4.3797,4.366,0.0,0.0,3.7866,3.6417,3.5752,3.5401,3.5287,3.5425,3.5878,3.5564,3.5145,0.0,0.0,0.0,0.0,0.0,0.0,0.0,0.0,1.6383,1.6465,0.0,1.5616,0.0,0.0,0.0,0.0,0.0,1.3697,0.0,0.0,1.6628,1.7293,1.7293,1.7323,1.7315,1.7369,1.7655,1.7974,1.8255,1.7172,0.0,0.0,0.0,0.0,0.0,0.0,1.5842,1.5931,1.6391,1.5993,1.4764,1.4882,1.4317,1.2984,1.2592,1.2265,1.1953,1.2506,1.3403,1.4561,1.4891,0.0,0.0,0.0,0.0,0.0,0.0,0.0,0.0,0.0,0.0,0.0,0.0,0.0,0.0,0.0,0.0,0.0,0.0,0.0,0.0,2.3051,0.0,0.0,0.0,0.0,0.0,0.0,0.0,0.0,0.0,0.0,3.1438,3.2432,3.3291,3.3499,0.0,0.0,0.0,0.0,3.3394,3.3871,3.4649,3.5457,3.6232,3.7215,3.8502,4.0203,0.0,0.0,4.0347,3.9878,3.9806,4.0438,4.0745,4.0764,4.1361,4.0637,3.9914,3.9049,3.8458,3.8522,3.869,3.8144,3.7713,2.4146,0.0,0.0,0.0,0.0,1.9425,1.886,1.8188,1.8325,1.8043,1.7478,1.7148,0.0,0.0,0.0,0.0,0.0,0.0,1.5041,1.5582,1.6989,1.7669,1.7684,1.7911,1.7904,1.7684,1.7772,1.8425,1.9574,1.9018,1.8502,1.8051,0.0,0.0,0.0,0.0,1.5931,1.6168,1.6359,1.6305,1.6119,1.5202,1.3895,1.225,1.2086,1.2012,1.1966,1.2318,1.3277,1.479,1.4526,0.0,0.0,0.0,0.0,0.0,0.0,0.0,0.0,0.0,0.0,0.0,0.0,0.0,0.0,0.0,0.0,0.0,0.0,0.0,2.3162,2.3529,2.4221,0.0,0.0,0.0,0.0,0.0,0.0,0.0,0.0,0.0,3.3448,3.3448,3.3597,0.0,0.0,3.3906,3.4274,3.4182,3.408,3.4191,3.4863,0.0,3.5696,3.6292,3.7326,3.9028,4.0249,4.1286,4.1984,4.1956,4.1741,4.1397,4.1361,4.1071,4.0113,3.9823,3.9372,3.8473,3.8129,3.8039,3.799,3.7864,3.7703,2.5882,2.4822,2.2967,2.1496,2.0395,1.9828,1.9252,1.8796,1.8862,1.8482,1.7794,1.7552,1.6803,1.5784,1.5355,0.0,0.0,0.0,1.5701,1.6355,1.7207,1.7578,1.7633,1.7823,1.7816,1.7625,1.7578,1.8481,2.0187,1.9964,2.0016,2.0201,0.0,0.0,1.7387,1.6968,1.6648,1.6482,1.6446,1.648,1.6526,1.5496,1.428,1.2991,1.2644,1.2487,1.2388,1.2426,1.305,1.4413,1.4178,1.4466,0.0,0.0,0.0,0.0,0.0,0.0,0.0,0.0,0.0,0.0,0.0,2.1697,2.149,0.0,0.0,0.0,2.324,2.3667,2.3491,2.4491,0.0,0.0,0.0,0.0,0.0,0.0,0.0,3.3322,3.3754,3.4024,3.4207,3.4153,3.4145,3.4356,3.4431,3.444,3.4376,0.0,3.4866,3.4804,3.5211,3.5664,3.6002,3.6181,3.6727,3.7968,3.9627,4.0742,4.0851,4.0944,4.0763,4.0366,4.0474,4.0275,3.8941,3.9029,3.9155,3.8492,3.8115,3.7936,3.8061,3.7882,3.7631,2.695,2.5607,2.2402,2.0775,2.0202,1.9005,1.8692,1.884,1.8555,1.8189,1.7772,1.724,1.6771,1.6352,1.5421,0.0,1.685,1.6134,1.6341,1.7286,1.7286,1.7286,1.7286,1.7286,1.7286,1.7286,1.7372,1.8373,2.0141,2.0187,2.1105,2.274,2.1187,1.9664,1.8298,1.8213,1.774,1.6707,1.67,1.656,1.6239,1.5645,1.5057,1.4496,1.3853,1.3333,1.2992,1.2629,1.2783,1.3531,1.3827,1.4056,1.4209,0.0,0.0,0.0,0.0,0.0,0.0,0.0,0.0,0.0,0.0,0.0,0.0,0.0,0.0,0.0,2.3018,0.0,2.4221,2.5839,0.0,0.0,0.0,3.1874,3.2585,3.3202,3.3587,3.3688,0.0,0.0,3.3977,3.4404,3.4655,3.4321,3.5115,3.5419,3.4518,3.5064,3.5591,3.5343,3.5514,3.5911,3.6521,3.6554,3.6701,3.7419,3.8292,3.8834,3.8435,3.8182,3.8057,3.8078,3.8581,3.8869,3.806,3.8545,3.9067,3.896,3.8402,3.8079,3.8546,3.8187,3.7703,2.61,2.485,2.2918,2.2065,2.1848,2.1037,2.0277,1.958,1.95,1.8811,1.7808,1.7655,1.7128,1.6374,1.6409,1.6575,1.691,1.6921,1.7066,1.7279,1.7286,1.7286,1.7286,1.7286,1.7286,1.7372,1.8064,1.9055,2.0141,2.0022,2.1015,2.2872,2.1585,2.0281,1.9241,1.8686,1.7832,1.6707,1.6707,1.6453,1.5932,1.515,1.4556,1.4195,1.3427,1.2901,1.2685,1.2762,1.2707,1.2586,1.3381,1.3627,1.3145,1.5818,0.0,0.0,0.0,0.0,0.0,0.0,0.0,0.0,0.0,2.3713,2.2583,0.0,2.61,0.0,2.417,2.5257,2.7371,2.7521,0.0,0.0,3.1691,3.2922,3.4047,3.4002,3.3897,3.393,3.3618,3.3353,3.3254,3.3452,3.3541,3.338,3.3984,3.4575,3.4973,3.501,3.4914,3.482,3.534,3.5815,3.61,3.6446,3.7098,3.822,3.8049,3.7952,3.8779,3.8346,3.7898,3.7899,3.8042,3.8079,3.7793,3.8025,3.8186,3.8186,3.8025,3.7935,3.8097,3.7989,3.781,2.5419,2.3646,2.2852,2.2182,2.167,2.1239,2.0521,1.961,1.9757,1.895,1.7582,1.7296,1.6799,1.6191,1.6352,1.6631,1.6903,1.704,1.7194,1.7326,1.7286,1.7286,1.7286,1.7286,1.7286,1.7326,1.7878,1.888,2.0141,2.0059,2.106,2.3057,2.2504,2.1789,2.0848,1.9717,1.8723,1.7788,1.6982,1.6293,1.5778,1.5104,1.4583,1.4275,1.354,1.321,1.3326,1.3367,1.3479,1.3668,1.4199,1.4303,1.3876,1.5891,1.6999,0.0,0.0,0.0,0.0,0.0,0.0,0.0,0.0,0.0,0.0,0.0,2.6312,2.5393,2.5305,2.6229,2.8483,2.8944,2.9769,3.1501,3.2681,3.3612,3.4317,3.4165,3.3923,3.3659,3.3587,3.3336,3.285,3.3076,3.35,3.3864,3.3845,3.3965,3.4583,3.5436,3.5963,3.5185,3.6016,3.6745,3.6711,3.7214,3.7826,3.8363,3.8267,3.8203,3.8474,3.8169,3.7793,3.7793,3.7793,3.7793,3.7667,3.7793,3.7899,3.7899,3.7916,3.7951,3.7951,3.7934,3.7864,2.4665,2.2577,2.2411,2.1714,2.0779,2.0742,2.0194,1.9412,1.9691,1.8869,1.7308,1.6711,1.6279,1.6045,1.6038,1.644,1.7071,1.7086,1.7194,1.7403,1.7366,1.7369,1.7286,1.7286,1.7372,1.7466,1.7606,1.8596,2.0367,2.0367,2.1275,2.3067,2.3386,2.3246,2.2643,2.1157,1.9954,1.9125,1.7274,1.6132,1.5778,1.5224,1.4872,1.4639,1.4041,1.3908,1.4336,1.4208,1.4522,1.5418,1.5437,1.5414,1.5435,1.6205,1.7176,0.0,1.9136,0.0,0.0,0.0,0.0,0.0,0.0,0.0,0.0,2.5251,2.556,2.7053,2.6559,2.6992,2.8911,3.0295,3.135,3.2038,3.3252,3.4026,3.4026,3.3893,3.3661,3.3283,3.3673,3.3573,3.2661,3.3036,3.3859,3.4478,3.4227,3.3916,3.411,3.5942,3.6914,3.5926,3.7056,3.7823,3.7857,3.8357,3.8708,3.8553,3.8712,3.878,3.8062,3.7793,3.7667,3.7631,3.7667,3.7703,3.7613,3.7775,3.7898,3.7934,3.7985,3.8019,3.8002,3.7968,3.7863,2.3327,2.2823,2.1839,2.1279,2.1094,2.083,2.0325,1.9727,1.9786,1.9052,1.7691,1.7047,1.6778,1.6741,1.6945,1.7413,1.8021,1.8028,1.8064,1.8108,1.7845,1.7534,1.7293,1.7286,1.7738,1.8519,1.9285,2.0277,2.1418,2.1221,2.1765,2.3057,2.2614,2.2916,2.3932,0.0,0.0,0.0,1.7169,1.6132,1.5812,1.503,1.4918,1.5505,1.4576,0.0,1.5184,1.4877,1.4875,1.5358,1.5402,0.0,0.0,0.0,0.0,0.0,0.0,0.0,0.0,0.0,0.0,0.0,2.5189,2.4872,2.5281,2.5594,2.6721,2.8811,2.8589,2.9082,3.1011,3.2041,3.2869,3.3503,3.3928,3.4171,3.4142,3.3359,3.293,3.3409,3.3032,3.2665,3.2522,3.2924,3.3329,3.3698,3.4287,3.4787,3.484,3.5508,3.583,3.5882,3.7265,3.8119,3.8142,3.8898,3.9408,3.9451,3.9135,3.8885,3.8617,3.8025,3.7649,3.7595,3.7667,3.7703,3.7685,3.7845,3.7984,3.7966,3.8071,3.814,3.8019,3.7984,3.7933,2.3001,0.0,2.1726,2.1357,0.0,2.0867,2.0355,1.9815,1.9815,1.903,1.7801,1.7465,1.7238,1.7106,1.7421,1.783,1.8299,1.8299,1.8299,1.8291,1.813,1.8115,1.8308,1.8261,1.8722,1.9513,1.996,2.0737,2.165,2.1587,2.2041,2.311,2.3128,2.3593,2.4331,2.3472,2.1624,1.8943,1.714,1.6184,1.6015,1.5791,1.5876,1.6161,1.5812,0.0,0.0,0.0,0.0,0.0,0.0,0.0,0.0,1.9686,0.0,2.1697,2.3036,2.4123,2.4796,2.5452,2.6001,2.6377,2.6218,2.5972,2.555,2.6061,2.6928,2.8154,2.8117,2.864,3.0279,3.0896,3.159,3.2537,3.2778,3.2973,3.3242,3.287,3.2766,3.3318,3.3121,3.2878,3.2823,3.3013,3.3488,3.4042,3.4446,3.5052,3.5941,3.6456,3.6916,3.7428,3.811,3.8681,3.8623,3.9146,3.946,3.9085,3.8903,3.8702,3.8366,3.7936,3.7667,3.7721,3.7775,3.7792,3.781,3.7897,3.8001,3.8018,3.8105,3.8157,3.8018,3.8001,3.7966,2.2881,2.1789,2.1781,2.1591,2.1269,2.0889,2.0318,1.9727,0.0,0.0,0.0,1.7955,1.7786,1.7604,1.7867,1.813,1.8379,1.8386,1.8328,1.8218,1.8415,1.8756,1.9233,1.9413,1.9802,2.0466,2.0466,2.0962,2.1917,2.1961,2.2362,2.3232,2.4033,2.4456,2.4555,2.3529,2.1952,1.9837,1.7835,1.6826,1.6803,1.7029,1.7175,1.7121,1.7144,1.7358,1.7852,1.7742,1.7995,1.8649,1.9687,2.0305,2.0384,2.1177,2.2118,2.3094,2.3407,2.4081,2.5346,2.6054,2.6534,2.6742,2.7049,2.6927,2.6181,2.6559,2.6943,2.7123,2.7293,2.7912,2.9049,2.95,3.0058,3.1084,3.1364,3.175,3.2258,3.2318,3.2569,3.3253,3.3344,3.3388,3.3372,3.3644,3.405,3.4949,3.5104,3.5186,3.6642,3.7505,3.8282,3.8941,3.9,3.9002,3.8974,3.9108,3.9057,3.8345,3.852,3.8523,3.7918,3.7685,3.7757,3.7864,3.7899,3.7898,3.7934,3.7985,3.8018,3.8053,3.814,3.8157,3.8053,3.8036,3.8036,2.2334,2.2118,2.2118,2.1928,2.1584,2.0976,2.0201,1.9338,1.9052,1.903,1.903,1.8482,1.8364,1.8584,1.8628,1.8672,1.8723,1.8723,1.8416,1.7937,1.8787,1.9067,1.8921,1.9679,2.0555,2.1418,2.1516,2.1971,2.2828,2.2872,2.3188,2.3711,2.418,2.4738,2.5333,2.3833,2.28,2.2398,2.0448,1.9244,1.9031,1.8483,1.8559,1.9187,1.8162,1.7888,1.8447,1.8465,1.868,1.9183,2.0535,2.2007,2.3567,2.3438,2.384,2.4899,2.4632,2.4753,2.5546,2.6189,2.6792,2.7244,2.7342,2.7388,2.743,2.7147,2.7182,2.772,2.8461,2.9124,2.9434,3.0365,3.0854,3.069,3.1152,3.1555,3.166,3.1704,3.216,3.3231,3.3314,3.3477,3.3988,3.4806,3.5432,3.5852,3.6056,3.6503,3.6365,3.7334,3.8411,3.9033,3.8742,3.8535,3.8562,3.8692,3.8468,3.8093,3.8414,3.8506,3.7847,3.7703,3.7775,3.7881,3.7951,3.7984,3.7984,3.8088,3.814,3.8157,3.8192,3.8192,3.8175,3.8157,3.8124,2.2579,2.2425,2.2425,2.214,2.162,2.0633,1.9952,1.952,1.9191,1.903,1.8979,1.8686,1.8752,1.9045,1.9104,1.9052,1.9096,1.9413,1.9315,1.9003,1.9894,2.0448,2.0649,2.0842,2.1472,2.2403,2.2229,2.2591,2.3413,2.3486,2.3711,2.4131,2.456,2.5098,2.5586,2.442,2.3756,2.369,2.1206,1.9854,1.9741,1.9516,1.9574,1.9858,1.9215,1.9014,1.9228,1.9317,1.9482,1.9773,2.1896,2.3205,2.3403,2.4167,2.4882,2.5452,2.5269,2.56,2.6602,2.6946,2.721,2.7397,2.7401,2.7402,2.741,2.7243,2.7409,2.8092,2.8595,2.8881,2.8976,2.9567,2.9953,2.9998,3.0298,3.0761,3.139,3.184,3.2326,3.315,3.3525,3.3901,3.4472,3.5053,3.5595,3.5909,3.634,3.6208,3.5495,3.5943,3.6671,3.7301,3.7235,3.7111,3.7285,3.7694,3.7664,3.7227,3.7811,3.8115,3.7899,3.7862,3.7915,3.8038,3.8071,3.8105,3.8105,3.8157,3.8192,3.8209,3.8209,3.8209,3.8209,3.8209,3.8175,2.2967,2.2732,2.2732,2.2337,2.1606,2.0464,1.9955,1.9793,1.9411,1.9133,1.8928,1.8972,1.9199,1.9426,1.9434,1.9457,1.9597,2.0043,2.018,2.0183,2.1004,2.1702,2.2071,2.1877,2.228,2.3028,2.2891,2.3144,2.373,2.3887,2.415,2.457,2.501,2.5391,2.5713,2.4806,2.4424,2.4273,2.1926,2.061,2.0647,2.0676,2.0573,2.042,2.0032,1.9786,1.9695,1.9897,2.009,2.0401,2.277,2.387,2.334,2.4457,2.5369,2.5726,2.5555,2.5974,2.7225,2.7525,2.7549,2.7463,2.7437,2.7486,2.7517,2.7532,2.7724,2.8319,2.8598,2.8782,2.8865,2.8891,2.9026,2.9547,2.9714,3.0321,3.1319,3.2013,3.2668,3.3293,3.3815,3.43,3.4756,3.4899,3.5131,3.5578,3.5628,3.5214,3.4591,3.4233,3.4267,3.492,3.5328,3.5811,3.598,3.6568,3.6912,3.6629,3.7393,3.7846,3.7949,3.8001,3.7908,3.794,3.7884,3.7848,3.7919,3.7901,3.7973,3.81,3.8209,3.8209,3.8209,3.8209,3.8209,2.3084,2.3062,2.3047,2.2528,2.1642,2.0925,2.0289,1.9808,1.9418,1.9316,1.9309,1.9588,1.9727,1.9771,1.9771,1.9978,2.0302,2.0377,2.0606,2.0951,2.1785,2.2035,2.1948,2.2564,2.3003,2.314,2.3428,2.3594,2.3799,2.418,2.458,2.501,2.5449,2.5635,2.5586,2.4816,2.4424,2.4404,2.3351,2.2828,2.277,2.2132,2.1748,2.17,2.0359,1.955,1.9425,1.9753,2.0181,2.066,2.2455,2.4009,2.4898,2.478,2.5169,2.6318,2.5382,2.5285,2.6572,2.727,2.763,2.76,2.7619,2.7859,2.833,2.845,2.8454,2.858,2.9065,2.9475,2.9517,2.9517,2.9535,2.9681,3.0128,3.0672,3.1393,3.2001,3.2819,3.3908,3.4101,3.4284,3.4804,3.4899,3.4916,3.4949,3.4508,3.3918,3.3239,3.2252,3.1795,3.251,3.3389,3.4773,3.5805,3.5931,3.6387,3.7343,3.7793,3.7897,3.7911,3.7873,3.7837,3.718,3.7122,3.7122,3.7194,3.7122,3.743,3.8046,3.8209,3.8209,3.8209,3.8209,3.8209,2.3106,2.3106,2.3106,2.2564,2.1664,2.0998,2.0355,1.9801,1.9463,1.9583,2.0152,2.094,2.0872,2.0094,2.0772,2.1182,2.143,2.2511,2.2795,2.258,2.3233,2.3326,2.2961,2.2761,2.2847,2.3052,2.3076,2.3301,2.3838,2.4473,2.5029,2.543,2.5654,2.5684,2.5615,2.4853,2.4424,2.4385,2.353,2.3101,2.3003,2.2314,2.1967,2.1945,2.0943,2.0195,2.0118,2.0788,2.1069,2.089,2.3082,2.4216,2.377,2.4916,2.5735,2.6033,2.6273,2.6626,2.7151,2.7799,2.8019,2.763,2.8349,2.8618,2.8124,2.9041,2.9567,2.9256,2.9717,3.0118,3.0118,3.0133,3.0133,3.0203,3.0661,3.1262,3.1939,3.2818,3.3636,3.4059,3.4358,3.4618,3.4851,3.4899,3.4717,3.4326,3.3709,3.3073,3.2374,3.142,3.1048,3.1402,3.2461,3.3781,3.515,3.5793,3.6373,3.7237,3.7863,3.8017,3.751,3.7416,3.7163,3.6417,3.6327,3.6524,3.6995,3.7062,3.7295,3.788,3.8191,3.8209,3.8209,3.8209,3.8064,2.3106,2.3106,2.3106,2.2623,2.1796,2.1233,2.0678,2.0177,1.9895,2.0197,2.0948,2.1985,2.1977,2.134,2.2234,2.2864,2.3315,2.4448,2.4829,2.4513,2.4677,2.4551,2.4092,2.3398,2.3149,2.3374,2.335,2.3633,2.4316,2.4902,2.5361,2.5537,2.5547,2.544,2.5255,2.46,2.4248,2.418,2.3461,2.3101,2.3018,2.2407,2.2098,2.2191,2.1375,2.0764,2.0647,2.1584,2.1733,2.1031,2.335,2.4229,2.3285,2.5032,2.6048,2.598,2.6956,2.7675,2.7869,2.8323,2.8457,2.8244,2.8963,2.9071,2.8783,2.9535,3.0073,2.9953,3.0253,3.0477,3.0492,3.0492,3.0488,3.0503,3.0849,3.1446,3.2451,3.3221,3.3656,3.4227,3.4429,3.4584,3.4618,3.4717,3.4674,3.4008,3.3339,3.2928,3.2443,3.188,3.1271,3.1298,3.2288,3.3388,3.4542,3.5598,3.6469,3.7327,3.7967,3.7885,3.7176,3.7031,3.6508,3.5856,3.5639,3.5582,3.5903,3.6295,3.6778,3.7421,3.7894,3.7967,3.7493,3.7762,3.7487,2.3106,2.3106,2.3106,2.2794,2.2185,2.1825,2.1427,2.1078,2.1025,2.1272,2.1777,2.2529,2.2953,2.3384,2.4271,2.511,2.5811,2.5646,2.5935,2.6428,2.5918,2.5449,2.5057,2.4551,2.4326,2.4346,2.4685,2.5125,2.5576,2.5654,2.5488,2.5166,2.5156,2.4902,2.4541,2.4082,2.3818,2.376,2.3286,2.3081,2.3032,2.2573,2.2335,2.2395,2.1544,2.1018,2.0985,2.1665,2.1909,2.1481,2.2844,2.3749,2.4263,2.5065,2.5839,2.6503,2.724,2.7914,2.8412,2.8637,2.8861,2.9265,2.9101,2.9146,2.9819,2.9849,2.9894,3.0342,3.0342,3.0432,3.0413,3.0453,3.044,3.0341,3.0391,3.1242,3.2707,3.245,3.2972,3.4164,3.4223,3.4078,3.3978,3.4468,3.4589,3.4116,3.3406,3.3122,3.3537,3.2812,3.2184,3.2227,3.2815,3.365,3.4457,3.5456,3.67,3.759,3.791,3.7828,3.7375,3.6832,3.591,3.5186,3.473,3.4546,3.4733,3.509,3.5612,3.6427,3.7606,3.7697,3.7195,3.7312,3.6993,2.3355,2.3736,2.3728,2.3597,2.3322,2.3041,2.2552,2.2025,2.236,2.2808,2.3462,2.4634,2.5465,2.5977,2.6631,2.6791,2.6603,2.7352,2.7734,2.7619,2.7041,2.6467,2.5947,2.5593,2.523,2.4969,2.5464,2.5849,2.6064,2.5889,2.5762,2.5801,2.539,2.4853,2.4375,2.374,2.3389,2.3286,2.2906,2.2828,2.3075,2.2757,2.2643,2.2821,2.2221,2.1753,2.1585,2.2335,2.2539,2.2115,2.3272,2.4072,2.4515,2.555,2.6479,2.721,2.7869,2.8338,2.8652,2.9385,2.9714,2.9624,3.0178,3.0013,2.9579,2.9774,2.9968,2.9535,2.9714,2.9838,2.9841,3.0103,3.0365,3.0402,3.0895,3.1501,3.2135,3.235,3.2731,3.3369,3.363,3.4018,3.4446,3.4851,3.4948,3.4781,3.422,3.3772,3.3535,3.3128,3.2615,3.2346,3.3164,3.4145,3.4074,3.5198,3.636,3.7365,3.781,3.7051,3.6508,3.5274,3.4244,3.4093,3.3676,3.3844,3.4175,3.5165,3.549,3.6316,3.746,3.7638,3.7114,3.7322,3.6712,2.3509,2.4017,2.4602,2.4666,2.4442,2.4581,2.4215,2.3704,2.4149,2.458,2.5094,2.6212,2.6918,2.7292,2.7792,2.7734,2.7226,2.8209,2.8496,2.8103,2.7691,2.7301,2.6873,2.6715,2.6417,2.6121,2.6309,2.6537,2.6477,2.6143,2.5957,2.5889,2.5215,2.4617,2.3994,2.3301,2.29,2.2715,2.2451,2.2627,2.3303,2.3221,2.3254,2.3548,2.3254,2.2719,2.2189,2.2928,2.3183,2.2913,2.3892,2.4876,2.5531,2.6401,2.7121,2.76,2.8004,2.8487,2.8936,2.9744,3.0208,3.0238,3.0746,3.0612,2.9669,2.9968,2.9699,2.9205,2.9026,2.9177,2.9138,2.9527,2.9965,3.0163,3.0791,3.141,3.1727,3.1918,3.2039,3.2448,3.3243,3.4024,3.4599,3.4688,3.4641,3.4661,3.4034,3.3316,3.2757,3.2604,3.255,3.1932,3.2543,3.323,3.3376,3.4004,3.5544,3.6671,3.6524,3.591,3.5258,3.3933,3.3096,3.2947,3.3063,3.3302,3.3978,3.5042,3.5831,3.6512,3.7228,3.7598,3.7392,3.735,3.664,2.368,2.4113,2.5712,2.61,2.5719,2.6341,2.643,2.5936,2.6289,2.643,2.6483,2.6855,2.7122,2.7102,2.7551,2.7682,2.7764,2.7874,2.8046,2.8127,2.7935,2.7763,2.7703,2.7764,2.7854,2.7764,2.7531,2.7231,2.6993,2.6625,2.6084,2.5302,2.4775,2.4102,2.3257,2.2783,2.2314,2.2012,2.1936,2.2641,2.3948,2.3985,2.4172,2.4671,2.4572,2.389,2.2535,2.3384,2.3683,2.3507,2.4571,2.6053,2.7117,2.747,2.757,2.76,2.7675,2.8334,2.9382,2.9684,3.0432,3.0987,3.0926,3.0851,3.0853,3.0268,2.9654,2.934,2.9015,2.8636,2.8574,2.8951,2.9457,2.9732,3.0053,3.0571,3.1149,3.0964,3.082,3.1664,3.2779,3.3725,3.3933,3.3895,3.3751,3.334,3.2816,3.2289,3.1958,3.195,3.1626,3.1576,3.2004,3.2484,3.2527,3.27,3.4388,3.5672,3.5005,3.4407,3.4021,3.3038,3.2305,3.211,3.2602,3.2876,3.3638,3.4609,3.5027,3.5717,3.6616,3.7291,3.7113,3.6848,3.6558,2.5053,2.6283,2.6953,2.7546,2.7998,2.8066,2.7772,2.7458,2.7847,2.8018,2.8001,2.8056,2.8093,2.7996,2.794,2.772,2.7521,2.7739,2.796,2.8126,2.8127,2.7975,2.7915,2.834,2.8757,2.894,2.8459,2.8264,2.8183,2.7478,2.6922,2.6458,2.5124,2.4004,2.3208,2.2461,2.1865,2.1494,2.1557,2.2302,2.358,2.4458,2.5017,2.5298,2.5301,2.5026,2.4582,2.381,2.3794,2.4483,2.5093,2.6081,2.7265,2.7585,2.7585,2.769,2.8498,2.9082,2.9606,3.0402,3.0987,3.1391,3.1286,3.1032,3.0823,3.0462,2.9789,2.9169,2.8979,2.9024,2.8967,2.9303,2.9617,2.9793,3.0092,3.0382,3.0844,3.0721,3.087,3.1466,3.2077,3.2435,3.2615,3.2708,3.2765,3.2626,3.2334,3.213,3.2288,3.2434,3.253,3.1912,3.2004,3.1689,3.1583,3.147,3.2267,3.3404,3.3154,3.3136,3.2784,3.2078,3.1428,3.1646,3.2119,3.2783,3.3528,3.4072,3.4539,3.5058,3.5936,3.6254,3.6302,3.6187,3.6004,2.5877,2.7337,2.8083,2.8917,2.9776,2.9826,2.9662,2.937,2.9583,2.9497,2.9209,2.9137,2.8918,2.8618,2.8307,2.8038,2.781,2.8059,2.8146,2.8152,2.8276,2.8267,2.8177,2.8737,2.9178,2.9362,2.9082,2.8835,2.8702,2.7984,2.7331,2.6646,2.5334,2.413,2.3285,2.2441,2.1774,2.1332,2.1647,2.2486,2.3762,2.4905,2.5714,2.613,2.6218,2.6004,2.5573,2.4556,2.4442,2.5331,2.5813,2.659,2.7484,2.7585,2.7585,2.7809,2.8558,2.9307,2.9666,3.0492,3.1256,3.1436,3.1496,3.1346,3.0868,3.0567,2.9714,2.921,2.8905,2.8991,2.9122,2.9528,2.9853,3.0049,3.0321,3.06,3.0837,3.1172,3.1343,3.1762,3.2064,3.2105,3.2085,3.2081,3.2012,3.1965,3.199,3.1718,3.1987,3.2291,3.1949,3.1501,3.1044,3.0757,3.0577,3.0459,3.0333,3.0831,3.1184,3.1583,3.1724,3.0727,2.9934,3.1245,3.2005,3.2941,3.3687,3.3935,3.4313,3.4884,3.5457,3.6081,3.6419,3.5894,3.5674,2.6346,2.7443,2.9176,3.0248,3.0834,3.1508,3.1542,3.1388,3.1264,3.0768,3.0117,2.9869,2.9456,2.8804,2.8669,2.8597,2.8607,2.8618,2.8483,2.8309,2.8464,2.8721,2.8934,2.9379,2.9608,2.9641,2.9766,2.9291,2.8503,2.8036,2.7282,2.6395,2.5481,2.4386,2.3533,2.2661,2.1919,2.1386,2.197,2.308,2.4446,2.5384,2.6239,2.7114,2.707,2.67,2.5963,2.5838,2.5831,2.5995,2.6824,2.7513,2.7729,2.772,2.7839,2.7929,2.8382,2.9101,2.9681,3.0387,3.0943,3.1436,3.1496,3.1496,3.1301,3.0477,2.9774,2.9499,2.8992,2.8777,2.9232,2.9627,3.0027,3.0384,3.0468,3.077,3.1454,3.2022,3.1955,3.1819,3.229,3.2543,3.1832,3.1786,3.1577,3.1345,3.138,3.1055,3.0768,3.1079,3.0986,3.0653,3.0292,2.9978,2.9862,2.9647,2.9564,2.9825,3.0062,3.039,3.0724,2.9826,2.9448,3.0723,3.1906,3.2884,3.3556,3.371,3.4106,3.4675,3.5423,3.6288,3.6217,3.5586,3.5153,2.8431,3.017,3.0704,3.1409,3.208,3.2076,3.1936,3.1771,3.1526,3.1102,3.0532,3.0139,2.9715,2.9145,2.9114,2.8949,2.8804,2.898,2.9083,2.898,2.9042,2.96,3.0192,3.04,3.0586,3.0888,3.076,3.0363,2.9074,2.835,2.7741,2.7193,2.6034,2.4881,2.3801,2.3203,2.2301,2.1492,2.2145,2.3065,2.413,2.5405,2.6408,2.716,2.6939,2.6826,2.6902,2.7577,2.7548,2.6964,2.8064,2.8842,2.8981,2.8992,2.8963,2.9026,2.9564,3.0028,3.0313,3.0838,3.1301,3.1451,3.1496,3.1496,3.1466,3.0733,3.0103,2.9741,2.951,2.9619,2.9894,3.0156,3.0403,3.0447,3.0522,3.0647,3.0958,3.1083,3.1195,3.1182,3.1461,3.1304,3.0861,3.067,3.0608,3.047,3.0616,3.082,3.0452,3.0776,3.1102,3.032,2.9854,2.9434,2.9125,2.8886,2.8883,2.9122,2.932,2.9442,2.9655,2.9388,2.9575,3.0361,3.1396,3.2385,3.2896,3.3216,3.3829,3.4412,3.5001,3.5609,3.5377,3.4898,3.4517,2.9364,3.1285,3.1285,3.1825,3.2638,3.239,3.2277,3.2292,3.2064,3.1567,3.1019,3.0708,3.0212,2.9632,2.9591,2.9466,2.9259,2.9477,2.9466,2.9393,2.9768,3.0303,3.0793,3.0904,3.1057,3.1218,3.109,3.0187,2.9103,2.8571,2.8029,2.7227,2.6412,2.5366,2.426,2.3596,2.3043,2.2485,2.2965,2.3635,2.4479,2.5624,2.6511,2.712,2.6989,2.704,2.7414,2.8239,2.8455,2.8249,2.9016,2.9699,2.9609,2.9621,2.9621,2.9624,3.0148,3.0477,3.0627,3.1122,3.1466,3.1496,3.1496,3.1496,3.1316,3.0717,2.9921,2.9936,3.003,3.0188,3.0477,3.0756,3.0981,3.1032,3.0771,3.0759,3.1091,3.1566,3.1566,3.1498,3.1392,3.1049,3.0147,3.007,2.9717,2.949,2.9902,3.0038,3.0108,3.0795,3.1013,3.0161,2.9693,2.9397,2.9077,2.8832,2.8846,2.9021,2.9109,2.9128,2.8942,2.9027,2.9665,3.0262,3.1046,3.1682,3.2093,3.2659,3.3365,3.3922,3.446,3.4883,3.4882,3.4419,3.4037,2.9825,3.1459,3.1459,3.195,3.2612,3.2669,3.2576,3.2576,3.2551,3.2043,3.135,3.1322,3.0657,3.0005,2.9911,2.9963,2.9942,3.0151,3.0159,3.0357,3.0946,3.1633,3.1755,3.1804,3.1628,3.1417,3.0636,2.9847,2.9102,2.8692,2.8066,2.7352,2.6652,2.5885,2.4982,2.4135,2.3761,2.3671,2.3869,2.4405,2.5147,2.6007,2.6671,2.6969,2.7102,2.714,2.7525,2.8326,2.894,2.8917,2.9869,3.0165,2.9896,2.9834,2.9864,2.9983,3.0404,3.063,3.0617,3.1111,3.1438,3.138,3.1409,3.1496,3.133,3.0621,3.014,3.0199,3.0306,3.0727,3.1141,3.1501,3.1636,3.1582,3.1108,3.1095,3.165,3.2348,3.2567,3.2101,3.1971,3.1358,3.0574,2.9973,2.96,2.885,2.9229,2.9626,2.9748,3.0102,3.0166,2.9761,2.9521,2.9473,2.9168,2.8864,2.8979,2.9101,2.9184,2.9126,2.8694,2.8874,2.9636,3.0293,3.0573,3.0863,3.1221,3.1887,3.2862,3.3432,3.3947,3.4639,3.5111,3.4255,3.3683,3.1353,3.2373,3.243,3.2498,3.2669,3.2669,3.2473,3.2153,3.2153,3.1723,3.0998,3.0853,3.0522,2.9994,2.9994,2.9994,3.0245,3.0888,3.16,3.2526,3.3473,3.3915,3.3891,3.377,3.3401,3.2803,3.2582,3.1269,2.9686,2.9021,2.863,2.7754,2.7387,2.6898,2.5723,2.515,2.4588,2.432,2.4506,2.4913,2.5383,2.6094,2.6562,2.6713,2.6713,2.6927,2.7554,2.8879,2.9642,2.9844,3.0444,3.0978,3.0972,3.0972,3.0943,3.0957,3.1092,3.104,3.0749,3.1042,3.1248,3.0866,3.119,3.1496,3.148,3.1238,3.075,3.0675,3.1067,3.172,3.2163,3.2381,3.2199,3.1807,3.1258,3.0938,3.1167,3.1392,3.1503,3.1466,3.1401,3.1067,3.0226,2.9974,2.9424,2.8579,2.8635,2.922,2.9372,2.9427,2.937,2.9198,2.9382,2.9318,2.8986,2.8838,2.9101,2.9225,2.9304,2.8958,2.8525,2.8692,2.9441,2.9704,2.9761,3.0173,3.0826,3.1778,3.2894,3.3172,3.3588,3.4584,3.504,3.4155,3.3429,3.1825,3.2669,3.2669,3.2669,3.2669,3.2659,3.2401,3.205,3.1988,3.1536,3.0833,3.0688,3.0419,3.0015,3.0047,3.0235,3.094,3.1891,3.2928,3.3822,3.4569,3.5017,3.5367,3.4933,3.4239,3.33,3.2588,3.1211,2.9814,2.9239,2.8804,2.7948,2.7886,2.7225,2.6437,2.6178,2.5828,2.5445,2.5589,2.5826,2.5986,2.6245,2.6487,2.6487,2.6499,2.6663,2.7015,2.8578,2.9329,2.9754,3.0638,3.1409,3.1467,3.1496,3.1496,3.1496,3.1496,3.119,3.0837,3.0777,3.0866,3.051,3.0866,3.1379,3.1617,3.1646,3.1581,3.1659,3.2144,3.2693,3.3108,3.2818,3.2469,3.1938,3.1303,3.1002,3.1052,3.1075,3.1131,3.119,3.1224,3.0581,3.0042,2.9557,2.8596,2.7457,2.7552,2.8085,2.8375,2.8476,2.8737,2.8775,2.9114,2.9123,2.8773,2.8799,2.9196,2.935,2.9467,2.8862,2.8171,2.8613,2.9224,2.9276,2.9348,3.0232,3.0978,3.1953,3.2624,3.3082,3.3692,3.4768,3.496,3.4013,3.3381,3.195,3.2669,3.2669,3.2669,3.2669,3.2669,3.2411,3.2008,3.1905,3.1433,3.077,3.0636,3.0305,3.0109,3.0297,3.094,3.2134,3.2939,3.403,3.4969,3.5126,3.5619,3.5966,3.5475,3.4483,3.3201,3.2235,3.0837,2.9837,2.9342,2.9011,2.8214,2.7989,2.7572,2.7009,2.7095,2.6929,2.6336,2.6623,2.6676,2.6445,2.6452,2.6487,2.6487,2.6487,2.6499,2.6892,2.8066,2.903,2.9097,3.0598,3.1351,3.1496,3.1496,3.1496,3.1496,3.1365,3.0911,3.0434,3.0419,3.051,3.0419,3.0778,3.1305,3.198,3.2206,3.2357,3.2592,3.2933,3.3023,3.3512,3.289,3.2385,3.1968,3.1344,3.1079,3.1134,3.114,3.0954,3.092,3.0567,2.9909,2.9171,2.8528,2.7442,2.6633,2.679,2.7005,2.7367,2.7645,2.7959,2.8293,2.8633,2.9025,2.8761,2.8828,2.9228,2.9369,2.9524,2.9021,2.8274,2.8626,2.907,2.8886,2.9148,2.9938,3.0572,3.1136,3.1872,3.2709,3.3508,3.4251,3.4164,3.3756,3.3313,3.2555,3.2669,3.2669,3.2669,3.2669,3.2669,3.238,3.1967,3.1629,3.1195,3.0677,3.0284,3.0108,3.0203,3.0981,3.2376,3.3685,3.4434,3.5078,3.587,3.6013,3.6263,3.6216,3.5918,3.4933,3.3338,3.2083,3.0946,3.012,2.9829,2.9259,2.8649,2.8502,2.8084,2.7526,2.7624,2.7796,2.7265,2.745,2.7336,2.6814,2.6537,2.6487,2.6487,2.6487,2.6487,2.685,2.8019,2.8989,2.9146,3.0614,3.1307,3.1438,3.1438,3.1496,3.1409,3.1029,3.0494,2.995,3.0135,3.0088,3.0179,3.0925,3.1918,3.2513,3.3061,3.3235,3.304,3.2971,3.2861,3.2845,3.2408,3.2062,3.1771,3.1439,3.1069,3.105,3.0683,3.0262,3.0148,2.9709,2.922,2.8511,2.7972,2.7424,2.6771,2.6606,2.6808,2.7111,2.7264,2.7372,2.7743,2.8098,2.8532,2.8815,2.9008,2.9261,2.9321,2.9435,2.949,2.8972,2.8905,2.8938,2.907,2.8936,2.9173,2.9771,3.0667,3.1221,3.2149,3.288,3.361,3.345,3.324,3.3005,3.2669,3.2669,3.2669,3.2669,3.2628,3.2411,3.2116,3.1671,3.1215,3.076,3.0377,3.0098,2.9994,3.0287,3.1135,3.2778,3.4471,3.5463,3.5918,3.6358,3.6417,3.6417,3.6263,3.5918,3.4678,3.3289,3.2083,3.1032,3.0099,2.9984,2.9363,2.8695,2.8898,2.8806,2.8344,2.9195,2.9088,2.871,2.8545,2.8212,2.727,2.6851,2.6512,2.6487,2.6487,2.6487,2.6748,2.7703,2.8427,2.8766,3.0072,3.0807,3.1058,3.1278,3.1467,3.1351,3.0837,3.0194,2.9529,2.96,2.9535,3.0064,3.0963,3.2013,3.2987,3.3726,3.3974,3.3733,3.3403,3.3045,3.2626,3.2064,3.1742,3.1465,3.1177,3.1106,3.0934,3.0159,2.971,2.9411,2.928,2.8819,2.7907,2.7519,2.7405,2.7036,2.6615,2.6756,2.7064,2.7084,2.7202,2.7623,2.816,2.89,2.9307,2.9523,2.9577,2.9564,2.9638,2.9669,2.9814,2.9813,2.972,2.9692,2.945,2.97,3.0642,3.2042,3.1862,3.1647,3.2493,3.3136,3.2966,3.2767,3.2424,3.2669,3.2669,3.2669,3.2669,3.2607,3.2287,3.1884,3.1474,3.105,3.0615,3.0149,3.0036,3.0151,3.064,3.183,3.3377,3.5126,3.6061,3.631,3.6358,3.6417,3.6417,3.6108,3.5319,3.4288,3.325,3.2095,3.1032,3.0193,2.9994,2.9197,2.8598,2.9299,2.9343,2.8627,2.9912,3.0434,3.0017,2.9794,2.9164,2.7871,2.7002,2.6487,2.6487,2.6487,2.6487,2.6589,2.7517,2.8019,2.846,2.9334,3.0284,3.0389,3.0792,3.1087,3.0999,3.0584,2.9999,2.9379,2.9096,2.9431,3.0411,3.0888,3.2311,3.367,3.4486,3.4529,3.4319,3.3889,3.3165,3.2262,3.1791,3.1457,3.1204,3.1083,3.1007,3.0784,3.0185,2.9295,2.9042,2.8989,2.8389,2.7482,2.7128,2.7014,2.7886,2.7529,2.7535,2.7742,2.7347,2.7418,2.779,2.8406,2.937,2.9912,3.0221,3.022,3.0134,3.0234,3.0338,3.0591,3.0815,3.0759,3.0873,3.1592,3.1994,3.2785,3.2673,3.1975,3.1782,3.24,3.2444,3.196,3.1757,3.1558,3.2669,3.2669,3.2669,3.2669,3.2659,3.2576,3.2308,3.1853,3.1433,3.104,3.0512,3.0328,3.0588,3.1728,3.3438,3.4969,3.5918,3.6263,3.6417,3.6417,3.6417,3.6358,3.6168,3.5319,3.4129,3.3039,3.2044,3.1043,3.0349,3.0099,2.9392,2.8586,2.8924,2.8928,2.8623,3.0275,2.9983,2.9036,2.9401,2.875,2.7115,2.66,2.6512,2.6487,2.6487,2.6487,2.6624,2.7364,2.7868,2.8051,2.8971,2.9566,2.9628,2.9673,2.9721,2.9735,2.9586,2.9341,2.883,2.8924,2.9678,3.0963,3.2135,3.3729,3.4682,3.5204,3.5002,3.4068,3.3679,3.294,3.1924,3.1294,3.1059,3.1083,3.1134,3.114,3.0946,2.9951,2.9076,2.8289,2.8058,2.767,2.7019,2.6813,2.6756,2.777,2.851,2.843,2.8378,2.798,2.7874,2.828,2.8891,2.9826,3.0211,3.0559,3.0618,3.0572,3.0826,3.0986,3.1271,3.1608,3.2217,3.2511,3.3172,3.3044,3.2656,3.222,3.169,3.1492,3.1584,3.1207,3.0698,3.0636,3.082,3.2669,3.2669,3.2669,3.2669,3.2638,3.2401,3.2173,3.1874,3.1288,3.0884,3.0775,3.0904,3.179,3.3327,3.4532,3.5367,3.6216,3.6417,3.6417,3.6417,3.637,3.6061,3.5463,3.4921,3.403,3.2639,3.1891,3.1534,3.0836,3.0326,2.9593,2.9398,2.9675,2.9874,2.9171,3.0772,3.0842,3.014,2.9298,2.8059,2.6914,2.6487,2.6487,2.6487,2.6487,2.6487,2.6658,2.7019,2.741,2.7597,2.8403,2.8903,2.9048,2.9237,2.938,2.8907,2.8622,2.8487,2.8531,2.8886,2.9973,3.1371,3.274,3.3809,3.4857,3.5019,3.473,3.3759,3.3333,3.2666,3.1912,3.1485,3.1274,3.1215,3.1244,3.1069,3.072,2.9661,2.8708,2.7909,2.7242,2.7105,2.6868,2.6515,2.6813,2.7996,2.8392,2.8165,2.8452,2.8663,2.869,2.8907,2.9583,3.0335,3.0511,3.072,3.0716,3.0806,3.1378,3.1577,3.1904,3.2335,3.27,3.3044,3.3316,3.2993,3.2353,3.2138,3.1976,3.1272,3.0515,3.0441,3.0419,3.0487,3.0844,3.2669,3.2669,3.2669,3.2669,3.2638,3.2354,3.2019,3.1774,3.1184,3.09,3.1222,3.1944,3.3377,3.4581,3.5078,3.5727,3.637,3.6417,3.6417,3.6417,3.6263,3.5823,3.5078,3.4483,3.3537,3.1982,3.179,3.1982,3.2134,3.149,3.0822,3.0285,3.0549,3.036,3.0374,3.0996,3.1389,3.0541,2.865,2.7379,2.6637,2.6487,2.6487,2.6487,2.6487,2.6487,2.6568,2.6841,2.7011,2.7201,2.7776,2.8254,2.832,2.8551,2.8511,2.8133,2.7814,2.7922,2.8222,2.8752,3.0058,3.1758,3.3366,3.4607,3.4831,3.4505,3.4026,3.3776,3.3385,3.2823,3.2176,3.175,3.1526,3.1363,3.1302,3.102,3.056,2.9467,2.8841,2.8503,2.7854,2.7223,2.6893,2.6336,2.6833,2.818,2.8353,2.8037,2.8413,2.9012,2.9059,2.9171,2.9922,3.0531,3.0682,3.0778,3.0796,3.0921,3.149,3.1874,3.2013,3.2294,3.2584,3.297,3.3272,3.2612,3.1765,3.2069,3.2275,3.1523,3.0852,3.0516,3.0425,3.0467,3.0955,3.2669,3.2669,3.2669,3.2659,3.2638,3.2638,3.2188,3.1485,3.1394,3.1508,3.2046,3.3499,3.4434,3.503,3.5727,3.6216,3.6417,3.6417,3.6417,3.6417,3.631,3.5763,3.4921,3.4042,3.34,3.2839,3.2286,3.2889,3.3784,3.3178,3.1828,3.0583,3.1207,3.0513,3.0282,3.0856,3.0844,2.9867,2.8034,2.6964,2.6587,2.6487,2.6487,2.6487,2.6487,2.6487,2.6533,2.6807,2.699,2.7011,2.7423,2.7676,2.7809,2.7802,2.757,2.7298,2.7193,2.7407,2.7822,2.8748,3.0434,3.2722,3.4434,3.5066,3.4748,3.4942,3.4652,3.3832,3.3279,3.2932,3.2319,3.1895,3.1771,3.1088,3.0783,3.0453,2.995,2.9254,2.8752,2.8866,2.8342,2.7442,2.7317,2.6851,2.727,2.8587,2.8963,2.8691,2.8783,2.922,2.9142,2.9355,3.0129,3.0609,3.0737,3.0771,3.07,3.078,3.1134,3.149,3.1763,3.2071,3.2369,3.2471,3.2585,3.1896,3.1376,3.1576,3.1664,3.153,3.1166,3.0667,3.0455,3.0487,3.1197,3.2669,3.2669,3.2669,3.2504,3.2246,3.2246,3.195,3.1545,3.1784,3.2646,3.3575,3.4434,3.5174,3.5763,3.6061,3.6417,3.6417,3.6417,3.6417,3.6417,3.6263,3.5763,3.4921,3.4337,3.3895,3.33,3.2801,3.3239,3.4483,3.4337,3.3717,3.2805,3.2183,3.1466,3.1095,3.062,3.0127,2.9315,2.8097,2.7266,2.6537,2.6487,2.6487,2.6487,2.6487,2.6487,2.6521,2.6692,2.6841,2.6998,2.7209,2.7338,2.732,2.7124,2.6889,2.6604,2.6566,2.6905,2.7963,2.9018,3.092,3.2965,3.4091,3.4169,3.3813,3.3112,3.2784,3.2516,3.2711,3.2309,3.2266,3.2161,3.2019,3.089,3.0123,2.9728,2.9223,2.8509,2.7991,2.7837,2.7648,2.7147,2.7298,2.7469,2.8149,2.8933,2.9167,2.936,2.9364,2.941,2.9368,2.9477,3.0193,3.062,3.0767,3.0714,3.0601,3.0659,3.0735,3.0959,3.1234,3.1751,3.2003,3.2043,3.1927,3.1427,3.1118,3.1076,3.1047,3.1,3.0876,3.0612,3.051,3.0522,3.1114,3.2669,3.2649,3.2525,3.2287,3.2008,3.1988,3.1702,3.1381,3.1954,3.3243,3.4787,3.5126,3.5667,3.6263,3.6417,3.6417,3.6417,3.6417,3.6417,3.6417,3.631,3.5727,3.5126,3.4678,3.4337,3.3747,3.3747,3.4288,3.5319,3.5271,3.4551,3.3773,3.3141,3.2296,3.1025,3.0432,2.9678,2.895,2.816,2.7457,2.6587,2.6487,2.6487,2.6487,2.6487,2.6487,2.6521,2.6633,2.6621,2.67,2.6812,2.6913,2.6837,2.6634,2.6364,2.6085,2.6097,2.6459,2.7861,2.989,3.1506,3.3037,3.342,3.3042,3.2254,3.1508,3.176,3.1541,3.1528,3.1395,3.1383,3.0963,3.0592,2.9372,2.9015,2.8625,2.8201,2.7606,2.7114,2.672,2.6635,2.6732,2.7129,2.7403,2.7918,2.8502,2.8653,2.9023,2.942,2.9515,2.9661,2.9837,3.0234,3.0544,3.0794,3.0412,3.007,3.0037,3.0143,3.025,3.0563,3.1146,3.1453,3.1344,3.119,3.096,3.0857,3.0788,3.0677,3.055,3.0515,3.0543,3.0583,3.0591,3.0625,3.2628,3.2618,3.2173,3.2033,3.1996,3.2012,3.1505,3.1114,3.2054,3.3412,3.4993,3.581,3.6263,3.6417,3.6417,3.6417,3.6417,3.6417,3.6417,3.6417,3.637,3.5727,3.5271,3.4981,3.503,3.4836,3.4836,3.5271,3.6203,3.6061,3.5299,3.4116,3.3246,3.2384,3.0643,2.954,2.8988,2.8737,2.7858,2.7281,2.665,2.6487,2.6487,2.6487,2.6487,2.6487,2.6521,2.6438,2.6363,2.6243,2.6262,2.6207,2.5896,2.5845,2.5559,2.5145,2.5795,2.6442,2.7381,3.0394,3.1662,3.2039,3.2124,3.2051,3.1515,3.1173,3.0998,3.0452,3.017,2.9741,2.9308,2.8934,2.8719,2.8197,2.7836,2.7477,2.7048,2.668,2.6162,2.6278,2.6266,2.631,2.6801,2.7236,2.7627,2.7995,2.8135,2.8526,2.9071,2.9502,2.9623,2.9706,2.9983,3.0564,3.065,2.9917,2.9554,2.9504,2.9675,2.9938,3.0167,3.0646,3.0793,3.07,3.0505,3.032,3.042,3.051,3.0455,3.0448,3.0544,3.06,3.0633,3.0749,3.0884,3.1836,3.1816,3.1661,3.1829,3.2041,3.1458,3.1146,3.1603,3.3128,3.4687,3.5704,3.631,3.6417,3.6417,3.6417,3.6417,3.6417,3.6417,3.6417,3.6417,3.6417,3.6263,3.587,3.5763,3.581,3.587,3.5918,3.587,3.6358,3.6304,3.5399,3.4135,3.2491,3.1386,3.0733,2.9991,2.9628,2.8649,2.8197,2.7846,2.6675,2.6487,2.6474,2.6461,2.6436,2.6424,2.6348,2.6164,2.5916,2.5691,2.5729,2.5397,2.5187,2.5118,2.4911,2.4874,2.5451,2.5983,2.7123,2.8965,2.9707,3.0125,3.042,3.0396,2.9777,2.8844,2.8854,2.9017,2.8513,2.8239,2.8348,2.8528,2.8242,2.7085,2.6563,2.6246,2.5883,2.5568,2.5324,2.6012,2.6289,2.6219,2.6481,2.6545,2.6882,2.6773,2.6786,2.7581,2.8206,2.8975,2.9377,2.9338,2.9596,3.0349,3.0525,2.9615,2.9216,2.9235,2.9553,2.9963,3.0206,3.0383,3.0574,3.0714,3.0202,2.9726,3.0047,3.0299,3.0366,3.041,3.0568,3.068,3.0713,3.1014,3.1393,3.1381,3.1415,3.1619,3.1945,3.2171,3.155,3.1774,3.2835,3.4227,3.5427,3.6203,3.6417,3.6417,3.6417,3.6417,3.6417,3.6417,3.6417,3.6417,3.6417,3.6417,3.6358,3.637,3.6417,3.6263,3.6417,3.6417,3.6417,3.6355,3.5956,3.4675,3.2867,3.1298,3.0595,3.0206,2.9853,2.9327,2.8398,2.8059,2.7595,2.6801,2.6461,2.6373,2.6223,2.6101,2.605,2.5837,2.5594,2.53,2.5171,2.4874,2.448,2.4304,2.4157,2.408,2.4313,2.5259,2.5783,2.6812,2.7573,2.8072,2.7792,2.8202,2.8567,2.8496,2.8007,2.7669,2.7498,2.6808,2.6345,2.6362,2.6771,2.642,2.5199,2.5177,2.486,2.4934,2.4627,2.5003,2.5703,2.6143,2.6123,2.5837,2.5946,2.599,2.5674,2.5396,2.6249,2.7039,2.7645,2.823,2.8288,2.8485,2.9063,2.9364,2.913,2.887,2.8949,2.9469,3.008,3.013,3.0315,3.0521,3.0684,3.032,3.004,2.9988,3.0114,3.0408,3.0563,3.0668,3.0759,3.0782,3.113,3.1555,3.1374,3.1529,3.207,3.2378,3.2419,3.2583,3.34,3.469,3.4824,3.5475,3.6405,3.6417,3.6417,3.6417,3.6417,3.6417,3.6417,3.6417,3.6417,3.6417,3.6417,3.6417,3.6417,3.6417,3.6417,3.6417,3.6392,3.6329,3.6229,3.4989,3.3382,3.1951,3.0683,3.0181,2.9905,2.9365,2.8775,2.8197,2.7708,2.7266,2.6625,2.6487,2.6298,2.6038,2.5824,2.5573,2.5297,2.4946,2.4582,2.4205,2.3705,2.32,2.2821,2.2648,2.2911,2.363,2.5028,2.5573,2.5826,2.6399,2.6002,2.5732,2.7182,2.7688,2.7513,2.6896,2.6348,2.573,2.4994,2.3922,2.3277,2.3499,2.3648,2.3454,2.3614,2.3688,2.3948,2.4195,2.4727,2.5253,2.5665,2.554,2.4675,2.4602,2.4848,2.4216,2.3893,2.3955,2.4725,2.5368,2.5972,2.6576,2.6889,2.7521,2.7833,2.8293,2.8767,2.8926,2.9721,3.029,3.0265,3.0287,3.0494,3.0621,3.0521,3.0316,3.0008,3.0195,3.0664,3.0781,3.0795,3.0787,3.0801,3.1074,3.1404,3.1544,3.1637,3.2565,3.3357,3.4155,3.4894,3.5102,3.4945,3.5571,3.6168,3.6417,3.6417,3.6417,3.6417,3.6417,3.6417,3.6417,3.6417,3.6417,3.6417,3.6417,3.6417,3.6392,3.6355,3.6392,3.6342,3.6279,3.5893,3.5328,3.3991,3.3206,3.2453,3.0658,3.0218,2.9817,2.9038,2.8524,2.8021,2.7557,2.7002,2.6625,2.6487,2.6273,2.6059,2.5649,2.536,2.5021,2.4469,2.4117,2.3872,2.3042,2.2454,2.2279,2.1942,2.1917,2.2547,2.3635,2.4384,2.4355,2.4658,2.4481,2.3724,2.4635,2.5409,2.5348,2.5037,2.45,2.4067,2.3355,2.2363,2.1981,2.2049,2.2224,2.2425,2.259,2.2805,2.3115,2.362,2.414,2.4629,2.504,2.4748,2.3856,2.3545,2.3663,2.2877,2.2427,2.2408,2.2603,2.3324,2.4181,2.4842,2.5642,2.6389,2.7303,2.7885,2.8451,2.9006,2.9897,3.0524,3.0466,3.0485,3.0568,3.0457,3.0189,2.9975,2.9764,3.0156,3.0761,3.082,3.0836,3.0829,3.0881,3.1097,3.1332,3.183,3.2336,3.3388,3.4434,3.5415,3.6121,3.6013,3.5619,3.6121,3.6417,3.6417,3.6417,3.6417,3.6417,3.6417,3.6417,3.6417,3.6417,3.6417,3.6417,3.6292,3.6417,3.6367,3.5918,3.5642,3.5617,3.5265,3.465,3.4248,3.3081,3.2051,3.18,3.0507,3.0633,3.0319,2.9465,2.8574,2.8097,2.7557,2.6927,2.6625,2.6449,2.6285,2.5896,2.546,2.5084,2.4469,2.3753,2.3552,2.3125,2.2159,2.1957,2.1825,2.1539,2.1633,2.2256,2.2805,2.3517,2.3801,2.4001,2.3345,2.2685,2.2579,2.3036,2.3328,2.3124,2.3032,2.2789,2.1872,2.1113,2.1088,2.1121,2.1377,2.1634,2.1809,2.1998,2.2459,2.2956,2.3449,2.3951,2.4016,2.3856,2.3453,2.3044,2.2493,2.1774,2.1375,2.1336,2.1434,2.1784,2.2759,2.3653,2.4551,2.5412,2.6324,2.7268,2.8096,2.9,3.0419,3.0865,3.0729,3.0752,3.0871,3.0378,2.9736,2.9751,2.9941,3.0332,3.0801,3.0839,3.0857,3.0871,3.0907,3.1026,3.1262,3.2404,3.3319,3.4435,3.5366,3.631,3.6405,3.6358,3.6392,3.6282,3.6367,3.6392,3.6417,3.6317,3.6078,3.6028,3.5977,3.5789,3.5701,3.5889,3.6229,3.5701,3.5726,3.5642,3.519,3.4688,3.4236,3.4035,3.3985,3.3206,3.2378,3.1587,3.0796,3.0733,3.0846,3.0758,2.9566,2.8612,2.7965,2.7119,2.6342,2.6465,2.6336,2.595,2.5172,2.4695,2.4211,2.3175,2.2686,2.2611,2.1945,2.1443,2.1382,2.1133,2.1193,2.1496,2.1692,2.1967,2.2443,2.2913,2.3186,2.2788,2.2207,2.1838,2.1236,2.0947,2.1153,2.1152,2.1589,2.0902,2.0364,2.0249,2.1038,2.1545,2.1519,2.1515,2.163,2.1887,2.208,2.2046,2.2501,2.2714,2.2532,2.2184,2.172,2.1762,2.0891,2.0636,2.0617,2.0656,2.0831,2.1473,2.2525,2.3265,2.4146,2.5046,2.61,2.7559,2.8834,3.0149,3.0904,3.0565,3.0799,3.1196,3.0554,2.9913,3.0142,3.039,3.0663,3.08,3.0839,3.0877,3.0893,3.0951,3.1011,3.109,3.3953,3.3887,3.491,3.5769,3.638,3.6417,3.6405,3.6367,3.5906,3.5956,3.6342,3.6317,3.5864,3.5165,3.5228,3.5102,3.465,3.465,3.4776,3.4939,3.4763,3.4889,3.4813,3.4161,3.3621,3.3558,3.3571,3.352,3.3357,3.2629,3.2152,3.2265,3.1675,3.1072,3.0846,2.9515,2.8375,2.763,2.654,2.6025,2.6236,2.6,2.5561,2.5096,2.4707,2.4079,2.3226,2.2723,2.2535,2.2074,2.1128,2.0511,1.9861,2.0216,2.0238,2.0194,2.0797,2.1354,2.1755,2.207,2.1723,2.0673,1.984,1.8905,1.8539,1.8907,1.9407,2.0004,2.0225,1.9773,1.9774,2.0819,2.1549,2.1366,2.1257,2.1323,2.1369,2.1063,2.079,2.0914,2.1227,2.109,2.0763,2.0651,2.0724,2.0675,2.0572,2.0519,2.048,2.0558,2.0656,2.1474,2.1921,2.2742,2.3839,2.4918,2.6365,2.7475,2.8616,2.9433,3.0303,3.0372,3.0432,3.0492,3.0273,3.0337,3.0443,3.0693,3.0811,3.0856,3.0877,3.0914,3.0915,3.0956,3.0995,3.4411,3.4406,3.5164,3.5671,3.5956,3.5994,3.6006,3.5893,3.537,3.5341,3.5604,3.5554,3.5027,3.4286,3.4462,3.4361,3.3872,3.3646,3.4299,3.4512,3.4161,3.4286,3.3909,3.3345,3.293,3.2792,3.2416,3.2428,3.2955,3.2541,3.2001,3.2428,3.1637,3.0972,3.0568,2.9209,2.7753,2.6927,2.5781,2.5498,2.5716,2.5345,2.5004,2.4696,2.4356,2.3715,2.2937,2.2351,2.2103,2.1736,2.1018,2.0171,1.9616,1.95,1.9435,1.9468,1.9876,2.0515,2.0861,2.102,2.087,1.9907,1.903,1.8537,1.7985,1.8322,1.8313,1.8889,1.963,1.9361,1.9525,2.0335,2.0578,2.052,2.0915,2.1239,2.0924,2.0499,1.9819,1.9165,1.9488,1.969,1.9392,1.9174,1.9252,1.94,1.9468,1.9917,1.9975,2.0248,2.0365,2.062,2.1164,2.2338,2.3865,2.4534,2.5141,2.6184,2.7157,2.8822,3.004,2.9751,2.9615,3.0121,3.0351,3.0212,3.0354,3.0743,3.0846,3.0874,3.0895,3.0915,3.0917,3.0976,3.121,3.4357,3.4735,3.5107,3.5345,3.5395,3.5395,3.5395,3.5307,3.4818,3.4517,3.4512,3.4467,3.3884,3.3734,3.3947,3.3909,3.3658,3.3093,3.3721,3.4211,3.3709,3.3696,3.3432,3.293,3.239,3.1888,3.1524,3.1386,3.1471,3.1637,3.2026,3.1926,3.1399,3.0783,3.0134,2.8778,2.7052,2.6408,2.5564,2.4927,2.4673,2.4466,2.4407,2.4229,2.374,2.303,2.2266,2.1751,2.1577,2.1167,2.0793,1.995,1.9343,1.9021,1.8874,1.8943,1.9369,2.0179,2.0839,2.1101,2.0679,2.0,1.9199,1.8452,1.7865,1.7702,1.769,1.7978,1.8721,1.9335,1.9494,2.0019,2.0181,2.011,2.0694,2.0852,2.0331,1.971,1.8689,1.7743,1.7982,1.8291,1.8278,1.8035,1.8035,1.8143,1.838,1.8789,1.9218,1.9686,1.9978,2.0293,2.0762,2.2131,2.3365,2.3647,2.3702,2.4999,2.6143,2.824,2.9822,2.9944,3.01,3.0361,3.0474,3.0435,3.0591,3.096,3.0985,3.0972,3.0914,3.0934,3.0916,3.1054,3.1523,3.4632,3.4655,3.4374,3.4462,3.4839,3.4831,3.4843,3.4743,3.4299,3.3834,3.3571,3.342,3.3237,3.3124,3.3262,3.3156,3.2817,3.2441,3.3043,3.3721,3.2867,3.2893,3.2905,3.2516,3.1763,3.1424,3.1348,3.1537,3.1223,3.1976,3.2202,3.1461,3.1373,3.0357,2.87,2.7569,2.6931,2.6117,2.5276,2.4568,2.4302,2.4221,2.4382,2.3898,2.3088,2.2874,2.2529,2.1934,2.155,2.1065,2.0408,1.9618,1.9018,1.8654,1.8547,1.8689,1.9091,1.9911,2.0558,2.0899,2.055,1.987,1.8985,1.8058,1.7687,1.7676,1.761,1.7514,1.8251,1.9166,1.9663,2.086,2.1297,2.0695,2.079,2.0045,1.9369,1.8375,1.7301,1.7047,1.7136,1.7483,1.7763,1.7626,1.7648,1.7752,1.785,1.8221,1.8307,1.889,1.9534,1.9887,2.0241,2.0577,2.1245,2.1694,2.209,2.3485,2.5216,2.7435,2.9232,3.0477,3.0736,3.0705,3.0827,3.0876,3.1089,3.105,3.1226,3.121,3.1012,3.0934,3.0917,3.1094,3.1542]}]]